Darstellungsparameter: Aktuell verwendete Einstellungen:
Skalierung der Graphiken ... ?
xyx+y,   Skalierungsfaktor:      Skalierung: Modus: x, Faktor: 1
Darstellungszeitraum ... ?
Vom - - bis: - -   Zeitraum: 21.04.2017 - 20.04.2020
Min/Max/Avg-Anzeige ... ?
Zeige MMA aktuell
Zeige MMA Monat
Zeige MMA alles
Zeige --A aktuell
Zeige --A Monat
Zeige --A alles
Keine MMA-Anzeige
MMA:
Keine MMA-Graphiken
MMA-Basis: 21.04.2017 - 20.04.2020
Quicknavigation für Darstellung... ?
Tage:      1T, 2T, 3T, 5T -1T -2T -3T -5T +1T +2T +3T +5T
Wochen: 1W, 2W, 3W -1W -2W -3W +1W +2W +3W
Monate: 1M, 3M, 6M -1M -3M -6M +1M +3M +6M
Jahre:    1J, 3J, 5J, 10J -1J -3J -5J -10J +1J +3J +5J +10J
Nutze für die Darstellung ... ?
Originaldaten oder ...
Mittelwerte Minima Maxima auf...
Stundenbasis Tagesbasis Wochenbasis
Monatsbasis Jahresbasis      Datenbasis: Mittelwerte auf Stundenbasis
Darstellen als:
Statistik (Auto) Statistik J:M      Darstellung:
Zur Graphik,    zurück zur Übersicht aller Sensoren.
 
Tabellarische Datenbersicht: ?
 
Sensor: Nr:Datum:Temp:Feuchte:
Aussen-T/F 1 21-04-2017 00:00:00 2.94 C 20.0000 %
2 21-04-2017 01:00:00 2.18 C 20.0000 %
3 21-04-2017 02:00:00 1.88 C 20.0000 %
4 21-04-2017 03:00:00 0.38 C 20.2000 %
5 21-04-2017 04:00:00 -0.4 C 24.4000 %
6 21-04-2017 05:00:00 -0.62 C 27.0000 %
7 21-04-2017 06:00:00 -1.32 C 32.2000 %
8 21-04-2017 07:00:00 -0.94 C 34.6000 %
9 21-04-2017 08:00:00 0.84 C 33.0000 %
10 21-04-2017 09:00:00 4.54 C 20.2000 %
11 21-04-2017 10:00:00 10.58 C 20.0000 %
12 21-04-2017 11:00:00 12.4 C 20.0000 %
13 21-04-2017 12:00:00 14.28 C 20.0000 %
14 21-04-2017 13:00:00 14.64 C 20.0000 %
15 21-04-2017 14:00:00 13.12 C 20.0000 %
16 21-04-2017 15:00:00 15.16 C 20.0000 %
17 21-04-2017 16:00:00 16.26 C 20.0000 %
18 21-04-2017 17:00:00 15.48 C 20.0000 %
19 21-04-2017 18:00:00 16.28 C 20.0000 %
20 21-04-2017 19:00:00 12.84 C 20.0000 %
21 21-04-2017 20:00:00 11.4 C 20.0000 %
22 21-04-2017 21:00:00 11.28 C 20.0000 %
23 21-04-2017 22:00:00 11.72 C 20.0000 %
24 21-04-2017 23:00:00 11.14 C 20.0000 %
25 22-04-2017 00:00:00 11.02 C 20.0000 %
Sensor: Nr:Datum:Temp:Feuchte:
Aussen-T/F 26 22-04-2017 01:00:00 10.36 C 20.0000 %
27 22-04-2017 02:00:00 10 C 20.0000 %
28 22-04-2017 03:00:00 9.56 C 20.0000 %
29 22-04-2017 04:00:00 9.08 C 20.0000 %
30 22-04-2017 05:00:00 8.86 C 20.0000 %
31 22-04-2017 06:00:00 9.14 C 20.0000 %
32 22-04-2017 07:00:00 9.86 C 20.0000 %
33 22-04-2017 08:00:00 9.96 C 20.0000 %
34 22-04-2017 09:00:00 8.42 C 20.0000 %
35 22-04-2017 10:00:00 7.86 C 20.0000 %
36 22-04-2017 11:00:00 9.82 C 20.0000 %
37 22-04-2017 12:00:00 11.22 C 20.0000 %
38 22-04-2017 13:00:00 10.4 C 20.0000 %
39 22-04-2017 14:00:00 11.54 C 20.0000 %
40 22-04-2017 15:00:00 12.28 C 20.0000 %
41 22-04-2017 16:00:00 12.8 C 20.0000 %
42 22-04-2017 17:00:00 11.8 C 20.0000 %
43 22-04-2017 18:00:00 11.12 C 20.0000 %
44 22-04-2017 19:00:00 9.86 C 20.0000 %
45 22-04-2017 20:00:00 8.92 C 20.0000 %
46 22-04-2017 21:00:00 8.38 C 20.0000 %
47 22-04-2017 22:00:00 7.82 C 20.0000 %
48 22-04-2017 23:00:00 7.04 C 20.0000 %
49 23-04-2017 00:00:00 6.22 C 20.0000 %
50 23-04-2017 01:00:00 4.88 C 20.0000 %
Sensor: Nr:Datum:Temp:Feuchte:
Aussen-T/F 51 23-04-2017 02:00:00 4.74 C 20.0000 %
52 23-04-2017 03:00:00 4.42 C 20.0000 %
53 23-04-2017 04:00:00 3.9 C 20.0000 %
54 23-04-2017 05:00:00 2.72 C 20.0000 %
55 23-04-2017 06:00:00 2.08 C 24.2000 %
56 23-04-2017 07:00:00 2.52 C 27.4000 %
57 23-04-2017 08:00:00 5.24 C 21.2000 %
58 23-04-2017 09:00:00 7.54 C 20.0000 %
59 23-04-2017 10:00:00 9.26 C 20.0000 %
60 23-04-2017 11:00:00 10.56 C 20.0000 %
61 23-04-2017 12:00:00 11.66 C 20.0000 %
62 23-04-2017 13:00:00 11.8 C 20.0000 %
63 23-04-2017 14:00:00 13 C 20.0000 %
64 23-04-2017 15:00:00 13.52 C 20.0000 %
65 23-04-2017 16:00:00 13.46 C 20.0000 %
66 23-04-2017 17:00:00 13.92 C 20.0000 %
67 23-04-2017 18:00:00 11.08 C 20.0000 %
68 23-04-2017 19:00:00 10 C 20.0000 %
69 23-04-2017 20:00:00 8.6 C 20.0000 %
70 23-04-2017 21:00:00 5.6 C 20.0000 %
71 23-04-2017 22:00:00 3.74 C 20.0000 %
72 23-04-2017 23:00:00 3.14 C 20.0000 %
73 24-04-2017 00:00:00 3.12 C 20.0000 %
74 24-04-2017 01:00:00 1.32 C 24.8000 %
75 24-04-2017 02:00:00 0.32 C 32.2000 %
Sensor: Nr:Datum:Temp:Feuchte:
Aussen-T/F 76 24-04-2017 03:00:00 -0.24 C 35.8000 %
77 24-04-2017 04:00:00 -0.82 C 38.2000 %
78 24-04-2017 05:00:00 -1.26 C 39.8000 %
79 24-04-2017 06:00:00 -1.42 C 41.0000 %
80 24-04-2017 07:00:00 -1.5 C 41.0000 %
81 24-04-2017 08:00:00 -1.5 C 41.0000 %
82 24-04-2017 09:00:00 -1.5 C 41.0000 %
83 24-04-2017 10:00:00 -1.5 C 41.0000 %
84 24-04-2017 11:00:00 12.4 C 20.0000 %
85 24-04-2017 12:00:00 12.4 C 20.0000 %
86 24-04-2017 13:00:00 12.4 C 20.0000 %
87 24-04-2017 14:00:00 12.4 C 20.0000 %
88 24-04-2017 15:00:00 12.4 C 20.0000 %
89 24-04-2017 16:00:00 12.4 C 20.0000 %
90 24-04-2017 17:00:00 12.4 C 20.0000 %
91 24-04-2017 18:00:00 21.98 C 20.0000 %
92 24-04-2017 19:00:00 17.9 C 20.0000 %
93 24-04-2017 20:00:00 13.08 C 20.0000 %
94 24-04-2017 21:00:00 9.24 C 20.0000 %
95 24-04-2017 22:00:00 7.72 C 20.0000 %
96 24-04-2017 23:00:00 6.36 C 20.0000 %
97 25-04-2017 00:00:00 5.5 C 20.0000 %
98 25-04-2017 01:00:00 5.36 C 20.0000 %
99 25-04-2017 02:00:00 4.8 C 20.0000 %
100 25-04-2017 03:00:00 6.16 C 20.0000 %
Sensor: Nr:Datum:Temp:Feuchte:
Aussen-T/F 101 25-04-2017 04:00:00 6.14 C 20.0000 %
102 25-04-2017 05:00:00 6.32 C 20.0000 %
103 25-04-2017 06:00:00 7.48 C 20.0000 %
104 25-04-2017 07:00:00 6.44 C 20.0000 %
105 25-04-2017 08:00:00 6.2 C 20.0000 %
106 25-04-2017 09:00:00 6.2 C 20.0000 %
107 25-04-2017 10:00:00 6.2 C 20.0000 %
108 25-04-2017 11:00:00 6.2 C 20.0000 %
109 25-04-2017 12:00:00 6.2 C 20.0000 %
110 25-04-2017 13:00:00 6.2 C 20.0000 %
111 25-04-2017 14:00:00 6.2 C 20.0000 %
112 25-04-2017 15:00:00 6.2 C 20.0000 %
113 25-04-2017 16:00:00 6.2 C 20.0000 %
114 25-04-2017 17:00:00 14.74 C 20.0000 %
115 25-04-2017 18:00:00 14.42 C 20.0000 %
116 25-04-2017 19:00:00 10.88 C 20.0000 %
117 25-04-2017 20:00:00 8.18 C 20.0000 %
118 25-04-2017 21:00:00 6.96 C 20.0000 %
119 25-04-2017 22:00:00 6.2 C 20.0000 %
120 25-04-2017 23:00:00 5.6 C 20.0000 %
121 26-04-2017 00:00:00 4.7 C 20.0000 %
122 26-04-2017 01:00:00 4.24 C 20.0000 %
123 26-04-2017 02:00:00 3.9 C 20.0000 %
124 26-04-2017 03:00:00 3.3 C 20.0000 %
125 26-04-2017 04:00:00 3.06 C 20.0000 %
Sensor: Nr:Datum:Temp:Feuchte:
Aussen-T/F 126 26-04-2017 05:00:00 2.66 C 20.0000 %
127 26-04-2017 06:00:00 2.6 C 20.0000 %
128 26-04-2017 07:00:00 2.82 C 23.6000 %
129 26-04-2017 08:00:00 3.58 C 20.0000 %
130 26-04-2017 09:00:00 5 C 20.0000 %
131 26-04-2017 10:00:00 8.32 C 20.0000 %
132 26-04-2017 11:00:00 12.98 C 20.0000 %
133 26-04-2017 12:00:00 10.26 C 20.0000 %
134 26-04-2017 13:00:00 12.1 C 20.0000 %
135 26-04-2017 14:00:00 12.4 C 20.0000 %
136 26-04-2017 15:00:00 14.7 C 20.0000 %
137 26-04-2017 16:00:00 15.4 C 20.0000 %
138 26-04-2017 17:00:00 13.08 C 20.0000 %
139 26-04-2017 18:00:00 11.78 C 20.0000 %
140 26-04-2017 19:00:00 10.16 C 20.0000 %
141 26-04-2017 20:00:00 8.44 C 20.0000 %
142 26-04-2017 21:00:00 6.8 C 20.0000 %
143 26-04-2017 22:00:00 5.54 C 20.0000 %
144 26-04-2017 23:00:00 5.2 C 20.0000 %
145 27-04-2017 00:00:00 3.86 C 20.0000 %
146 27-04-2017 01:00:00 3.26 C 20.0000 %
147 27-04-2017 02:00:00 2.72 C 20.0000 %
148 27-04-2017 03:00:00 1.5 C 24.2000 %
149 27-04-2017 04:00:00 0.88 C 30.2000 %
150 27-04-2017 05:00:00 -0.1 C 35.4000 %
Sensor: Nr:Datum:Temp:Feuchte:
Aussen-T/F 151 27-04-2017 06:00:00 0.32 C 40.4000 %
152 27-04-2017 07:00:00 1 C 41.0000 %
153 27-04-2017 08:00:00 2.44 C 37.0000 %
154 27-04-2017 09:00:00 4.76 C 25.6000 %
155 27-04-2017 10:00:00 8.48 C 20.0000 %
156 27-04-2017 11:00:00 11.52 C 20.0000 %
157 27-04-2017 12:00:00 10.98 C 20.0000 %
158 27-04-2017 13:00:00 11.76 C 20.0000 %
159 27-04-2017 14:00:00 12.98 C 20.0000 %
160 27-04-2017 15:00:00 14.08 C 20.0000 %
161 27-04-2017 16:00:00 13.78 C 20.0000 %
162 27-04-2017 17:00:00 19.76 C 20.0000 %
163 27-04-2017 18:00:00 22.98 C 20.0000 %
164 27-04-2017 19:00:00 14.62 C 20.0000 %
165 27-04-2017 20:00:00 8.94 C 20.0000 %
166 27-04-2017 21:00:00 7 C 20.0000 %
167 27-04-2017 22:00:00 4.96 C 20.0000 %
168 27-04-2017 23:00:00 3.5 C 20.0000 %
169 28-04-2017 00:00:00 3.06 C 20.0000 %
170 28-04-2017 01:00:00 1.6 C 20.0000 %
171 28-04-2017 02:00:00 0.56 C 25.6000 %
172 28-04-2017 03:00:00 0.04 C 31.2000 %
173 28-04-2017 04:00:00 -0.46 C 34.6000 %
174 28-04-2017 05:00:00 -0.92 C 36.2000 %
175 28-04-2017 06:00:00 -1.18 C 38.0000 %
Sensor: Nr:Datum:Temp:Feuchte:
Aussen-T/F 176 28-04-2017 07:00:00 -0.74 C 39.8000 %
177 28-04-2017 08:00:00 0.72 C 38.4000 %
178 28-04-2017 09:00:00 3.74 C 23.2000 %
179 28-04-2017 10:00:00 7.9 C 20.0000 %
180 28-04-2017 11:00:00 11.88 C 20.0000 %
181 28-04-2017 12:00:00 12.14 C 20.0000 %
182 28-04-2017 13:00:00 12.86 C 20.0000 %
183 28-04-2017 14:00:00 13.16 C 20.0000 %
184 28-04-2017 15:00:00 13.14 C 20.0000 %
185 28-04-2017 16:00:00 12.1 C 20.0000 %
186 28-04-2017 17:00:00 10.94 C 20.0000 %
187 28-04-2017 18:00:00 14.68 C 20.0000 %
188 28-04-2017 19:00:00 8.9 C 23.4000 %
189 28-04-2017 20:00:00 8.4 C 26.0000 %
190 28-04-2017 21:00:00 6.12 C 35.6000 %
191 28-04-2017 22:00:00 6.02 C 41.0000 %
192 28-04-2017 23:00:00 5.6 C 42.6000 %
193 29-04-2017 00:00:00 5.32 C 43.4000 %
194 29-04-2017 01:00:00 5.02 C 44.4000 %
195 29-04-2017 02:00:00 5.12 C 45.0000 %
196 29-04-2017 03:00:00 4.9 C 45.0000 %
197 29-04-2017 04:00:00 3.46 C 43.6000 %
198 29-04-2017 05:00:00 2.7 C 45.4000 %
199 29-04-2017 06:00:00 2.64 C 47.8000 %
200 29-04-2017 07:00:00 3.04 C 48.4000 %
Sensor: Nr:Datum:Temp:Feuchte:
Aussen-T/F 201 29-04-2017 08:00:00 3.22 C 46.4000 %
202 29-04-2017 09:00:00 5.12 C 44.4000 %
203 29-04-2017 10:00:00 9.76 C 20.0000 %
204 29-04-2017 11:00:00 11.6 C 20.0000 %
205 29-04-2017 12:00:00 12.08 C 20.0000 %
206 29-04-2017 13:00:00 12.66 C 20.0000 %
207 29-04-2017 14:00:00 13.86 C 20.0000 %
208 29-04-2017 15:00:00 16.24 C 20.0000 %
209 29-04-2017 16:00:00 16.7 C 20.0000 %
210 29-04-2017 17:00:00 22.14 C 20.0000 %
211 29-04-2017 18:00:00 29.36 C 20.0000 %
212 29-04-2017 19:00:00 18.32 C 20.0000 %
213 29-04-2017 20:00:00 11.46 C 20.0000 %
214 29-04-2017 21:00:00 7.52 C 20.0000 %
215 29-04-2017 22:00:00 5.84 C 20.0000 %
216 29-04-2017 23:00:00 4.4 C 20.0000 %
217 30-04-2017 00:00:00 4.04 C 20.0000 %
218 30-04-2017 01:00:00 3.48 C 20.0000 %
219 30-04-2017 02:00:00 2.86 C 20.0000 %
220 30-04-2017 03:00:00 2.5 C 20.0000 %
221 30-04-2017 04:00:00 2.14 C 20.0000 %
222 30-04-2017 05:00:00 1.64 C 20.0000 %
223 30-04-2017 06:00:00 1.38 C 20.0000 %
224 30-04-2017 07:00:00 1.7 C 20.0000 %
225 30-04-2017 08:00:00 2.84 C 20.0000 %
Sensor: Nr:Datum:Temp:Feuchte:
Aussen-T/F 226 30-04-2017 09:00:00 5.92 C 20.0000 %
227 30-04-2017 10:00:00 10.72 C 20.0000 %
228 30-04-2017 11:00:00 16.54 C 20.0000 %
229 30-04-2017 12:00:00 14.8 C 20.0000 %
230 30-04-2017 13:00:00 15.7 C 20.0000 %
231 30-04-2017 14:00:00 17.6 C 20.0000 %
232 30-04-2017 15:00:00 20.84 C 20.0000 %
233 30-04-2017 16:00:00 22.08 C 20.0000 %
234 30-04-2017 17:00:00 26.46 C 20.0000 %
235 30-04-2017 18:00:00 28.74 C 20.0000 %
236 30-04-2017 19:00:00 21.88 C 20.0000 %
237 30-04-2017 20:00:00 15.52 C 20.0000 %
238 30-04-2017 21:00:00 11.72 C 20.0000 %
239 30-04-2017 22:00:00 11.36 C 20.0000 %
240 30-04-2017 23:00:00 11.08 C 20.0000 %
241 01-05-2017 00:00:00 10.6 C 20.0000 %
242 01-05-2017 01:00:00 9.84 C 20.0000 %
243 01-05-2017 02:00:00 8.78 C 20.0000 %
244 01-05-2017 03:00:00 9.54 C 20.0000 %
245 01-05-2017 04:00:00 8.68 C 20.0000 %
246 01-05-2017 05:00:00 8.48 C 20.0000 %
247 01-05-2017 06:00:00 8.98 C 20.0000 %
248 01-05-2017 07:00:00 10.16 C 20.0000 %
249 01-05-2017 08:00:00 9.88 C 20.0000 %
250 01-05-2017 09:00:00 8.56 C 27.8000 %
Sensor: Nr:Datum:Temp:Feuchte:
Aussen-T/F 251 01-05-2017 10:00:00 8.48 C 32.8000 %
252 01-05-2017 11:00:00 9.02 C 33.8000 %
253 01-05-2017 12:00:00 10.24 C 32.4000 %
254 01-05-2017 13:00:00 10.92 C 29.4000 %
255 01-05-2017 14:00:00 11.26 C 25.2000 %
256 01-05-2017 15:00:00 11.7 C 22.0000 %
257 01-05-2017 16:00:00 11.66 C 23.2000 %
258 01-05-2017 17:00:00 11.2 C 28.2000 %
259 01-05-2017 18:00:00 10.9 C 30.0000 %
260 01-05-2017 19:00:00 10.9 C 30.0000 %
261 01-05-2017 20:00:00 9.32 C 37.4000 %
262 01-05-2017 21:00:00 8.52 C 40.4000 %
263 01-05-2017 22:00:00 8.3 C 42.6000 %
264 01-05-2017 23:00:00 8.1 C 43.0000 %
265 02-05-2017 00:00:00 7.42 C 44.2000 %
266 02-05-2017 01:00:00 7.56 C 48.6000 %
267 02-05-2017 02:00:00 7.6 C 50.0000 %
268 02-05-2017 03:00:00 7.78 C 53.8000 %
269 02-05-2017 04:00:00 7.8 C 55.0000 %
270 02-05-2017 05:00:00 7.8 C 55.0000 %
271 02-05-2017 06:00:00 7.8 C 55.0000 %
272 02-05-2017 07:00:00 8.08 C 55.0000 %
273 02-05-2017 08:00:00 8.32 C 50.6000 %
274 02-05-2017 09:00:00 8.24 C 45.0000 %
275 02-05-2017 10:00:00 8.2 C 44.0000 %
Sensor: Nr:Datum:Temp:Feuchte:
Aussen-T/F 276 02-05-2017 11:00:00 8.36 C 43.6000 %
277 02-05-2017 12:00:00 9.12 C 40.4000 %
278 02-05-2017 13:00:00 9.8 C 39.0000 %
279 02-05-2017 14:00:00 10.4 C 33.6000 %
280 02-05-2017 15:00:00 10.8 C 30.0000 %
281 02-05-2017 16:00:00 10.58 C 31.2000 %
282 02-05-2017 17:00:00 9.7 C 38.4000 %
283 02-05-2017 18:00:00 9.62 C 42.0000 %
284 02-05-2017 19:00:00 9.48 C 44.2000 %
285 02-05-2017 20:00:00 8.66 C 44.8000 %
286 02-05-2017 21:00:00 8.04 C 47.0000 %
287 02-05-2017 22:00:00 7.68 C 48.6000 %
288 02-05-2017 23:00:00 7.14 C 49.4000 %
289 03-05-2017 00:00:00 6.92 C 53.2000 %
290 03-05-2017 01:00:00 6.86 C 56.0000 %
291 03-05-2017 02:00:00 6.76 C 56.8000 %
292 03-05-2017 03:00:00 6.64 C 57.2000 %
293 03-05-2017 04:00:00 6.72 C 59.4000 %
294 03-05-2017 05:00:00 6.86 C 60.2000 %
295 03-05-2017 06:00:00 6.94 C 60.6000 %
296 03-05-2017 07:00:00 7.32 C 60.8000 %
297 03-05-2017 08:00:00 8.06 C 60.4000 %
298 03-05-2017 09:00:00 9.26 C 58.4000 %
299 03-05-2017 10:00:00 9.98 C 50.8000 %
300 03-05-2017 11:00:00 14.34 C 20.8000 %
Sensor: Nr:Datum:Temp:Feuchte:
Aussen-T/F 301 03-05-2017 12:00:00 15.04 C 20.0000 %
302 03-05-2017 13:00:00 15 C 20.0000 %
303 03-05-2017 14:00:00 17.44 C 20.0000 %
304 03-05-2017 15:00:00 17.7 C 20.0000 %
305 03-05-2017 16:00:00 17.7 C 20.0000 %
306 03-05-2017 17:00:00 13.54 C 20.0000 %
307 03-05-2017 18:00:00 13.9 C 20.0000 %
308 03-05-2017 19:00:00 11.76 C 20.0000 %
309 03-05-2017 20:00:00 10.38 C 25.2000 %
310 03-05-2017 21:00:00 9.84 C 31.2000 %
311 03-05-2017 22:00:00 9.26 C 36.8000 %
312 03-05-2017 23:00:00 9 C 40.2000 %
313 04-05-2017 00:00:00 8.98 C 41.8000 %
314 04-05-2017 01:00:00 9.14 C 42.6000 %
315 04-05-2017 02:00:00 9.2 C 43.0000 %
316 04-05-2017 03:00:00 9.2 C 43.0000 %
317 04-05-2017 04:00:00 9.2 C 42.6000 %
318 04-05-2017 05:00:00 9.2 C 42.0000 %
319 04-05-2017 06:00:00 9.2 C 42.0000 %
320 04-05-2017 07:00:00 9.72 C 41.8000 %
321 04-05-2017 08:00:00 10.48 C 40.2000 %
322 04-05-2017 09:00:00 11.18 C 37.8000 %
323 04-05-2017 10:00:00 11.98 C 28.0000 %
324 04-05-2017 11:00:00 11.66 C 25.8000 %
325 04-05-2017 12:00:00 12.7 C 29.8000 %
Sensor: Nr:Datum:Temp:Feuchte:
Aussen-T/F 326 04-05-2017 13:00:00 14.3 C 22.6000 %
327 04-05-2017 14:00:00 14.32 C 20.0000 %
328 04-05-2017 15:00:00 17.68 C 20.0000 %
329 04-05-2017 16:00:00 15.66 C 20.0000 %
330 04-05-2017 17:00:00 17.46 C 20.0000 %
331 04-05-2017 18:00:00 15.06 C 20.0000 %
332 04-05-2017 19:00:00 14.9 C 20.0000 %
333 04-05-2017 20:00:00 12.48 C 21.0000 %
334 04-05-2017 21:00:00 11.3 C 25.0000 %
335 04-05-2017 22:00:00 11.14 C 25.0000 %
336 04-05-2017 23:00:00 10.62 C 24.6000 %
337 05-05-2017 00:00:00 10.38 C 20.0000 %
338 05-05-2017 01:00:00 10.04 C 20.0000 %
339 05-05-2017 02:00:00 9.78 C 22.8000 %
340 05-05-2017 03:00:00 9.56 C 25.0000 %
341 05-05-2017 04:00:00 9.22 C 26.2000 %
342 05-05-2017 05:00:00 9.06 C 27.2000 %
343 05-05-2017 06:00:00 8.9 C 30.2000 %
344 05-05-2017 07:00:00 8.9 C 31.0000 %
345 05-05-2017 08:00:00 8.9 C 31.0000 %
346 05-05-2017 09:00:00 10.8 C 21.0000 %
347 05-05-2017 10:00:00 12.78 C 20.0000 %
348 05-05-2017 11:00:00 13.62 C 20.0000 %
349 05-05-2017 12:00:00 14.4 C 20.0000 %
350 05-05-2017 13:00:00 16.48 C 20.0000 %
Sensor: Nr:Datum:Temp:Feuchte:
Aussen-T/F 351 05-05-2017 14:00:00 16.78 C 20.0000 %
352 05-05-2017 15:00:00 15.92 C 20.0000 %
353 05-05-2017 16:00:00 16 C 20.0000 %
354 05-05-2017 17:00:00 17.24 C 20.0000 %
355 05-05-2017 18:00:00 26.18 C 20.0000 %
356 05-05-2017 19:00:00 20.14 C 20.0000 %
357 05-05-2017 20:00:00 13.48 C 20.0000 %
358 05-05-2017 21:00:00 10.24 C 21.2000 %
359 05-05-2017 22:00:00 8.6 C 27.2000 %
360 05-05-2017 23:00:00 7.04 C 35.6000 %
361 06-05-2017 00:00:00 6.14 C 39.4000 %
362 06-05-2017 01:00:00 5.9 C 41.0000 %
363 06-05-2017 02:00:00 5.72 C 43.0000 %
364 06-05-2017 03:00:00 5.04 C 47.0000 %
365 06-05-2017 04:00:00 4.84 C 50.4000 %
366 06-05-2017 05:00:00 4.3 C 52.8000 %
367 06-05-2017 06:00:00 4.08 C 54.8000 %
368 06-05-2017 07:00:00 5.34 C 57.0000 %
369 06-05-2017 08:00:00 6.18 C 57.6000 %
370 06-05-2017 09:00:00 8.68 C 59.4000 %
371 06-05-2017 10:00:00 11.98 C 33.6000 %
372 06-05-2017 11:00:00 18 C 20.0000 %
373 06-05-2017 12:00:00 17.48 C 20.0000 %
374 06-05-2017 13:00:00 18.38 C 20.0000 %
375 06-05-2017 14:00:00 20.5 C 20.0000 %
Sensor: Nr:Datum:Temp:Feuchte:
Aussen-T/F 376 06-05-2017 15:00:00 23.5 C 20.0000 %
377 06-05-2017 16:00:00 23.24 C 20.0000 %
378 06-05-2017 17:00:00 22.1 C 20.0000 %
379 06-05-2017 18:00:00 22.26 C 20.0000 %
380 06-05-2017 19:00:00 22.2 C 20.0000 %
381 06-05-2017 20:00:00 19.5 C 20.0000 %
382 06-05-2017 21:00:00 15.06 C 20.0000 %
383 06-05-2017 22:00:00 14.96 C 20.0000 %
384 06-05-2017 23:00:00 13.9 C 20.0000 %
385 07-05-2017 00:00:00 12.72 C 26.0000 %
386 07-05-2017 01:00:00 12.04 C 35.4000 %
387 07-05-2017 02:00:00 11.8 C 38.8000 %
388 07-05-2017 03:00:00 11.7 C 41.2000 %
389 07-05-2017 04:00:00 11.7 C 42.6000 %
390 07-05-2017 05:00:00 11.44 C 43.4000 %
391 07-05-2017 06:00:00 11.38 C 44.8000 %
392 07-05-2017 07:00:00 11.86 C 46.8000 %
393 07-05-2017 08:00:00 12.76 C 45.2000 %
394 07-05-2017 09:00:00 13.38 C 42.0000 %
395 07-05-2017 10:00:00 14.4 C 37.2000 %
396 07-05-2017 11:00:00 14.42 C 32.4000 %
397 07-05-2017 12:00:00 14.28 C 28.8000 %
398 07-05-2017 13:00:00 13.8 C 28.2000 %
399 07-05-2017 14:00:00 13.64 C 29.8000 %
400 07-05-2017 15:00:00 14.2 C 31.8000 %
Sensor: Nr:Datum:Temp:Feuchte:
Aussen-T/F 401 07-05-2017 16:00:00 14.38 C 30.2000 %
402 07-05-2017 17:00:00 14.2 C 32.0000 %
403 07-05-2017 18:00:00 13.8 C 36.2000 %
404 07-05-2017 19:00:00 13.22 C 38.4000 %
405 07-05-2017 20:00:00 12.4 C 39.6000 %
406 07-05-2017 21:00:00 11.82 C 40.2000 %
407 07-05-2017 22:00:00 11.46 C 41.8000 %
408 07-05-2017 23:00:00 11.3 C 42.6000 %
409 08-05-2017 00:00:00 10.9 C 40.8000 %
410 08-05-2017 01:00:00 10.6 C 41.0000 %
411 08-05-2017 02:00:00 10.14 C 42.2000 %
412 08-05-2017 03:00:00 9.58 C 43.0000 %
413 08-05-2017 04:00:00 8.7 C 40.0000 %
414 08-05-2017 05:00:00 8 C 37.0000 %
415 08-05-2017 06:00:00 7.46 C 34.0000 %
416 08-05-2017 07:00:00 7.28 C 27.2000 %
417 08-05-2017 08:00:00 8.04 C 20.0000 %
418 08-05-2017 09:00:00 8.5 C 20.0000 %
419 08-05-2017 10:00:00 8.5 C 20.0000 %
420 08-05-2017 11:00:00 9.92 C 20.0000 %
421 08-05-2017 12:00:00 9.6 C 20.0000 %
422 08-05-2017 13:00:00 11 C 20.0000 %
423 08-05-2017 14:00:00 11.28 C 20.0000 %
424 08-05-2017 15:00:00 11.06 C 20.0000 %
425 08-05-2017 16:00:00 12.46 C 20.0000 %
Sensor: Nr:Datum:Temp:Feuchte:
Aussen-T/F 426 08-05-2017 17:00:00 11.42 C 20.0000 %
427 08-05-2017 18:00:00 10.48 C 20.0000 %
428 08-05-2017 19:00:00 10.12 C 20.0000 %
429 08-05-2017 20:00:00 10.04 C 20.0000 %
430 08-05-2017 21:00:00 9.4 C 20.0000 %
431 08-05-2017 22:00:00 9.4 C 20.0000 %
432 08-05-2017 23:00:00 8.7 C 32.0000 %
433 09-05-2017 00:00:00 8.7 C 32.0000 %
434 09-05-2017 01:00:00 8.7 C 32.0000 %
435 09-05-2017 02:00:00 8.7 C 32.0000 %
436 09-05-2017 03:00:00 8.7 C 32.0000 %
437 09-05-2017 04:00:00 8.7 C 32.0000 %
438 09-05-2017 05:00:00 8.7 C 32.0000 %
439 09-05-2017 06:00:00 8.7 C 32.0000 %
440 09-05-2017 07:00:00 8.7 C 32.0000 %
441 09-05-2017 08:00:00 8.7 C 32.0000 %
442 09-05-2017 09:00:00 9.1 C 29.6000 %
443 09-05-2017 10:00:00 10.86 C 20.0000 %
444 09-05-2017 11:00:00 13.34 C 20.0000 %
445 09-05-2017 12:00:00 13.36 C 20.0000 %
446 09-05-2017 13:00:00 12.08 C 20.0000 %
447 09-05-2017 14:00:00 13.62 C 20.0000 %
448 09-05-2017 15:00:00 16.64 C 20.0000 %
449 09-05-2017 16:00:00 17.74 C 20.0000 %
450 09-05-2017 17:00:00 20.28 C 20.0000 %
Sensor: Nr:Datum:Temp:Feuchte:
Aussen-T/F 451 09-05-2017 18:00:00 26.4 C 20.0000 %
452 09-05-2017 19:00:00 18.96 C 20.0000 %
453 09-05-2017 20:00:00 12.2 C 20.0000 %
454 09-05-2017 21:00:00 9.06 C 20.0000 %
455 09-05-2017 22:00:00 7.14 C 20.0000 %
456 09-05-2017 23:00:00 5.96 C 20.0000 %
457 10-05-2017 00:00:00 4.44 C 24.0000 %
458 10-05-2017 01:00:00 4.3 C 25.0000 %
459 10-05-2017 02:00:00 2.8 C 34.8000 %
460 10-05-2017 03:00:00 2.26 C 36.6000 %
461 10-05-2017 04:00:00 2 C 37.0000 %
462 10-05-2017 05:00:00 2 C 37.0000 %
463 10-05-2017 06:00:00 1.14 C 43.4000 %
464 10-05-2017 07:00:00 1.44 C 45.0000 %
465 10-05-2017 08:00:00 2 C 45.0000 %
466 10-05-2017 09:00:00 4.9 C 37.6000 %
467 10-05-2017 10:00:00 8.9 C 20.6000 %
468 10-05-2017 11:00:00 14.52 C 20.0000 %
469 10-05-2017 12:00:00 13.26 C 20.0000 %
470 10-05-2017 13:00:00 13.92 C 20.0000 %
471 10-05-2017 14:00:00 16.16 C 20.0000 %
472 10-05-2017 15:00:00 20.82 C 20.0000 %
473 10-05-2017 16:00:00 22.64 C 20.0000 %
474 10-05-2017 17:00:00 26.46 C 20.0000 %
475 10-05-2017 18:00:00 31.6 C 20.0000 %
Sensor: Nr:Datum:Temp:Feuchte:
Aussen-T/F 476 10-05-2017 19:00:00 29.32 C 20.0000 %
477 10-05-2017 20:00:00 15.98 C 20.0000 %
478 10-05-2017 21:00:00 11.96 C 20.0000 %
479 10-05-2017 22:00:00 10.4 C 20.0000 %
480 10-05-2017 23:00:00 8.9 C 20.0000 %
481 11-05-2017 00:00:00 7.9 C 20.4000 %
482 11-05-2017 01:00:00 6.56 C 25.4000 %
483 11-05-2017 02:00:00 5.86 C 28.8000 %
484 11-05-2017 03:00:00 5.08 C 34.0000 %
485 11-05-2017 04:00:00 4.58 C 37.6000 %
486 11-05-2017 05:00:00 4.5 C 40.2000 %
487 11-05-2017 06:00:00 5.12 C 41.0000 %
488 11-05-2017 07:00:00 6.52 C 40.8000 %
489 11-05-2017 08:00:00 8.12 C 36.0000 %
490 11-05-2017 09:00:00 12.3 C 20.0000 %
491 11-05-2017 10:00:00 14.98 C 20.0000 %
492 11-05-2017 11:00:00 18.46 C 20.0000 %
493 11-05-2017 12:00:00 20.08 C 20.0000 %
494 11-05-2017 13:00:00 21.22 C 20.0000 %
495 11-05-2017 14:00:00 23.22 C 20.0000 %
496 11-05-2017 15:00:00 26.58 C 20.0000 %
497 11-05-2017 16:00:00 26.68 C 20.0000 %
498 11-05-2017 17:00:00 25.38 C 20.0000 %
499 11-05-2017 18:00:00 22.54 C 20.0000 %
500 11-05-2017 19:00:00 20.9 C 20.0000 %
Sensor: Nr:Datum:Temp:Feuchte:
Aussen-T/F 501 11-05-2017 20:00:00 18.52 C 20.0000 %
502 11-05-2017 21:00:00 16.32 C 20.0000 %
503 11-05-2017 22:00:00 15.28 C 20.0000 %
504 11-05-2017 23:00:00 14.62 C 20.0000 %
505 12-05-2017 00:00:00 13.54 C 26.8000 %
506 12-05-2017 01:00:00 12.8 C 36.2000 %
507 12-05-2017 02:00:00 12.54 C 39.6000 %
508 12-05-2017 03:00:00 12.42 C 41.2000 %
509 12-05-2017 04:00:00 12.34 C 42.6000 %
510 12-05-2017 05:00:00 12.22 C 44.4000 %
511 12-05-2017 06:00:00 12.36 C 49.0000 %
512 12-05-2017 07:00:00 13.04 C 53.6000 %
513 12-05-2017 08:00:00 14.12 C 48.2000 %
514 12-05-2017 09:00:00 15.08 C 39.8000 %
515 12-05-2017 10:00:00 16.14 C 29.0000 %
516 12-05-2017 11:00:00 20.3 C 20.0000 %
517 12-05-2017 12:00:00 18.7 C 20.0000 %
518 12-05-2017 13:00:00 20.54 C 20.0000 %
519 12-05-2017 14:00:00 21.66 C 20.0000 %
520 12-05-2017 15:00:00 25.64 C 20.0000 %
521 12-05-2017 16:00:00 23.8 C 20.0000 %
522 12-05-2017 17:00:00 20.3 C 21.8000 %
523 12-05-2017 18:00:00 18.96 C 20.6000 %
524 12-05-2017 19:00:00 17.44 C 20.0000 %
525 12-05-2017 20:00:00 16.7 C 20.0000 %
Sensor: Nr:Datum:Temp:Feuchte:
Aussen-T/F 526 12-05-2017 21:00:00 15.5 C 24.0000 %
527 12-05-2017 22:00:00 13.7 C 30.0000 %
528 12-05-2017 23:00:00 13.64 C 31.2000 %
529 13-05-2017 00:00:00 13.22 C 36.0000 %
530 13-05-2017 01:00:00 12.8 C 37.6000 %
531 13-05-2017 02:00:00 12.26 C 38.4000 %
532 13-05-2017 03:00:00 10.62 C 41.0000 %
533 13-05-2017 04:00:00 10.44 C 44.4000 %
534 13-05-2017 05:00:00 10.84 C 47.6000 %
535 13-05-2017 06:00:00 11.26 C 50.6000 %
536 13-05-2017 07:00:00 12.38 C 48.6000 %
537 13-05-2017 08:00:00 13.52 C 36.0000 %
538 13-05-2017 09:00:00 15.16 C 24.2000 %
539 13-05-2017 10:00:00 17.44 C 20.0000 %
540 13-05-2017 11:00:00 20.66 C 20.0000 %
541 13-05-2017 12:00:00 20.94 C 20.0000 %
542 13-05-2017 13:00:00 21.92 C 20.0000 %
543 13-05-2017 14:00:00 23.56 C 20.0000 %
544 13-05-2017 15:00:00 24.86 C 20.0000 %
545 13-05-2017 16:00:00 27.4 C 20.0000 %
546 13-05-2017 17:00:00 30.2 C 20.0000 %
547 13-05-2017 18:00:00 29.58 C 20.0000 %
548 13-05-2017 19:00:00 23.5 C 20.0000 %
549 13-05-2017 20:00:00 19.7 C 20.0000 %
550 13-05-2017 21:00:00 17.98 C 20.0000 %
Sensor: Nr:Datum:Temp:Feuchte:
Aussen-T/F 551 13-05-2017 22:00:00 17.12 C 20.0000 %
552 13-05-2017 23:00:00 16.06 C 20.0000 %
553 14-05-2017 00:00:00 14.44 C 20.0000 %
554 14-05-2017 01:00:00 14.02 C 20.0000 %
555 14-05-2017 02:00:00 13.42 C 24.8000 %
556 14-05-2017 03:00:00 13.16 C 28.6000 %
557 14-05-2017 04:00:00 12.62 C 30.4000 %
558 14-05-2017 05:00:00 12.88 C 28.0000 %
559 14-05-2017 06:00:00 12.08 C 28.2000 %
560 14-05-2017 07:00:00 11.7 C 35.0000 %
561 14-05-2017 08:00:00 12.5 C 37.8000 %
562 14-05-2017 09:00:00 16.02 C 25.2000 %
563 14-05-2017 10:00:00 20.62 C 20.0000 %
564 14-05-2017 11:00:00 21.34 C 20.0000 %
565 14-05-2017 12:00:00 20.38 C 20.0000 %
566 14-05-2017 13:00:00 19.1 C 20.0000 %
567 14-05-2017 14:00:00 21.86 C 20.0000 %
568 14-05-2017 15:00:00 25.48 C 20.0000 %
569 14-05-2017 16:00:00 23.28 C 20.0000 %
570 14-05-2017 17:00:00 20.4 C 20.0000 %
571 14-05-2017 18:00:00 17.82 C 20.0000 %
572 14-05-2017 19:00:00 19.16 C 20.0000 %
573 14-05-2017 20:00:00 17.9 C 20.0000 %
574 14-05-2017 21:00:00 14.02 C 24.0000 %
575 14-05-2017 22:00:00 12.58 C 35.6000 %
Sensor: Nr:Datum:Temp:Feuchte:
Aussen-T/F 576 14-05-2017 23:00:00 11.02 C 40.8000 %
577 15-05-2017 00:00:00 10.56 C 43.4000 %
578 15-05-2017 01:00:00 10.34 C 45.0000 %
579 15-05-2017 02:00:00 9.66 C 47.8000 %
580 15-05-2017 03:00:00 9.2 C 52.4000 %
581 15-05-2017 04:00:00 8.84 C 55.6000 %
582 15-05-2017 05:00:00 8.5 C 57.6000 %
583 15-05-2017 06:00:00 8.22 C 58.0000 %
584 15-05-2017 07:00:00 9.02 C 60.2000 %
585 15-05-2017 08:00:00 10.96 C 58.0000 %
586 15-05-2017 09:00:00 13.82 C 50.8000 %
587 15-05-2017 10:00:00 16.9 C 26.2000 %
588 15-05-2017 11:00:00 19.48 C 20.0000 %
589 15-05-2017 12:00:00 18.14 C 20.0000 %
590 15-05-2017 13:00:00 19.02 C 20.0000 %
591 15-05-2017 14:00:00 20.86 C 20.0000 %
592 15-05-2017 15:00:00 25.54 C 20.0000 %
593 15-05-2017 16:00:00 26.86 C 20.0000 %
594 15-05-2017 17:00:00 31.06 C 20.0000 %
595 15-05-2017 18:00:00 36.78 C 20.0000 %
596 15-05-2017 19:00:00 27.7 C 20.0000 %
597 15-05-2017 20:00:00 19 C 20.0000 %
598 15-05-2017 21:00:00 14.84 C 20.0000 %
599 15-05-2017 22:00:00 12.98 C 20.0000 %
600 15-05-2017 23:00:00 11.32 C 20.0000 %
Sensor: Nr:Datum:Temp:Feuchte:
Aussen-T/F 601 16-05-2017 00:00:00 11.78 C 20.0000 %
602 16-05-2017 01:00:00 12.64 C 20.0000 %
603 16-05-2017 02:00:00 12.66 C 20.0000 %
604 16-05-2017 03:00:00 12.32 C 20.0000 %
605 16-05-2017 04:00:00 11.98 C 20.0000 %
606 16-05-2017 05:00:00 11.46 C 20.0000 %
607 16-05-2017 06:00:00 10.46 C 20.0000 %
608 16-05-2017 07:00:00 12.38 C 20.0000 %
609 16-05-2017 08:00:00 15.1 C 20.0000 %
610 16-05-2017 09:00:00 16.28 C 20.0000 %
611 16-05-2017 10:00:00 22.1 C 20.0000 %
612 16-05-2017 11:00:00 25.3 C 20.0000 %
613 16-05-2017 12:00:00 25.2 C 20.0000 %
614 16-05-2017 13:00:00 23.62 C 20.0000 %
615 16-05-2017 14:00:00 26.6 C 20.0000 %
616 16-05-2017 15:00:00 30.32 C 20.0000 %
617 16-05-2017 16:00:00 31.5 C 20.0000 %
618 16-05-2017 17:00:00 35.18 C 20.0000 %
619 16-05-2017 18:00:00 40.6 C 20.0000 %
620 16-05-2017 19:00:00 31.36 C 20.0000 %
621 16-05-2017 20:00:00 22.16 C 20.0000 %
622 16-05-2017 21:00:00 18.66 C 20.0000 %
623 16-05-2017 22:00:00 17.56 C 20.0000 %
624 16-05-2017 23:00:00 16.74 C 20.0000 %
625 17-05-2017 00:00:00 15.6 C 20.0000 %
Sensor: Nr:Datum:Temp:Feuchte:
Aussen-T/F 626 17-05-2017 01:00:00 14.18 C 20.0000 %
627 17-05-2017 02:00:00 12.96 C 20.0000 %
628 17-05-2017 03:00:00 12.12 C 20.6000 %
629 17-05-2017 04:00:00 11.9 C 24.8000 %
630 17-05-2017 05:00:00 12.18 C 25.4000 %
631 17-05-2017 06:00:00 12.68 C 26.0000 %
632 17-05-2017 07:00:00 13.88 C 23.4000 %
633 17-05-2017 08:00:00 15.22 C 20.0000 %
634 17-05-2017 09:00:00 15.58 C 20.0000 %
635 17-05-2017 10:00:00 20.58 C 20.0000 %
636 17-05-2017 11:00:00 24.14 C 20.0000 %
637 17-05-2017 12:00:00 24.14 C 20.0000 %
638 17-05-2017 13:00:00 24.96 C 20.0000 %
639 17-05-2017 14:00:00 27.84 C 20.0000 %
640 17-05-2017 15:00:00 31.94 C 20.0000 %
641 17-05-2017 16:00:00 33.2 C 20.0000 %
642 17-05-2017 17:00:00 36.48 C 20.0000 %
643 17-05-2017 18:00:00 40.76 C 20.0000 %
644 17-05-2017 19:00:00 31.58 C 20.0000 %
645 17-05-2017 20:00:00 23.16 C 20.0000 %
646 17-05-2017 21:00:00 20.04 C 20.0000 %
647 17-05-2017 22:00:00 18.76 C 20.0000 %
648 17-05-2017 23:00:00 18.04 C 20.0000 %
649 18-05-2017 00:00:00 17.64 C 20.0000 %
650 18-05-2017 01:00:00 16.2 C 20.0000 %
Sensor: Nr:Datum:Temp:Feuchte:
Aussen-T/F 651 18-05-2017 02:00:00 14.96 C 20.2000 %
652 18-05-2017 03:00:00 14.12 C 25.0000 %
653 18-05-2017 04:00:00 13.44 C 29.4000 %
654 18-05-2017 05:00:00 13.1 C 32.0000 %
655 18-05-2017 06:00:00 13.3 C 32.0000 %
656 18-05-2017 07:00:00 15.22 C 28.4000 %
657 18-05-2017 08:00:00 18.66 C 20.0000 %
658 18-05-2017 09:00:00 21.9 C 20.0000 %
659 18-05-2017 10:00:00 23.38 C 20.0000 %
660 18-05-2017 11:00:00 21.38 C 20.0000 %
661 18-05-2017 12:00:00 22.52 C 20.0000 %
662 18-05-2017 13:00:00 23.42 C 20.0000 %
663 18-05-2017 14:00:00 21.82 C 20.0000 %
664 18-05-2017 15:00:00 24.62 C 20.0000 %
665 18-05-2017 16:00:00 19.52 C 24.0000 %
666 18-05-2017 17:00:00 18.5 C 32.0000 %
667 18-05-2017 18:00:00 17.96 C 34.2000 %
668 18-05-2017 19:00:00 19.14 C 32.0000 %
669 18-05-2017 20:00:00 17.46 C 32.6000 %
670 18-05-2017 21:00:00 15.56 C 37.2000 %
671 18-05-2017 22:00:00 14.68 C 41.2000 %
672 18-05-2017 23:00:00 14.2 C 42.0000 %
673 19-05-2017 00:00:00 13.52 C 47.4000 %
674 19-05-2017 01:00:00 14.04 C 56.6000 %
675 19-05-2017 02:00:00 14.74 C 60.8000 %
Sensor: Nr:Datum:Temp:Feuchte:
Aussen-T/F 676 19-05-2017 03:00:00 14.96 C 61.6000 %
677 19-05-2017 04:00:00 14.66 C 61.2000 %
678 19-05-2017 05:00:00 14.62 C 62.0000 %
679 19-05-2017 06:00:00 14.74 C 62.4000 %
680 19-05-2017 07:00:00 15.06 C 61.8000 %
681 19-05-2017 08:00:00 14.14 C 57.0000 %
682 19-05-2017 09:00:00 13.8 C 47.0000 %
683 19-05-2017 10:00:00 13.4 C 40.0000 %
684 19-05-2017 11:00:00 13.06 C 37.8000 %
685 19-05-2017 12:00:00 13.24 C 35.6000 %
686 19-05-2017 13:00:00 13.26 C 32.2000 %
687 19-05-2017 14:00:00 12.62 C 35.0000 %
688 19-05-2017 15:00:00 12.54 C 36.0000 %
689 19-05-2017 16:00:00 12.6 C 34.0000 %
690 19-05-2017 17:00:00 12.14 C 35.4000 %
691 19-05-2017 18:00:00 12.42 C 36.0000 %
692 19-05-2017 19:00:00 12.34 C 37.2000 %
693 19-05-2017 20:00:00 11.72 C 39.8000 %
694 19-05-2017 21:00:00 11.18 C 43.8000 %
695 19-05-2017 22:00:00 10.98 C 48.2000 %
696 19-05-2017 23:00:00 10.46 C 49.2000 %
697 20-05-2017 00:00:00 10.2 C 49.0000 %
698 20-05-2017 01:00:00 10.2 C 49.0000 %
699 20-05-2017 02:00:00 9.4 C 53.0000 %
700 20-05-2017 03:00:00 8.2 C 59.0000 %
Sensor: Nr:Datum:Temp:Feuchte:
Aussen-T/F 701 20-05-2017 04:00:00 8.04 C 59.8000 %
702 20-05-2017 05:00:00 7.02 C 62.0000 %
703 20-05-2017 06:00:00 6.7 C 60.6000 %
704 20-05-2017 07:00:00 6.78 C 60.4000 %
705 20-05-2017 08:00:00 7.56 C 62.8000 %
706 20-05-2017 09:00:00 9.98 C 63.2000 %
707 20-05-2017 10:00:00 11.84 C 38.0000 %
708 20-05-2017 11:00:00 15.2 C 20.0000 %
709 20-05-2017 12:00:00 15.5 C 20.0000 %
710 20-05-2017 13:00:00 17.5 C 20.0000 %
711 20-05-2017 14:00:00 19.46 C 20.0000 %
712 20-05-2017 15:00:00 20.82 C 20.0000 %
713 20-05-2017 16:00:00 19.7 C 20.0000 %
714 20-05-2017 17:00:00 18.6 C 20.0000 %
715 20-05-2017 18:00:00 20.84 C 20.0000 %
716 20-05-2017 19:00:00 16.86 C 20.0000 %
717 20-05-2017 20:00:00 13.56 C 20.0000 %
718 20-05-2017 21:00:00 11.16 C 21.2000 %
719 20-05-2017 22:00:00 9.8 C 27.2000 %
720 20-05-2017 23:00:00 8.8 C 32.6000 %
721 21-05-2017 00:00:00 7.88 C 36.8000 %
722 21-05-2017 01:00:00 7.1 C 39.6000 %
723 21-05-2017 02:00:00 6.68 C 41.6000 %
724 21-05-2017 03:00:00 6.16 C 42.8000 %
725 21-05-2017 04:00:00 6.1 C 43.0000 %
Sensor: Nr:Datum:Temp:Feuchte:
Aussen-T/F 726 21-05-2017 05:00:00 6.1 C 43.0000 %
727 21-05-2017 06:00:00 6.1 C 43.0000 %
728 21-05-2017 07:00:00 6.1 C 43.0000 %
729 21-05-2017 08:00:00 6.92 C 43.0000 %
730 21-05-2017 09:00:00 9.7 C 38.0000 %
731 21-05-2017 10:00:00 13.92 C 27.2000 %
732 21-05-2017 11:00:00 17.86 C 20.0000 %
733 21-05-2017 12:00:00 18.3 C 20.0000 %
734 21-05-2017 13:00:00 20.84 C 20.0000 %
735 21-05-2017 14:00:00 20.6 C 20.0000 %
736 21-05-2017 15:00:00 24.58 C 20.0000 %
737 21-05-2017 16:00:00 24.62 C 20.0000 %
738 21-05-2017 17:00:00 29.34 C 20.0000 %
739 21-05-2017 18:00:00 29.66 C 20.0000 %
740 21-05-2017 19:00:00 25.54 C 20.0000 %
741 21-05-2017 20:00:00 18.12 C 20.0000 %
742 21-05-2017 21:00:00 14.78 C 20.0000 %
743 21-05-2017 22:00:00 12.98 C 20.0000 %
744 21-05-2017 23:00:00 11.6 C 21.6000 %
745 22-05-2017 00:00:00 10.5 C 27.8000 %
746 22-05-2017 01:00:00 9.46 C 32.4000 %
747 22-05-2017 02:00:00 8.8 C 35.6000 %
748 22-05-2017 03:00:00 8.36 C 38.8000 %
749 22-05-2017 04:00:00 7.7 C 40.8000 %
750 22-05-2017 05:00:00 7.32 C 42.0000 %
Sensor: Nr:Datum:Temp:Feuchte:
Aussen-T/F 751 22-05-2017 06:00:00 7.32 C 43.6000 %
752 22-05-2017 07:00:00 8.02 C 44.2000 %
753 22-05-2017 08:00:00 9.38 C 44.8000 %
754 22-05-2017 09:00:00 12.32 C 38.2000 %
755 22-05-2017 10:00:00 17.3 C 20.6000 %
756 22-05-2017 11:00:00 20.52 C 20.0000 %
757 22-05-2017 12:00:00 21.82 C 20.0000 %
758 22-05-2017 13:00:00 23.62 C 20.0000 %
759 22-05-2017 14:00:00 26.66 C 20.0000 %
760 22-05-2017 15:00:00 28.84 C 20.0000 %
761 22-05-2017 16:00:00 28.44 C 20.0000 %
762 22-05-2017 17:00:00 33.08 C 20.0000 %
763 22-05-2017 18:00:00 33.82 C 20.0000 %
764 22-05-2017 19:00:00 26.64 C 20.0000 %
765 22-05-2017 20:00:00 19.8 C 20.0000 %
766 22-05-2017 21:00:00 16.66 C 20.0000 %
767 22-05-2017 22:00:00 15.58 C 20.0000 %
768 22-05-2017 23:00:00 14.86 C 20.0000 %
769 23-05-2017 00:00:00 14.1 C 20.0000 %
770 23-05-2017 01:00:00 13.4 C 21.0000 %
771 23-05-2017 02:00:00 12.92 C 24.4000 %
772 23-05-2017 03:00:00 12 C 28.4000 %
773 23-05-2017 04:00:00 10.94 C 32.2000 %
774 23-05-2017 05:00:00 11.52 C 35.0000 %
775 23-05-2017 06:00:00 12.06 C 34.2000 %
Sensor: Nr:Datum:Temp:Feuchte:
Aussen-T/F 776 23-05-2017 07:00:00 11.8 C 34.6000 %
777 23-05-2017 08:00:00 12.7 C 35.2000 %
778 23-05-2017 09:00:00 16.14 C 24.8000 %
779 23-05-2017 10:00:00 21.26 C 20.0000 %
780 23-05-2017 11:00:00 24.36 C 20.0000 %
781 23-05-2017 12:00:00 25.14 C 20.0000 %
782 23-05-2017 13:00:00 26.4 C 20.0000 %
783 23-05-2017 14:00:00 28.56 C 20.0000 %
784 23-05-2017 15:00:00 29.22 C 20.0000 %
785 23-05-2017 16:00:00 28.56 C 20.0000 %
786 23-05-2017 17:00:00 29.56 C 20.0000 %
787 23-05-2017 18:00:00 30.28 C 20.0000 %
788 23-05-2017 19:00:00 25.76 C 20.0000 %
789 23-05-2017 20:00:00 21.68 C 20.0000 %
790 23-05-2017 21:00:00 19.08 C 20.0000 %
791 23-05-2017 22:00:00 17.54 C 20.0000 %
792 23-05-2017 23:00:00 16.66 C 20.0000 %
793 24-05-2017 00:00:00 14.84 C 20.0000 %
794 24-05-2017 01:00:00 13.48 C 20.0000 %
795 24-05-2017 02:00:00 12.28 C 20.0000 %
796 24-05-2017 03:00:00 11.64 C 20.0000 %
797 24-05-2017 04:00:00 11.06 C 20.0000 %
798 24-05-2017 05:00:00 10.4 C 20.6000 %
799 24-05-2017 06:00:00 10.1 C 25.8000 %
800 24-05-2017 07:00:00 11.52 C 23.2000 %
Sensor: Nr:Datum:Temp:Feuchte:
Aussen-T/F 801 24-05-2017 08:00:00 13.82 C 20.0000 %
802 24-05-2017 09:00:00 16.9 C 20.0000 %
803 24-05-2017 10:00:00 20.46 C 20.0000 %
804 24-05-2017 11:00:00 22.42 C 20.0000 %
805 24-05-2017 12:00:00 22.88 C 20.0000 %
806 24-05-2017 13:00:00 21.32 C 20.0000 %
807 24-05-2017 14:00:00 21.66 C 20.0000 %
808 24-05-2017 15:00:00 22.04 C 20.0000 %
809 24-05-2017 16:00:00 22.48 C 20.0000 %
810 24-05-2017 17:00:00 22.12 C 20.0000 %
811 24-05-2017 18:00:00 23.62 C 20.0000 %
812 24-05-2017 19:00:00 22.24 C 20.0000 %
813 24-05-2017 20:00:00 20.26 C 20.0000 %
814 24-05-2017 21:00:00 17.24 C 20.0000 %
815 24-05-2017 22:00:00 16.96 C 20.0000 %
816 24-05-2017 23:00:00 15.98 C 20.0000 %
817 25-05-2017 00:00:00 15.46 C 20.4000 %
818 25-05-2017 01:00:00 15.72 C 20.0000 %
819 25-05-2017 02:00:00 15.52 C 20.0000 %
820 25-05-2017 03:00:00 14.7 C 23.0000 %
821 25-05-2017 04:00:00 14.3 C 20.6000 %
822 25-05-2017 05:00:00 12.2 C 28.8000 %
823 25-05-2017 06:00:00 11.66 C 34.6000 %
824 25-05-2017 07:00:00 13.28 C 34.4000 %
825 25-05-2017 08:00:00 16.18 C 23.6000 %
Sensor: Nr:Datum:Temp:Feuchte:
Aussen-T/F 826 25-05-2017 09:00:00 17.48 C 20.0000 %
827 25-05-2017 10:00:00 19.84 C 20.0000 %
828 25-05-2017 11:00:00 20.52 C 20.0000 %
829 25-05-2017 12:00:00 20.3 C 20.0000 %
830 25-05-2017 13:00:00 21.2 C 20.0000 %
831 25-05-2017 14:00:00 25.48 C 20.0000 %
832 25-05-2017 15:00:00 27.66 C 20.0000 %
833 25-05-2017 16:00:00 29 C 20.0000 %
834 25-05-2017 17:00:00 32.6 C 20.0000 %
835 25-05-2017 18:00:00 37.62 C 20.0000 %
836 25-05-2017 19:00:00 29.12 C 20.0000 %
837 25-05-2017 20:00:00 23.6 C 20.0000 %
838 25-05-2017 21:00:00 20.54 C 20.0000 %
839 25-05-2017 22:00:00 17.4 C 20.0000 %
840 25-05-2017 23:00:00 15.58 C 20.0000 %
841 26-05-2017 00:00:00 14.1 C 20.0000 %
842 26-05-2017 01:00:00 12.98 C 22.0000 %
843 26-05-2017 02:00:00 11.94 C 27.0000 %
844 26-05-2017 03:00:00 11.28 C 30.4000 %
845 26-05-2017 04:00:00 10.8 C 33.6000 %
846 26-05-2017 05:00:00 10.4 C 36.2000 %
847 26-05-2017 06:00:00 10.3 C 38.2000 %
848 26-05-2017 07:00:00 10.94 C 39.2000 %
849 26-05-2017 08:00:00 12.38 C 38.2000 %
850 26-05-2017 09:00:00 16.16 C 23.8000 %
Sensor: Nr:Datum:Temp:Feuchte:
Aussen-T/F 851 26-05-2017 10:00:00 16.6 C 20.0000 %
852 26-05-2017 11:00:00 18.88 C 20.0000 %
853 26-05-2017 12:00:00 22.16 C 20.0000 %
854 26-05-2017 13:00:00 23.24 C 20.0000 %
855 26-05-2017 14:00:00 27.78 C 20.0000 %
856 26-05-2017 15:00:00 28.04 C 20.0000 %
857 26-05-2017 16:00:00 30.36 C 20.0000 %
858 26-05-2017 17:00:00 34.4 C 20.0000 %
859 26-05-2017 18:00:00 37.54 C 20.0000 %
860 26-05-2017 19:00:00 33.6 C 20.0000 %
861 26-05-2017 20:00:00 24.84 C 20.0000 %
862 26-05-2017 21:00:00 20.32 C 20.0000 %
863 26-05-2017 22:00:00 18.28 C 20.0000 %
864 26-05-2017 23:00:00 16.4 C 20.0000 %
865 27-05-2017 00:00:00 15.16 C 20.4000 %
866 27-05-2017 01:00:00 14.06 C 25.2000 %
867 27-05-2017 02:00:00 13.38 C 29.0000 %
868 27-05-2017 03:00:00 12.66 C 31.6000 %
869 27-05-2017 04:00:00 12.18 C 34.4000 %
870 27-05-2017 05:00:00 11.62 C 36.0000 %
871 27-05-2017 06:00:00 11.64 C 38.0000 %
872 27-05-2017 07:00:00 12.22 C 38.4000 %
873 27-05-2017 08:00:00 13.66 C 36.6000 %
874 27-05-2017 09:00:00 16.88 C 27.2000 %
875 27-05-2017 10:00:00 21.8 C 20.0000 %
Sensor: Nr:Datum:Temp:Feuchte:
Aussen-T/F 876 27-05-2017 11:00:00 25.56 C 20.0000 %
877 27-05-2017 12:00:00 25.4 C 20.0000 %
878 27-05-2017 13:00:00 26.54 C 20.0000 %
879 27-05-2017 14:00:00 31.18 C 20.0000 %
880 27-05-2017 15:00:00 34.56 C 20.0000 %
881 27-05-2017 16:00:00 34.28 C 20.0000 %
882 27-05-2017 17:00:00 38.54 C 20.0000 %
883 27-05-2017 18:00:00 44.46 C 20.0000 %
884 27-05-2017 19:00:00 39.64 C 20.0000 %
885 27-05-2017 20:00:00 25.84 C 20.0000 %
886 27-05-2017 21:00:00 22 C 20.0000 %
887 27-05-2017 22:00:00 20.2 C 20.0000 %
888 27-05-2017 23:00:00 19.12 C 20.0000 %
889 28-05-2017 00:00:00 18.08 C 20.0000 %
890 28-05-2017 01:00:00 16.84 C 20.0000 %
891 28-05-2017 02:00:00 15.98 C 20.2000 %
892 28-05-2017 03:00:00 15.06 C 23.8000 %
893 28-05-2017 04:00:00 14.68 C 25.8000 %
894 28-05-2017 05:00:00 14.24 C 28.2000 %
895 28-05-2017 06:00:00 14.76 C 28.8000 %
896 28-05-2017 07:00:00 16.04 C 27.2000 %
897 28-05-2017 08:00:00 17.74 C 23.6000 %
898 28-05-2017 09:00:00 20.74 C 20.0000 %
899 28-05-2017 10:00:00 24.54 C 20.0000 %
900 28-05-2017 11:00:00 27.16 C 20.0000 %
Sensor: Nr:Datum:Temp:Feuchte:
Aussen-T/F 901 28-05-2017 12:00:00 29.24 C 20.0000 %
902 28-05-2017 13:00:00 31.08 C 20.0000 %
903 28-05-2017 14:00:00 32.58 C 20.0000 %
904 28-05-2017 15:00:00 36.44 C 20.0000 %
905 28-05-2017 16:00:00 29.58 C 20.0000 %
906 28-05-2017 17:00:00 24.84 C 20.0000 %
907 28-05-2017 18:00:00 23.72 C 20.0000 %
908 28-05-2017 19:00:00 23.02 C 21.2000 %
909 28-05-2017 20:00:00 20.6 C 35.0000 %
910 28-05-2017 21:00:00 19.82 C 38.0000 %
911 28-05-2017 22:00:00 18.78 C 40.4000 %
912 28-05-2017 23:00:00 18.02 C 43.6000 %
913 29-05-2017 00:00:00 17.48 C 45.2000 %
914 29-05-2017 01:00:00 16.84 C 49.0000 %
915 29-05-2017 02:00:00 16.24 C 53.4000 %
916 29-05-2017 03:00:00 15.86 C 57.0000 %
917 29-05-2017 04:00:00 16.56 C 61.4000 %
918 29-05-2017 05:00:00 16.76 C 61.0000 %
919 29-05-2017 06:00:00 17.06 C 59.8000 %
920 29-05-2017 07:00:00 17.16 C 54.8000 %
921 29-05-2017 08:00:00 17.68 C 54.8000 %
922 29-05-2017 09:00:00 19.78 C 47.4000 %
923 29-05-2017 10:00:00 23.12 C 23.0000 %
924 29-05-2017 11:00:00 25.48 C 20.0000 %
925 29-05-2017 12:00:00 26.38 C 20.0000 %
Sensor: Nr:Datum:Temp:Feuchte:
Aussen-T/F 926 29-05-2017 13:00:00 27.88 C 20.0000 %
927 29-05-2017 14:00:00 32.4 C 20.0000 %
928 29-05-2017 15:00:00 36.3 C 20.0000 %
929 29-05-2017 16:00:00 36.58 C 20.0000 %
930 29-05-2017 17:00:00 39.98 C 20.0000 %
931 29-05-2017 18:00:00 43.04 C 20.0000 %
932 29-05-2017 19:00:00 34.64 C 20.0000 %
933 29-05-2017 20:00:00 26.36 C 20.0000 %
934 29-05-2017 21:00:00 23.7 C 20.0000 %
935 29-05-2017 22:00:00 21.86 C 20.0000 %
936 29-05-2017 23:00:00 20.74 C 20.0000 %
937 30-05-2017 00:00:00 19.52 C 20.0000 %
938 30-05-2017 01:00:00 18.6 C 20.0000 %
939 30-05-2017 02:00:00 18.58 C 20.0000 %
940 30-05-2017 03:00:00 18.06 C 23.0000 %
941 30-05-2017 04:00:00 18.28 C 24.2000 %
942 30-05-2017 05:00:00 18.28 C 23.2000 %
943 30-05-2017 06:00:00 17.86 C 26.2000 %
944 30-05-2017 07:00:00 18.82 C 27.8000 %
945 30-05-2017 08:00:00 20.66 C 20.8000 %
946 30-05-2017 09:00:00 22.78 C 20.0000 %
947 30-05-2017 10:00:00 25.82 C 20.0000 %
948 30-05-2017 11:00:00 26.52 C 20.0000 %
949 30-05-2017 12:00:00 28.02 C 20.0000 %
950 30-05-2017 13:00:00 29.2 C 20.0000 %
Sensor: Nr:Datum:Temp:Feuchte:
Aussen-T/F 951 30-05-2017 14:00:00 29.52 C 20.0000 %
952 30-05-2017 15:00:00 27.06 C 20.0000 %
953 30-05-2017 16:00:00 25.88 C 20.0000 %
954 30-05-2017 17:00:00 25.64 C 20.0000 %
955 30-05-2017 18:00:00 27.68 C 20.0000 %
956 30-05-2017 19:00:00 27.14 C 20.0000 %
957 30-05-2017 20:00:00 23.74 C 20.0000 %
958 30-05-2017 21:00:00 22.9 C 20.0000 %
959 30-05-2017 22:00:00 20.98 C 20.0000 %
960 30-05-2017 23:00:00 19.22 C 20.0000 %
961 31-05-2017 00:00:00 17.92 C 20.0000 %
962 31-05-2017 01:00:00 17.58 C 20.0000 %
963 31-05-2017 02:00:00 15.78 C 20.0000 %
964 31-05-2017 03:00:00 14.02 C 20.0000 %
965 31-05-2017 04:00:00 12.68 C 21.0000 %
966 31-05-2017 05:00:00 12.14 C 25.2000 %
967 31-05-2017 06:00:00 12.2 C 28.8000 %
968 31-05-2017 07:00:00 13.12 C 26.4000 %
969 31-05-2017 08:00:00 14.7 C 23.4000 %
970 31-05-2017 09:00:00 18.32 C 20.0000 %
971 31-05-2017 10:00:00 20.86 C 20.0000 %
972 31-05-2017 11:00:00 23.14 C 20.0000 %
973 31-05-2017 12:00:00 23.52 C 20.0000 %
974 31-05-2017 13:00:00 24.16 C 20.0000 %
975 31-05-2017 14:00:00 27 C 20.0000 %
Sensor: Nr:Datum:Temp:Feuchte:
Aussen-T/F 976 31-05-2017 15:00:00 28.78 C 20.0000 %
977 31-05-2017 16:00:00 28.96 C 20.0000 %
978 31-05-2017 17:00:00 28.74 C 20.0000 %
979 31-05-2017 18:00:00 30.24 C 20.0000 %
980 31-05-2017 19:00:00 26.46 C 20.0000 %
981 31-05-2017 20:00:00 23.14 C 20.0000 %
982 31-05-2017 21:00:00 18.6 C 20.0000 %
983 31-05-2017 22:00:00 16.74 C 20.0000 %
984 31-05-2017 23:00:00 15.02 C 20.0000 %
985 01-06-2017 00:00:00 14.2 C 20.0000 %
986 01-06-2017 01:00:00 13.3 C 23.4000 %
987 01-06-2017 02:00:00 12.8 C 27.8000 %
988 01-06-2017 03:00:00 12.3 C 30.2000 %
989 01-06-2017 04:00:00 11.88 C 32.2000 %
990 01-06-2017 05:00:00 11.6 C 34.8000 %
991 01-06-2017 06:00:00 11.72 C 35.4000 %
992 01-06-2017 07:00:00 12.88 C 34.2000 %
993 01-06-2017 08:00:00 14.38 C 28.8000 %
994 01-06-2017 09:00:00 18.22 C 20.8000 %
995 01-06-2017 10:00:00 21.64 C 20.0000 %
996 01-06-2017 11:00:00 23.16 C 20.0000 %
997 01-06-2017 12:00:00 23.48 C 20.0000 %
998 01-06-2017 13:00:00 24.14 C 20.0000 %
999 01-06-2017 14:00:00 28.22 C 20.0000 %
1000 01-06-2017 15:00:00 32.88 C 20.0000 %
Sensor: Nr:Datum:Temp:Feuchte:
Aussen-T/F 1001 01-06-2017 16:00:00 31.9 C 20.0000 %
1002 01-06-2017 17:00:00 34.1 C 20.0000 %
1003 01-06-2017 18:00:00 29.76 C 20.0000 %
1004 01-06-2017 19:00:00 25.2 C 20.0000 %
1005 01-06-2017 20:00:00 22.48 C 20.0000 %
1006 01-06-2017 21:00:00 20.38 C 20.0000 %
1007 01-06-2017 22:00:00 18.5 C 20.0000 %
1008 01-06-2017 23:00:00 16.84 C 20.0000 %
1009 02-06-2017 00:00:00 15.74 C 20.0000 %
1010 02-06-2017 01:00:00 14.94 C 20.6000 %
1011 02-06-2017 02:00:00 14.26 C 24.6000 %
1012 02-06-2017 03:00:00 13.76 C 27.4000 %
1013 02-06-2017 04:00:00 13.94 C 29.6000 %
1014 02-06-2017 05:00:00 15.26 C 25.6000 %
1015 02-06-2017 06:00:00 14.92 C 25.4000 %
1016 02-06-2017 07:00:00 15.48 C 27.6000 %
1017 02-06-2017 08:00:00 18.88 C 20.4000 %
1018 02-06-2017 09:00:00 21.68 C 20.0000 %
1019 02-06-2017 10:00:00 24.12 C 20.0000 %
1020 02-06-2017 11:00:00 25.84 C 20.0000 %
1021 02-06-2017 12:00:00 25.58 C 20.0000 %
1022 02-06-2017 13:00:00 29.18 C 20.0000 %
1023 02-06-2017 14:00:00 23.92 C 20.2000 %
1024 02-06-2017 15:00:00 21.28 C 30.0000 %
1025 02-06-2017 16:00:00 21.76 C 28.6000 %
Sensor: Nr:Datum:Temp:Feuchte:
Aussen-T/F 1026 02-06-2017 17:00:00 21.58 C 27.0000 %
1027 02-06-2017 18:00:00 20.86 C 24.0000 %
1028 02-06-2017 19:00:00 20.24 C 28.0000 %
1029 02-06-2017 20:00:00 19.9 C 28.2000 %
1030 02-06-2017 21:00:00 19.1 C 32.8000 %
1031 02-06-2017 22:00:00 18.34 C 34.6000 %
1032 02-06-2017 23:00:00 16.98 C 37.6000 %
1033 03-06-2017 00:00:00 16.36 C 39.2000 %
1034 03-06-2017 01:00:00 15.88 C 40.2000 %
1035 03-06-2017 02:00:00 15.48 C 41.0000 %
1036 03-06-2017 03:00:00 16 C 46.0000 %
1037 03-06-2017 04:00:00 15.68 C 45.0000 %
1038 03-06-2017 05:00:00 16.14 C 51.4000 %
1039 03-06-2017 06:00:00 16.5 C 52.6000 %
1040 03-06-2017 07:00:00 18.02 C 49.4000 %
1041 03-06-2017 08:00:00 18.74 C 39.8000 %
1042 03-06-2017 09:00:00 19.48 C 32.4000 %
1043 03-06-2017 10:00:00 20.12 C 25.6000 %
1044 03-06-2017 11:00:00 22.16 C 22.4000 %
1045 03-06-2017 12:00:00 24.2 C 20.0000 %
1046 03-06-2017 13:00:00 21.54 C 24.2000 %
1047 03-06-2017 14:00:00 20.44 C 35.0000 %
1048 03-06-2017 15:00:00 25.8 C 21.0000 %
1049 03-06-2017 16:00:00 22.9 C 26.6000 %
1050 03-06-2017 17:00:00 23.02 C 29.0000 %
Sensor: Nr:Datum:Temp:Feuchte:
Aussen-T/F 1051 03-06-2017 18:00:00 23.12 C 26.4000 %
1052 03-06-2017 19:00:00 21.3 C 30.8000 %
1053 03-06-2017 20:00:00 21 C 33.0000 %
1054 03-06-2017 21:00:00 19.2 C 36.6000 %
1055 03-06-2017 22:00:00 17.2 C 43.8000 %
1056 03-06-2017 23:00:00 16.86 C 52.6000 %
1057 04-06-2017 00:00:00 16.64 C 58.8000 %
1058 04-06-2017 01:00:00 16.1 C 58.2000 %
1059 04-06-2017 02:00:00 15.32 C 57.0000 %
1060 04-06-2017 03:00:00 14.24 C 53.0000 %
1061 04-06-2017 04:00:00 14.1 C 55.2000 %
1062 04-06-2017 05:00:00 13.9 C 56.4000 %
1063 04-06-2017 06:00:00 13.72 C 58.6000 %
1064 04-06-2017 07:00:00 14.26 C 58.8000 %
1065 04-06-2017 08:00:00 14.7 C 51.0000 %
1066 04-06-2017 09:00:00 15.32 C 40.0000 %
1067 04-06-2017 10:00:00 16.74 C 27.4000 %
1068 04-06-2017 11:00:00 19.04 C 20.0000 %
1069 04-06-2017 12:00:00 18.94 C 20.0000 %
1070 04-06-2017 13:00:00 19.6 C 20.0000 %
1071 04-06-2017 14:00:00 22.04 C 20.0000 %
1072 04-06-2017 15:00:00 22.28 C 20.0000 %
1073 04-06-2017 16:00:00 24.58 C 20.0000 %
1074 04-06-2017 17:00:00 25.22 C 20.0000 %
1075 04-06-2017 18:00:00 20.74 C 20.0000 %
Sensor: Nr:Datum:Temp:Feuchte:
Aussen-T/F 1076 04-06-2017 19:00:00 17.62 C 20.0000 %
1077 04-06-2017 20:00:00 14.12 C 31.0000 %
1078 04-06-2017 21:00:00 13.48 C 38.8000 %
1079 04-06-2017 22:00:00 12.46 C 42.2000 %
1080 04-06-2017 23:00:00 12.02 C 44.0000 %
1081 05-06-2017 00:00:00 11.32 C 46.2000 %
1082 05-06-2017 01:00:00 11.08 C 50.6000 %
1083 05-06-2017 02:00:00 10.8 C 54.4000 %
1084 05-06-2017 03:00:00 10.48 C 56.8000 %
1085 05-06-2017 04:00:00 10.3 C 58.2000 %
1086 05-06-2017 05:00:00 10.24 C 60.0000 %
1087 05-06-2017 06:00:00 10.26 C 59.6000 %
1088 05-06-2017 07:00:00 11.38 C 61.0000 %
1089 05-06-2017 08:00:00 12.28 C 53.6000 %
1090 05-06-2017 09:00:00 15.12 C 42.2000 %
1091 05-06-2017 10:00:00 18.08 C 24.2000 %
1092 05-06-2017 11:00:00 19.66 C 20.0000 %
1093 05-06-2017 12:00:00 20.14 C 20.0000 %
1094 05-06-2017 13:00:00 19.38 C 20.0000 %
1095 05-06-2017 14:00:00 23.08 C 20.0000 %
1096 05-06-2017 15:00:00 27.22 C 20.0000 %
1097 05-06-2017 16:00:00 26.38 C 20.0000 %
1098 05-06-2017 17:00:00 30.26 C 20.0000 %
1099 05-06-2017 18:00:00 37.02 C 20.0000 %
1100 05-06-2017 19:00:00 29.96 C 20.0000 %
Sensor: Nr:Datum:Temp:Feuchte:
Aussen-T/F 1101 05-06-2017 20:00:00 20.48 C 20.0000 %
1102 05-06-2017 21:00:00 16.88 C 20.0000 %
1103 05-06-2017 22:00:00 15.1 C 20.6000 %
1104 05-06-2017 23:00:00 14.5 C 25.6000 %
1105 06-06-2017 00:00:00 14.26 C 26.2000 %
1106 06-06-2017 01:00:00 13.84 C 26.6000 %
1107 06-06-2017 02:00:00 12.72 C 30.8000 %
1108 06-06-2017 03:00:00 12.44 C 34.4000 %
1109 06-06-2017 04:00:00 12.24 C 35.0000 %
1110 06-06-2017 05:00:00 12.28 C 35.6000 %
1111 06-06-2017 06:00:00 13.06 C 34.6000 %
1112 06-06-2017 07:00:00 15.48 C 23.2000 %
1113 06-06-2017 08:00:00 16.72 C 20.0000 %
1114 06-06-2017 09:00:00 16.96 C 20.0000 %
1115 06-06-2017 10:00:00 18.34 C 20.0000 %
1116 06-06-2017 11:00:00 18.58 C 20.0000 %
1117 06-06-2017 12:00:00 19.08 C 20.0000 %
1118 06-06-2017 13:00:00 19.38 C 20.0000 %
1119 06-06-2017 14:00:00 22.5 C 20.0000 %
1120 06-06-2017 15:00:00 24.16 C 20.0000 %
1121 06-06-2017 16:00:00 20.92 C 20.0000 %
1122 06-06-2017 17:00:00 16.16 C 20.0000 %
1123 06-06-2017 18:00:00 23.38 C 20.0000 %
1124 06-06-2017 19:00:00 19.9 C 20.0000 %
1125 06-06-2017 20:00:00 11.94 C 22.2000 %
Sensor: Nr:Datum:Temp:Feuchte:
Aussen-T/F 1126 06-06-2017 21:00:00 10.26 C 20.6000 %
1127 06-06-2017 22:00:00 10.34 C 20.2000 %
1128 06-06-2017 23:00:00 10.18 C 20.0000 %
1129 07-06-2017 00:00:00 9.78 C 22.2000 %
1130 07-06-2017 01:00:00 10.62 C 21.2000 %
1131 07-06-2017 02:00:00 10.42 C 20.0000 %
1132 07-06-2017 03:00:00 9.84 C 20.0000 %
1133 07-06-2017 04:00:00 10.58 C 20.0000 %
1134 07-06-2017 05:00:00 10.9 C 20.0000 %
1135 07-06-2017 06:00:00 11.18 C 20.0000 %
1136 07-06-2017 07:00:00 11.78 C 20.0000 %
1137 07-06-2017 08:00:00 12.06 C 20.0000 %
1138 07-06-2017 09:00:00 11.4 C 26.0000 %
1139 07-06-2017 10:00:00 12.2 C 23.8000 %
1140 07-06-2017 11:00:00 13.72 C 20.0000 %
1141 07-06-2017 12:00:00 14.94 C 20.0000 %
1142 07-06-2017 13:00:00 16.54 C 20.0000 %
1143 07-06-2017 14:00:00 17.24 C 20.0000 %
1144 07-06-2017 15:00:00 17.94 C 20.0000 %
1145 07-06-2017 16:00:00 19.06 C 20.0000 %
1146 07-06-2017 17:00:00 19.6 C 20.0000 %
1147 07-06-2017 18:00:00 25.06 C 20.0000 %
1148 07-06-2017 19:00:00 22.82 C 20.0000 %
1149 07-06-2017 20:00:00 18.16 C 20.0000 %
1150 07-06-2017 21:00:00 16.14 C 20.0000 %
Sensor: Nr:Datum:Temp:Feuchte:
Aussen-T/F 1151 07-06-2017 22:00:00 13.72 C 20.0000 %
1152 07-06-2017 23:00:00 11.9 C 20.0000 %
1153 08-06-2017 00:00:00 10.94 C 20.6000 %
1154 08-06-2017 01:00:00 10.84 C 20.8000 %
1155 08-06-2017 02:00:00 10.88 C 20.8000 %
1156 08-06-2017 03:00:00 10.76 C 24.2000 %
1157 08-06-2017 04:00:00 11.1 C 24.8000 %
1158 08-06-2017 05:00:00 11.36 C 25.6000 %
1159 08-06-2017 06:00:00 11.78 C 25.0000 %
1160 08-06-2017 07:00:00 12.52 C 28.0000 %
1161 08-06-2017 08:00:00 14.98 C 21.2000 %
1162 08-06-2017 09:00:00 17.02 C 20.0000 %
1163 08-06-2017 10:00:00 19.42 C 20.0000 %
1164 08-06-2017 11:00:00 21.3 C 20.0000 %
1165 08-06-2017 12:00:00 22.16 C 20.0000 %
1166 08-06-2017 13:00:00 22.74 C 20.0000 %
1167 08-06-2017 14:00:00 26.26 C 20.0000 %
1168 08-06-2017 15:00:00 29.74 C 20.0000 %
1169 08-06-2017 16:00:00 28.88 C 20.0000 %
1170 08-06-2017 17:00:00 32.1 C 20.0000 %
1171 08-06-2017 18:00:00 31.42 C 20.0000 %
1172 08-06-2017 19:00:00 30.16 C 20.0000 %
1173 08-06-2017 20:00:00 23.7 C 20.0000 %
1174 08-06-2017 21:00:00 19.02 C 20.0000 %
1175 08-06-2017 22:00:00 16.88 C 20.0000 %
Sensor: Nr:Datum:Temp:Feuchte:
Aussen-T/F 1176 08-06-2017 23:00:00 16.04 C 20.0000 %
1177 09-06-2017 00:00:00 14.72 C 20.2000 %
1178 09-06-2017 01:00:00 13.74 C 23.0000 %
1179 09-06-2017 02:00:00 13.06 C 27.8000 %
1180 09-06-2017 03:00:00 13.16 C 29.8000 %
1181 09-06-2017 04:00:00 12.82 C 29.8000 %
1182 09-06-2017 05:00:00 11.8 C 32.8000 %
1183 09-06-2017 06:00:00 12.78 C 34.8000 %
1184 09-06-2017 07:00:00 14.6 C 29.0000 %
1185 09-06-2017 08:00:00 17.7 C 20.2000 %
1186 09-06-2017 09:00:00 18.96 C 20.0000 %
1187 09-06-2017 10:00:00 19.62 C 20.0000 %
1188 09-06-2017 11:00:00 19.84 C 20.0000 %
1189 09-06-2017 12:00:00 17.38 C 25.0000 %
1190 09-06-2017 13:00:00 19.28 C 20.6000 %
1191 09-06-2017 14:00:00 24.54 C 20.0000 %
1192 09-06-2017 15:00:00 23.38 C 20.0000 %
1193 09-06-2017 16:00:00 22.5 C 20.0000 %
1194 09-06-2017 17:00:00 21.2 C 23.0000 %
1195 09-06-2017 18:00:00 32.38 C 20.0000 %
1196 09-06-2017 19:00:00 27.88 C 20.0000 %
1197 09-06-2017 20:00:00 19.82 C 20.0000 %
1198 09-06-2017 21:00:00 16.26 C 20.0000 %
1199 09-06-2017 22:00:00 14.22 C 20.2000 %
1200 09-06-2017 23:00:00 12.58 C 28.4000 %
Sensor: Nr:Datum:Temp:Feuchte:
Aussen-T/F 1201 10-06-2017 00:00:00 11.8 C 31.6000 %
1202 10-06-2017 01:00:00 11.4 C 30.8000 %
1203 10-06-2017 02:00:00 10.62 C 32.4000 %
1204 10-06-2017 03:00:00 10.04 C 34.0000 %
1205 10-06-2017 04:00:00 9.52 C 35.8000 %
1206 10-06-2017 05:00:00 9.22 C 36.8000 %
1207 10-06-2017 06:00:00 9.46 C 36.6000 %
1208 10-06-2017 07:00:00 9.7 C 37.0000 %
1209 10-06-2017 08:00:00 11.3 C 36.2000 %
1210 10-06-2017 09:00:00 16.08 C 21.8000 %
1211 10-06-2017 10:00:00 21.68 C 20.0000 %
1212 10-06-2017 11:00:00 22.64 C 20.0000 %
1213 10-06-2017 12:00:00 22.92 C 20.0000 %
1214 10-06-2017 13:00:00 23.7 C 20.0000 %
1215 10-06-2017 14:00:00 28.4 C 20.0000 %
1216 10-06-2017 15:00:00 29.48 C 20.0000 %
1217 10-06-2017 16:00:00 29.12 C 20.0000 %
1218 10-06-2017 17:00:00 32.62 C 20.0000 %
1219 10-06-2017 18:00:00 37.98 C 20.0000 %
1220 10-06-2017 19:00:00 32.24 C 20.0000 %
1221 10-06-2017 20:00:00 23.38 C 20.0000 %
1222 10-06-2017 21:00:00 19.76 C 20.0000 %
1223 10-06-2017 22:00:00 17.6 C 20.0000 %
1224 10-06-2017 23:00:00 15.9 C 20.0000 %
1225 11-06-2017 00:00:00 14.76 C 20.0000 %
Sensor: Nr:Datum:Temp:Feuchte:
Aussen-T/F 1226 11-06-2017 01:00:00 13.86 C 22.0000 %
1227 11-06-2017 02:00:00 13.18 C 27.0000 %
1228 11-06-2017 03:00:00 12.6 C 30.8000 %
1229 11-06-2017 04:00:00 12.14 C 32.6000 %
1230 11-06-2017 05:00:00 11.68 C 35.4000 %
1231 11-06-2017 06:00:00 11.96 C 36.0000 %
1232 11-06-2017 07:00:00 13.78 C 34.0000 %
1233 11-06-2017 08:00:00 15.92 C 28.0000 %
1234 11-06-2017 09:00:00 23.16 C 20.0000 %
1235 11-06-2017 10:00:00 23.78 C 20.0000 %
1236 11-06-2017 11:00:00 25.32 C 20.0000 %
1237 11-06-2017 12:00:00 25.56 C 20.0000 %
1238 11-06-2017 13:00:00 26.64 C 20.0000 %
1239 11-06-2017 14:00:00 31.28 C 20.0000 %
1240 11-06-2017 15:00:00 36.22 C 20.0000 %
1241 11-06-2017 16:00:00 30.26 C 20.0000 %
1242 11-06-2017 17:00:00 30.56 C 20.0000 %
1243 11-06-2017 18:00:00 30.66 C 20.0000 %
1244 11-06-2017 19:00:00 26.08 C 20.0000 %
1245 11-06-2017 20:00:00 24.6 C 20.0000 %
1246 11-06-2017 21:00:00 22.5 C 20.0000 %
1247 11-06-2017 22:00:00 20.36 C 20.0000 %
1248 11-06-2017 23:00:00 20.94 C 20.0000 %
1249 12-06-2017 00:00:00 19.68 C 20.0000 %
1250 12-06-2017 01:00:00 20.16 C 20.0000 %
Sensor: Nr:Datum:Temp:Feuchte:
Aussen-T/F 1251 12-06-2017 02:00:00 20.88 C 20.0000 %
1252 12-06-2017 03:00:00 19.48 C 20.0000 %
1253 12-06-2017 04:00:00 18.4 C 20.8000 %
1254 12-06-2017 05:00:00 18.18 C 22.4000 %
1255 12-06-2017 06:00:00 18.68 C 20.0000 %
1256 12-06-2017 07:00:00 18.66 C 20.0000 %
1257 12-06-2017 08:00:00 20.7 C 20.0000 %
1258 12-06-2017 09:00:00 25.02 C 20.0000 %
1259 12-06-2017 10:00:00 24.12 C 20.0000 %
1260 12-06-2017 11:00:00 22.68 C 20.0000 %
1261 12-06-2017 12:00:00 22.38 C 20.0000 %
1262 12-06-2017 13:00:00 23.12 C 20.0000 %
1263 12-06-2017 14:00:00 26.56 C 20.0000 %
1264 12-06-2017 15:00:00 29.8 C 20.0000 %
1265 12-06-2017 16:00:00 27.98 C 20.0000 %
1266 12-06-2017 17:00:00 27.84 C 20.0000 %
1267 12-06-2017 18:00:00 31.28 C 20.0000 %
1268 12-06-2017 19:00:00 26.72 C 20.0000 %
1269 12-06-2017 20:00:00 21.06 C 20.0000 %
1270 12-06-2017 21:00:00 18.1 C 20.0000 %
1271 12-06-2017 22:00:00 15.68 C 20.0000 %
1272 12-06-2017 23:00:00 14.86 C 20.0000 %
1273 13-06-2017 00:00:00 14.22 C 20.0000 %
1274 13-06-2017 01:00:00 15.58 C 20.0000 %
1275 13-06-2017 02:00:00 15.44 C 20.0000 %
Sensor: Nr:Datum:Temp:Feuchte:
Aussen-T/F 1276 13-06-2017 03:00:00 14.56 C 20.0000 %
1277 13-06-2017 04:00:00 13.74 C 20.0000 %
1278 13-06-2017 05:00:00 11.62 C 21.2000 %
1279 13-06-2017 06:00:00 11.5 C 25.0000 %
1280 13-06-2017 07:00:00 12.54 C 20.2000 %
1281 13-06-2017 08:00:00 15.22 C 20.0000 %
1282 13-06-2017 09:00:00 22.58 C 20.0000 %
1283 13-06-2017 10:00:00 23.4 C 20.0000 %
1284 13-06-2017 11:00:00 21.7 C 20.0000 %
1285 13-06-2017 12:00:00 22.44 C 20.0000 %
1286 13-06-2017 13:00:00 23.64 C 20.0000 %
1287 13-06-2017 14:00:00 24.3 C 20.0000 %
1288 13-06-2017 15:00:00 25.6 C 20.0000 %
1289 13-06-2017 16:00:00 27.22 C 20.0000 %
1290 13-06-2017 17:00:00 28.78 C 20.0000 %
1291 13-06-2017 18:00:00 33.98 C 20.0000 %
1292 13-06-2017 19:00:00 26.68 C 20.0000 %
1293 13-06-2017 20:00:00 21.84 C 20.0000 %
1294 13-06-2017 21:00:00 18.98 C 20.0000 %
1295 13-06-2017 22:00:00 15.76 C 20.0000 %
1296 13-06-2017 23:00:00 14.32 C 20.0000 %
1297 14-06-2017 00:00:00 13.22 C 20.4000 %
1298 14-06-2017 01:00:00 12.38 C 25.4000 %
1299 14-06-2017 02:00:00 11.78 C 28.6000 %
1300 14-06-2017 03:00:00 11.16 C 31.6000 %
Sensor: Nr:Datum:Temp:Feuchte:
Aussen-T/F 1301 14-06-2017 04:00:00 10.68 C 35.2000 %
1302 14-06-2017 05:00:00 10.44 C 36.4000 %
1303 14-06-2017 06:00:00 10.88 C 36.4000 %
1304 14-06-2017 07:00:00 11.7 C 35.6000 %
1305 14-06-2017 08:00:00 14.02 C 31.0000 %
1306 14-06-2017 09:00:00 22.76 C 20.0000 %
1307 14-06-2017 10:00:00 24.06 C 20.0000 %
1308 14-06-2017 11:00:00 22.34 C 20.0000 %
1309 14-06-2017 12:00:00 23.22 C 20.0000 %
1310 14-06-2017 13:00:00 23.86 C 20.0000 %
1311 14-06-2017 14:00:00 29.2 C 20.0000 %
1312 14-06-2017 15:00:00 32.14 C 20.0000 %
1313 14-06-2017 16:00:00 29.8 C 20.0000 %
1314 14-06-2017 17:00:00 33.74 C 20.0000 %
1315 14-06-2017 18:00:00 40.2 C 20.0000 %
1316 14-06-2017 19:00:00 33.66 C 20.0000 %
1317 14-06-2017 20:00:00 25.76 C 20.0000 %
1318 14-06-2017 21:00:00 20.94 C 20.0000 %
1319 14-06-2017 22:00:00 18.52 C 20.0000 %
1320 14-06-2017 23:00:00 17.18 C 20.0000 %
1321 15-06-2017 00:00:00 16.16 C 20.0000 %
1322 15-06-2017 01:00:00 15.06 C 20.0000 %
1323 15-06-2017 02:00:00 14.16 C 20.4000 %
1324 15-06-2017 03:00:00 13.94 C 23.4000 %
1325 15-06-2017 04:00:00 13.12 C 26.4000 %
Sensor: Nr:Datum:Temp:Feuchte:
Aussen-T/F 1326 15-06-2017 05:00:00 12.68 C 30.2000 %
1327 15-06-2017 06:00:00 13.16 C 30.8000 %
1328 15-06-2017 07:00:00 14.04 C 30.2000 %
1329 15-06-2017 08:00:00 16.84 C 25.4000 %
1330 15-06-2017 09:00:00 24.32 C 20.0000 %
1331 15-06-2017 10:00:00 25.18 C 20.0000 %
1332 15-06-2017 11:00:00 25.5 C 20.0000 %
1333 15-06-2017 12:00:00 28.04 C 20.0000 %
1334 15-06-2017 13:00:00 29.12 C 20.0000 %
1335 15-06-2017 14:00:00 31.64 C 20.0000 %
1336 15-06-2017 15:00:00 36 C 20.0000 %
1337 15-06-2017 16:00:00 31.34 C 20.0000 %
1338 15-06-2017 17:00:00 26.7 C 20.0000 %
1339 15-06-2017 18:00:00 26.02 C 20.0000 %
1340 15-06-2017 19:00:00 26.96 C 20.0000 %
1341 15-06-2017 20:00:00 26.4 C 20.0000 %
1342 15-06-2017 21:00:00 23.8 C 20.0000 %
1343 15-06-2017 22:00:00 22.2 C 20.0000 %
1344 15-06-2017 23:00:00 22.42 C 20.0000 %
1345 16-06-2017 00:00:00 20.56 C 20.0000 %
1346 16-06-2017 01:00:00 19.26 C 20.0000 %
1347 16-06-2017 02:00:00 18.36 C 20.0000 %
1348 16-06-2017 03:00:00 16.84 C 20.0000 %
1349 16-06-2017 04:00:00 17.4 C 20.0000 %
1350 16-06-2017 05:00:00 17.48 C 20.0000 %
Sensor: Nr:Datum:Temp:Feuchte:
Aussen-T/F 1351 16-06-2017 06:00:00 16.62 C 20.0000 %
1352 16-06-2017 07:00:00 15.94 C 20.0000 %
1353 16-06-2017 08:00:00 17.68 C 20.0000 %
1354 16-06-2017 09:00:00 21.32 C 20.0000 %
1355 16-06-2017 10:00:00 22.74 C 20.0000 %
1356 16-06-2017 11:00:00 22.88 C 20.0000 %
1357 16-06-2017 12:00:00 23.04 C 20.0000 %
1358 16-06-2017 13:00:00 23.7 C 20.0000 %
1359 16-06-2017 14:00:00 24.28 C 20.0000 %
1360 16-06-2017 15:00:00 25.16 C 20.0000 %
1361 16-06-2017 16:00:00 23.86 C 20.0000 %
1362 16-06-2017 17:00:00 23.6 C 20.0000 %
1363 16-06-2017 18:00:00 21.7 C 20.0000 %
1364 16-06-2017 19:00:00 20.74 C 20.0000 %
1365 16-06-2017 20:00:00 19.8 C 20.0000 %
1366 16-06-2017 21:00:00 18.36 C 20.0000 %
1367 16-06-2017 22:00:00 17.1 C 20.0000 %
1368 16-06-2017 23:00:00 16.06 C 20.0000 %
1369 17-06-2017 00:00:00 14.68 C 20.0000 %
1370 17-06-2017 01:00:00 13.5 C 20.0000 %
1371 17-06-2017 02:00:00 12.72 C 20.0000 %
1372 17-06-2017 03:00:00 12 C 20.0000 %
1373 17-06-2017 04:00:00 11.1 C 21.0000 %
1374 17-06-2017 05:00:00 10.66 C 25.6000 %
1375 17-06-2017 06:00:00 11.46 C 24.6000 %
Sensor: Nr:Datum:Temp:Feuchte:
Aussen-T/F 1376 17-06-2017 07:00:00 13.46 C 20.0000 %
1377 17-06-2017 08:00:00 16.06 C 20.0000 %
1378 17-06-2017 09:00:00 17.68 C 20.0000 %
1379 17-06-2017 10:00:00 18.2 C 20.0000 %
1380 17-06-2017 11:00:00 18.84 C 20.0000 %
1381 17-06-2017 12:00:00 18.8 C 20.0000 %
1382 17-06-2017 13:00:00 21.5 C 20.0000 %
1383 17-06-2017 14:00:00 21.86 C 20.0000 %
1384 17-06-2017 15:00:00 22.18 C 20.0000 %
1385 17-06-2017 16:00:00 22.18 C 20.0000 %
1386 17-06-2017 17:00:00 26.8 C 20.0000 %
1387 17-06-2017 18:00:00 24.9 C 20.0000 %
1388 17-06-2017 19:00:00 25.22 C 20.0000 %
1389 17-06-2017 20:00:00 22.4 C 20.0000 %
1390 17-06-2017 21:00:00 19.98 C 20.0000 %
1391 17-06-2017 22:00:00 19.04 C 20.0000 %
1392 17-06-2017 23:00:00 18.68 C 20.0000 %
1393 18-06-2017 00:00:00 18.38 C 20.0000 %
1394 18-06-2017 01:00:00 18 C 20.0000 %
1395 18-06-2017 02:00:00 17.7 C 21.2000 %
1396 18-06-2017 03:00:00 17.34 C 23.6000 %
1397 18-06-2017 04:00:00 16.7 C 25.6000 %
1398 18-06-2017 05:00:00 16.48 C 28.2000 %
1399 18-06-2017 06:00:00 17.5 C 27.2000 %
1400 18-06-2017 07:00:00 19 C 21.4000 %
Sensor: Nr:Datum:Temp:Feuchte:
Aussen-T/F 1401 18-06-2017 08:00:00 19.38 C 20.0000 %
1402 18-06-2017 09:00:00 24.56 C 20.0000 %
1403 18-06-2017 10:00:00 24.24 C 20.0000 %
1404 18-06-2017 11:00:00 24.38 C 20.0000 %
1405 18-06-2017 12:00:00 26 C 20.0000 %
1406 18-06-2017 13:00:00 26.52 C 20.0000 %
1407 18-06-2017 14:00:00 28.46 C 20.0000 %
1408 18-06-2017 15:00:00 30.56 C 20.0000 %
1409 18-06-2017 16:00:00 30.04 C 20.0000 %
1410 18-06-2017 17:00:00 32.88 C 20.0000 %
1411 18-06-2017 18:00:00 38.4 C 20.0000 %
1412 18-06-2017 19:00:00 32.62 C 20.0000 %
1413 18-06-2017 20:00:00 26.58 C 20.0000 %
1414 18-06-2017 21:00:00 22.52 C 20.0000 %
1415 18-06-2017 22:00:00 19.72 C 20.0000 %
1416 18-06-2017 23:00:00 18.12 C 20.0000 %
1417 19-06-2017 00:00:00 16.34 C 20.0000 %
1418 19-06-2017 01:00:00 15.14 C 21.2000 %
1419 19-06-2017 02:00:00 14.4 C 26.2000 %
1420 19-06-2017 03:00:00 13.82 C 28.8000 %
1421 19-06-2017 04:00:00 13.28 C 30.6000 %
1422 19-06-2017 05:00:00 12.76 C 33.4000 %
1423 19-06-2017 06:00:00 12.9 C 35.0000 %
1424 19-06-2017 07:00:00 13.6 C 34.2000 %
1425 19-06-2017 08:00:00 15.92 C 29.8000 %
Sensor: Nr:Datum:Temp:Feuchte:
Aussen-T/F 1426 19-06-2017 09:00:00 24.78 C 20.0000 %
1427 19-06-2017 10:00:00 27.2 C 20.0000 %
1428 19-06-2017 11:00:00 26.58 C 20.0000 %
1429 19-06-2017 12:00:00 27.24 C 20.0000 %
1430 19-06-2017 13:00:00 28 C 20.0000 %
1431 19-06-2017 14:00:00 32.98 C 20.0000 %
1432 19-06-2017 15:00:00 36.86 C 20.0000 %
1433 19-06-2017 16:00:00 34.16 C 20.0000 %
1434 19-06-2017 17:00:00 37.2 C 20.0000 %
1435 19-06-2017 18:00:00 44.7 C 20.0000 %
1436 19-06-2017 19:00:00 37.86 C 20.0000 %
1437 19-06-2017 20:00:00 28.12 C 20.0000 %
1438 19-06-2017 21:00:00 23.82 C 20.0000 %
1439 19-06-2017 22:00:00 21.24 C 20.0000 %
1440 19-06-2017 23:00:00 19.08 C 20.0000 %
1441 20-06-2017 00:00:00 17.64 C 20.0000 %
1442 20-06-2017 01:00:00 16.66 C 20.0000 %
1443 20-06-2017 02:00:00 15.92 C 20.0000 %
1444 20-06-2017 03:00:00 15.06 C 20.6000 %
1445 20-06-2017 04:00:00 14.48 C 23.6000 %
1446 20-06-2017 05:00:00 14.08 C 25.6000 %
1447 20-06-2017 06:00:00 14.34 C 26.6000 %
1448 20-06-2017 07:00:00 15.02 C 26.2000 %
1449 20-06-2017 08:00:00 17.36 C 22.2000 %
1450 20-06-2017 09:00:00 25.88 C 20.0000 %
Sensor: Nr:Datum:Temp:Feuchte:
Aussen-T/F 1451 20-06-2017 10:00:00 27.32 C 20.0000 %
1452 20-06-2017 11:00:00 27.16 C 20.0000 %
1453 20-06-2017 12:00:00 28.58 C 20.0000 %
1454 20-06-2017 13:00:00 30.5 C 20.0000 %
1455 20-06-2017 14:00:00 35.84 C 20.0000 %
1456 20-06-2017 15:00:00 39.12 C 20.0000 %
1457 20-06-2017 16:00:00 36.9 C 20.0000 %
1458 20-06-2017 17:00:00 38.62 C 20.0000 %
1459 20-06-2017 18:00:00 40.8 C 20.0000 %
1460 20-06-2017 19:00:00 37.5 C 20.0000 %
1461 20-06-2017 20:00:00 30.96 C 20.0000 %
1462 20-06-2017 21:00:00 26.54 C 20.0000 %
1463 20-06-2017 22:00:00 24.38 C 20.0000 %
1464 20-06-2017 23:00:00 23.04 C 20.0000 %
1465 21-06-2017 00:00:00 22.78 C 20.0000 %
1466 21-06-2017 01:00:00 22.12 C 20.0000 %
1467 21-06-2017 02:00:00 21.34 C 20.0000 %
1468 21-06-2017 03:00:00 20.44 C 20.0000 %
1469 21-06-2017 04:00:00 19.6 C 20.0000 %
1470 21-06-2017 05:00:00 18.92 C 20.0000 %
1471 21-06-2017 06:00:00 19.08 C 20.0000 %
1472 21-06-2017 07:00:00 21.3 C 20.0000 %
1473 21-06-2017 08:00:00 23.04 C 20.0000 %
1474 21-06-2017 09:00:00 28.64 C 20.0000 %
1475 21-06-2017 10:00:00 29.22 C 20.0000 %
Sensor: Nr:Datum:Temp:Feuchte:
Aussen-T/F 1476 21-06-2017 11:00:00 28.48 C 20.0000 %
1477 21-06-2017 12:00:00 29.3 C 20.0000 %
1478 21-06-2017 13:00:00 30.44 C 20.0000 %
1479 21-06-2017 14:00:00 33.94 C 20.0000 %
1480 21-06-2017 15:00:00 37.36 C 20.0000 %
1481 21-06-2017 16:00:00 35.42 C 20.0000 %
1482 21-06-2017 17:00:00 36.7 C 20.0000 %
1483 21-06-2017 18:00:00 43.56 C 20.0000 %
1484 21-06-2017 19:00:00 36.6 C 20.0000 %
1485 21-06-2017 20:00:00 28.54 C 20.0000 %
1486 21-06-2017 21:00:00 25.1 C 20.0000 %
1487 21-06-2017 22:00:00 23.16 C 20.0000 %
1488 21-06-2017 23:00:00 21.6 C 20.0000 %
1489 22-06-2017 00:00:00 20.38 C 20.0000 %
1490 22-06-2017 01:00:00 19.36 C 20.0000 %
1491 22-06-2017 02:00:00 18.44 C 20.0000 %
1492 22-06-2017 03:00:00 18 C 21.2000 %
1493 22-06-2017 04:00:00 17.4 C 24.0000 %
1494 22-06-2017 05:00:00 17.02 C 25.8000 %
1495 22-06-2017 06:00:00 17.5 C 26.8000 %
1496 22-06-2017 07:00:00 18.72 C 24.6000 %
1497 22-06-2017 08:00:00 21.66 C 20.6000 %
1498 22-06-2017 09:00:00 27.66 C 20.0000 %
1499 22-06-2017 10:00:00 29.4 C 20.0000 %
1500 22-06-2017 11:00:00 31.56 C 20.0000 %
Sensor: Nr:Datum:Temp:Feuchte:
Aussen-T/F 1501 22-06-2017 12:00:00 32.76 C 20.0000 %
1502 22-06-2017 13:00:00 34.84 C 20.0000 %
1503 22-06-2017 14:00:00 34.12 C 20.0000 %
1504 22-06-2017 15:00:00 34.02 C 20.0000 %
1505 22-06-2017 16:00:00 26.22 C 21.0000 %
1506 22-06-2017 17:00:00 22.56 C 33.6000 %
1507 22-06-2017 18:00:00 26.74 C 24.4000 %
1508 22-06-2017 19:00:00 23.48 C 24.2000 %
1509 22-06-2017 20:00:00 22.18 C 36.4000 %
1510 22-06-2017 21:00:00 21.62 C 41.0000 %
1511 22-06-2017 22:00:00 21.16 C 47.2000 %
1512 22-06-2017 23:00:00 20.18 C 45.6000 %
1513 23-06-2017 00:00:00 19.74 C 20.2000 %
1514 23-06-2017 01:00:00 18.2 C 23.0000 %
1515 23-06-2017 02:00:00 17.22 C 26.2000 %
1516 23-06-2017 03:00:00 17.6 C 26.8000 %
1517 23-06-2017 04:00:00 17.84 C 26.6000 %
1518 23-06-2017 05:00:00 17.76 C 27.4000 %
1519 23-06-2017 06:00:00 17.94 C 27.4000 %
1520 23-06-2017 07:00:00 18.7 C 22.2000 %
1521 23-06-2017 08:00:00 19.92 C 20.0000 %
1522 23-06-2017 09:00:00 22.22 C 20.0000 %
1523 23-06-2017 10:00:00 23.18 C 20.0000 %
1524 23-06-2017 11:00:00 24.14 C 20.0000 %
1525 23-06-2017 12:00:00 25.18 C 20.0000 %
Sensor: Nr:Datum:Temp:Feuchte:
Aussen-T/F 1526 23-06-2017 13:00:00 26.8 C 20.0000 %
1527 23-06-2017 14:00:00 29.32 C 20.0000 %
1528 23-06-2017 15:00:00 31.04 C 20.0000 %
1529 23-06-2017 16:00:00 30.72 C 20.0000 %
1530 23-06-2017 17:00:00 32.72 C 20.0000 %
1531 23-06-2017 18:00:00 35.78 C 20.0000 %
1532 23-06-2017 19:00:00 32.24 C 20.0000 %
1533 23-06-2017 20:00:00 26.68 C 20.0000 %
1534 23-06-2017 21:00:00 23.04 C 20.0000 %
1535 23-06-2017 22:00:00 20.46 C 20.0000 %
1536 23-06-2017 23:00:00 19.04 C 20.0000 %
1537 24-06-2017 00:00:00 17.92 C 20.0000 %
1538 24-06-2017 01:00:00 16.58 C 20.0000 %
1539 24-06-2017 02:00:00 15.22 C 20.0000 %
1540 24-06-2017 03:00:00 14.28 C 24.4000 %
1541 24-06-2017 04:00:00 13.7 C 29.4000 %
1542 24-06-2017 05:00:00 13.72 C 26.8000 %
1543 24-06-2017 06:00:00 13.68 C 26.0000 %
1544 24-06-2017 07:00:00 15.96 C 21.4000 %
1545 24-06-2017 08:00:00 18.04 C 20.0000 %
1546 24-06-2017 09:00:00 22.6 C 20.0000 %
1547 24-06-2017 10:00:00 22.64 C 20.0000 %
1548 24-06-2017 11:00:00 21.06 C 20.0000 %
1549 24-06-2017 12:00:00 21.92 C 20.0000 %
1550 24-06-2017 13:00:00 24.04 C 20.0000 %
Sensor: Nr:Datum:Temp:Feuchte:
Aussen-T/F 1551 24-06-2017 14:00:00 27.26 C 20.0000 %
1552 24-06-2017 15:00:00 29.22 C 20.0000 %
1553 24-06-2017 16:00:00 29 C 20.0000 %
1554 24-06-2017 17:00:00 30.44 C 20.0000 %
1555 24-06-2017 18:00:00 34.64 C 20.0000 %
1556 24-06-2017 19:00:00 30.86 C 20.0000 %
1557 24-06-2017 20:00:00 25.04 C 20.0000 %
1558 24-06-2017 21:00:00 21.8 C 20.0000 %
1559 24-06-2017 22:00:00 19.66 C 20.0000 %
1560 24-06-2017 23:00:00 18.26 C 20.0000 %
1561 25-06-2017 00:00:00 17.38 C 20.0000 %
1562 25-06-2017 01:00:00 16.72 C 20.0000 %
1563 25-06-2017 02:00:00 16.48 C 20.0000 %
1564 25-06-2017 03:00:00 16.28 C 20.0000 %
1565 25-06-2017 04:00:00 15.74 C 20.0000 %
1566 25-06-2017 05:00:00 15.52 C 20.0000 %
1567 25-06-2017 06:00:00 16.5 C 20.0000 %
1568 25-06-2017 07:00:00 17.92 C 20.0000 %
1569 25-06-2017 08:00:00 19.9 C 20.0000 %
1570 25-06-2017 09:00:00 20.74 C 20.0000 %
1571 25-06-2017 10:00:00 23.08 C 20.0000 %
1572 25-06-2017 11:00:00 21.84 C 20.0000 %
1573 25-06-2017 12:00:00 21.16 C 20.0000 %
1574 25-06-2017 13:00:00 23.38 C 20.0000 %
1575 25-06-2017 14:00:00 25.04 C 20.0000 %
Sensor: Nr:Datum:Temp:Feuchte:
Aussen-T/F 1576 25-06-2017 15:00:00 25.16 C 20.0000 %
1577 25-06-2017 16:00:00 25.44 C 20.0000 %
1578 25-06-2017 17:00:00 26.46 C 20.0000 %
1579 25-06-2017 18:00:00 26.82 C 20.0000 %
1580 25-06-2017 19:00:00 24.5 C 20.0000 %
1581 25-06-2017 20:00:00 23.34 C 20.0000 %
1582 25-06-2017 21:00:00 21.62 C 20.0000 %
1583 25-06-2017 22:00:00 21.02 C 20.0000 %
1584 25-06-2017 23:00:00 20.76 C 20.0000 %
1585 26-06-2017 00:00:00 20.04 C 20.0000 %
1586 26-06-2017 01:00:00 18.8 C 20.0000 %
1587 26-06-2017 02:00:00 17.42 C 20.0000 %
1588 26-06-2017 03:00:00 17.04 C 20.0000 %
1589 26-06-2017 04:00:00 16.4 C 20.0000 %
1590 26-06-2017 05:00:00 16.74 C 20.0000 %
1591 26-06-2017 06:00:00 17.46 C 20.0000 %
1592 26-06-2017 07:00:00 18.18 C 20.0000 %
1593 26-06-2017 08:00:00 19.38 C 20.0000 %
1594 26-06-2017 09:00:00 23.46 C 20.0000 %
1595 26-06-2017 10:00:00 24.92 C 20.0000 %
1596 26-06-2017 11:00:00 24.86 C 20.0000 %
1597 26-06-2017 12:00:00 25.84 C 20.0000 %
1598 26-06-2017 13:00:00 25.84 C 20.0000 %
1599 26-06-2017 14:00:00 29.2 C 20.0000 %
1600 26-06-2017 15:00:00 30.8 C 20.0000 %
Sensor: Nr:Datum:Temp:Feuchte:
Aussen-T/F 1601 26-06-2017 16:00:00 29.34 C 20.0000 %
1602 26-06-2017 17:00:00 32.02 C 20.0000 %
1603 26-06-2017 18:00:00 34.86 C 20.0000 %
1604 26-06-2017 19:00:00 28.32 C 20.0000 %
1605 26-06-2017 20:00:00 24.92 C 20.0000 %
1606 26-06-2017 21:00:00 22.42 C 20.0000 %
1607 26-06-2017 22:00:00 19.6 C 20.0000 %
1608 26-06-2017 23:00:00 18.54 C 20.0000 %
1609 27-06-2017 00:00:00 17.6 C 20.0000 %
1610 27-06-2017 01:00:00 17 C 20.0000 %
1611 27-06-2017 02:00:00 16.62 C 20.0000 %
1612 27-06-2017 03:00:00 16.82 C 20.0000 %
1613 27-06-2017 04:00:00 16.72 C 20.0000 %
1614 27-06-2017 05:00:00 16.68 C 20.8000 %
1615 27-06-2017 06:00:00 16.08 C 28.2000 %
1616 27-06-2017 07:00:00 16.36 C 32.0000 %
1617 27-06-2017 08:00:00 17.06 C 31.2000 %
1618 27-06-2017 09:00:00 18.5 C 23.0000 %
1619 27-06-2017 10:00:00 18.72 C 20.0000 %
1620 27-06-2017 11:00:00 19.36 C 20.0000 %
1621 27-06-2017 12:00:00 20.2 C 20.0000 %
1622 27-06-2017 13:00:00 19.38 C 20.8000 %
1623 27-06-2017 14:00:00 22.46 C 20.0000 %
1624 27-06-2017 15:00:00 24.18 C 20.0000 %
1625 27-06-2017 16:00:00 25.68 C 20.0000 %
Sensor: Nr:Datum:Temp:Feuchte:
Aussen-T/F 1626 27-06-2017 17:00:00 24.18 C 20.0000 %
1627 27-06-2017 18:00:00 20.62 C 27.0000 %
1628 27-06-2017 19:00:00 20.04 C 36.2000 %
1629 27-06-2017 20:00:00 20.24 C 36.4000 %
1630 27-06-2017 21:00:00 19.14 C 38.4000 %
1631 27-06-2017 22:00:00 18.72 C 40.6000 %
1632 27-06-2017 23:00:00 18.54 C 44.6000 %
1633 28-06-2017 00:00:00 18.46 C 51.0000 %
1634 28-06-2017 01:00:00 18.46 C 55.0000 %
1635 28-06-2017 02:00:00 17.9 C 55.6000 %
1636 28-06-2017 03:00:00 17.98 C 58.6000 %
1637 28-06-2017 04:00:00 17.62 C 57.4000 %
1638 28-06-2017 05:00:00 17.62 C 58.8000 %
1639 28-06-2017 06:00:00 17.94 C 59.0000 %
1640 28-06-2017 07:00:00 18.26 C 56.6000 %
1641 28-06-2017 08:00:00 19.32 C 53.6000 %
1642 28-06-2017 09:00:00 18.9 C 47.4000 %
1643 28-06-2017 10:00:00 19.42 C 45.6000 %
1644 28-06-2017 11:00:00 20.56 C 38.2000 %
1645 28-06-2017 12:00:00 22.56 C 20.6000 %
1646 28-06-2017 13:00:00 23.04 C 20.0000 %
1647 28-06-2017 14:00:00 23.84 C 20.0000 %
1648 28-06-2017 15:00:00 23 C 20.0000 %
1649 28-06-2017 16:00:00 22.48 C 22.0000 %
1650 28-06-2017 17:00:00 24.64 C 21.0000 %
Sensor: Nr:Datum:Temp:Feuchte:
Aussen-T/F 1651 28-06-2017 18:00:00 25.42 C 20.0000 %
1652 28-06-2017 19:00:00 22.5 C 20.0000 %
1653 28-06-2017 20:00:00 21.6 C 20.2000 %
1654 28-06-2017 21:00:00 19.62 C 22.0000 %
1655 28-06-2017 22:00:00 17.58 C 29.6000 %
1656 28-06-2017 23:00:00 15.88 C 35.6000 %
1657 29-06-2017 00:00:00 15.32 C 38.2000 %
1658 29-06-2017 01:00:00 15.46 C 40.4000 %
1659 29-06-2017 02:00:00 15.7 C 40.8000 %
1660 29-06-2017 03:00:00 16.28 C 40.4000 %
1661 29-06-2017 04:00:00 16.32 C 36.2000 %
1662 29-06-2017 05:00:00 16.36 C 35.2000 %
1663 29-06-2017 06:00:00 16.34 C 35.0000 %
1664 29-06-2017 07:00:00 16.78 C 29.0000 %
1665 29-06-2017 08:00:00 17.9 C 20.0000 %
1666 29-06-2017 09:00:00 18.96 C 20.0000 %
1667 29-06-2017 10:00:00 20.14 C 20.0000 %
1668 29-06-2017 11:00:00 21.34 C 20.0000 %
1669 29-06-2017 12:00:00 22.98 C 20.0000 %
1670 29-06-2017 13:00:00 24.1 C 20.0000 %
1671 29-06-2017 14:00:00 24.24 C 20.0000 %
1672 29-06-2017 15:00:00 25.54 C 20.0000 %
1673 29-06-2017 16:00:00 18.94 C 26.2000 %
1674 29-06-2017 17:00:00 20.7 C 25.0000 %
1675 29-06-2017 18:00:00 19.36 C 20.0000 %
Sensor: Nr:Datum:Temp:Feuchte:
Aussen-T/F 1676 29-06-2017 19:00:00 18.64 C 23.4000 %
1677 29-06-2017 20:00:00 17.6 C 21.2000 %
1678 29-06-2017 21:00:00 16.04 C 25.2000 %
1679 29-06-2017 22:00:00 14.92 C 30.6000 %
1680 29-06-2017 23:00:00 14.34 C 33.4000 %
1681 30-06-2017 00:00:00 13.86 C 36.8000 %
1682 30-06-2017 01:00:00 14.06 C 37.2000 %
1683 30-06-2017 02:00:00 14.54 C 29.2000 %
1684 30-06-2017 03:00:00 15.08 C 21.8000 %
1685 30-06-2017 04:00:00 14.68 C 22.0000 %
1686 30-06-2017 05:00:00 13.78 C 29.0000 %
1687 30-06-2017 06:00:00 14.72 C 24.4000 %
1688 30-06-2017 07:00:00 16.18 C 20.0000 %
1689 30-06-2017 08:00:00 17.26 C 20.0000 %
1690 30-06-2017 09:00:00 18.78 C 20.0000 %
1691 30-06-2017 10:00:00 19.3 C 20.0000 %
1692 30-06-2017 11:00:00 19.88 C 20.0000 %
1693 30-06-2017 12:00:00 19.84 C 20.0000 %
1694 30-06-2017 13:00:00 20.64 C 20.0000 %
1695 30-06-2017 14:00:00 23.34 C 20.0000 %
1696 30-06-2017 15:00:00 22.94 C 20.0000 %
1697 30-06-2017 16:00:00 23.36 C 20.0000 %
1698 30-06-2017 17:00:00 23.94286 C 20.0000 %
1699 30-06-2017 18:00:00 23.12857 C 20.0000 %
1700 30-06-2017 19:00:00 20.4 C 20.0000 %
Sensor: Nr:Datum:Temp:Feuchte:
Aussen-T/F 1701 30-06-2017 20:00:00 19.34 C 20.0000 %
1702 30-06-2017 21:00:00 16.8 C 20.0000 %
1703 30-06-2017 22:00:00 15.84 C 20.0000 %
1704 30-06-2017 23:00:00 16.16 C 20.0000 %
1705 01-07-2017 00:00:00 16.12 C 20.0000 %
1706 01-07-2017 01:00:00 16.58 C 20.0000 %
1707 01-07-2017 02:00:00 16.64 C 20.0000 %
1708 01-07-2017 03:00:00 16.4 C 20.0000 %
1709 01-07-2017 04:00:00 16.06 C 20.0000 %
1710 01-07-2017 05:00:00 15.84 C 20.0000 %
1711 01-07-2017 06:00:00 15.68 C 22.2000 %
1712 01-07-2017 07:00:00 14.98 C 31.6000 %
1713 01-07-2017 08:00:00 15.14 C 32.8000 %
1714 01-07-2017 09:00:00 15.7 C 34.0000 %
1715 01-07-2017 10:00:00 16.7 C 30.2000 %
1716 01-07-2017 11:00:00 16.5 C 28.6000 %
1717 01-07-2017 12:00:00 16.7 C 26.0000 %
1718 01-07-2017 13:00:00 17.98 C 21.6000 %
1719 01-07-2017 14:00:00 16.52 C 29.0000 %
1720 01-07-2017 15:00:00 16.72 C 34.4000 %
1721 01-07-2017 16:00:00 16.96 C 32.4000 %
1722 01-07-2017 17:00:00 16.32 C 34.4000 %
1723 01-07-2017 18:00:00 16.78 C 35.8000 %
1724 01-07-2017 19:00:00 16.32 C 37.4000 %
1725 01-07-2017 20:00:00 15.82 C 40.4000 %
Sensor: Nr:Datum:Temp:Feuchte:
Aussen-T/F 1726 01-07-2017 21:00:00 15.68 C 44.2000 %
1727 01-07-2017 22:00:00 15.68 C 46.0000 %
1728 01-07-2017 23:00:00 15.48 C 49.2000 %
1729 02-07-2017 00:00:00 15.42 C 55.2000 %
1730 02-07-2017 01:00:00 15.52 C 57.8000 %
1731 02-07-2017 02:00:00 15 C 49.6000 %
1732 02-07-2017 03:00:00 14.56 C 41.6000 %
1733 02-07-2017 04:00:00 14.14 C 41.2000 %
1734 02-07-2017 05:00:00 13.72 C 44.0000 %
1735 02-07-2017 06:00:00 13.68 C 49.2000 %
1736 02-07-2017 07:00:00 14.7 C 40.6000 %
1737 02-07-2017 08:00:00 16.68 C 22.8000 %
1738 02-07-2017 09:00:00 18.46 C 20.0000 %
1739 02-07-2017 10:00:00 18.38 C 20.0000 %
1740 02-07-2017 11:00:00 19.28 C 20.0000 %
1741 02-07-2017 12:00:00 20.78 C 20.0000 %
1742 02-07-2017 13:00:00 20.28 C 20.0000 %
1743 02-07-2017 14:00:00 18.52 C 20.0000 %
1744 02-07-2017 15:00:00 20.06 C 20.0000 %
1745 02-07-2017 16:00:00 19.78 C 20.0000 %
1746 02-07-2017 17:00:00 19.24 C 20.0000 %
1747 02-07-2017 18:00:00 17.82 C 22.2000 %
1748 02-07-2017 19:00:00 16.84 C 26.4000 %
1749 02-07-2017 20:00:00 16.44 C 31.2000 %
1750 02-07-2017 21:00:00 15.9 C 33.0000 %
Sensor: Nr:Datum:Temp:Feuchte:
Aussen-T/F 1751 02-07-2017 22:00:00 15.42 C 37.0000 %
1752 02-07-2017 23:00:00 15.46 C 36.8000 %
1753 03-07-2017 00:00:00 14.64 C 38.0000 %
1754 03-07-2017 01:00:00 13.62 C 36.2000 %
1755 03-07-2017 02:00:00 12.56 C 35.6000 %
1756 03-07-2017 03:00:00 11.3 C 37.4000 %
1757 03-07-2017 04:00:00 10.52 C 42.0000 %
1758 03-07-2017 05:00:00 10.76 C 43.8000 %
1759 03-07-2017 06:00:00 11.6 C 45.6000 %
1760 03-07-2017 07:00:00 12.64 C 43.0000 %
1761 03-07-2017 08:00:00 14.42 C 35.6000 %
1762 03-07-2017 09:00:00 18.36 C 20.0000 %
1763 03-07-2017 10:00:00 19.82 C 20.0000 %
1764 03-07-2017 11:00:00 20.62 C 20.0000 %
1765 03-07-2017 12:00:00 21.66 C 20.0000 %
1766 03-07-2017 13:00:00 22.62 C 20.0000 %
1767 03-07-2017 14:00:00 26.04 C 20.0000 %
1768 03-07-2017 15:00:00 27.52 C 20.0000 %
1769 03-07-2017 16:00:00 27.34 C 20.0000 %
1770 03-07-2017 17:00:00 26.9 C 20.0000 %
1771 03-07-2017 18:00:00 25.42 C 20.0000 %
1772 03-07-2017 19:00:00 25.82 C 20.0000 %
1773 03-07-2017 20:00:00 23.12 C 20.0000 %
1774 03-07-2017 21:00:00 20.18 C 20.0000 %
1775 03-07-2017 22:00:00 17.46 C 20.0000 %
Sensor: Nr:Datum:Temp:Feuchte:
Aussen-T/F 1776 03-07-2017 23:00:00 17.06 C 20.0000 %
1777 04-07-2017 00:00:00 16.88 C 20.0000 %
1778 04-07-2017 01:00:00 16.66 C 20.0000 %
1779 04-07-2017 02:00:00 14.96 C 20.0000 %
1780 04-07-2017 03:00:00 14.12 C 20.4000 %
1781 04-07-2017 04:00:00 13.24 C 24.4000 %
1782 04-07-2017 05:00:00 12.5 C 29.6000 %
1783 04-07-2017 06:00:00 12.6 C 31.8000 %
1784 04-07-2017 07:00:00 13.98 C 29.4000 %
1785 04-07-2017 08:00:00 17.72 C 20.0000 %
1786 04-07-2017 09:00:00 23.24 C 20.0000 %
1787 04-07-2017 10:00:00 23.54 C 20.0000 %
1788 04-07-2017 11:00:00 23.12 C 20.0000 %
1789 04-07-2017 12:00:00 23.52 C 20.0000 %
1790 04-07-2017 13:00:00 24.84 C 20.0000 %
1791 04-07-2017 14:00:00 27.22 C 20.0000 %
1792 04-07-2017 15:00:00 32.04 C 20.0000 %
1793 04-07-2017 16:00:00 31.1 C 20.0000 %
1794 04-07-2017 17:00:00 33.72 C 20.0000 %
1795 04-07-2017 18:00:00 36.52 C 20.0000 %
1796 04-07-2017 19:00:00 33.14 C 20.0000 %
1797 04-07-2017 20:00:00 24.54 C 20.0000 %
1798 04-07-2017 21:00:00 20.8 C 20.0000 %
1799 04-07-2017 22:00:00 18.94 C 20.0000 %
1800 04-07-2017 23:00:00 17.56 C 20.0000 %
Sensor: Nr:Datum:Temp:Feuchte:
Aussen-T/F 1801 05-07-2017 00:00:00 16.36 C 20.6000 %
1802 05-07-2017 01:00:00 15.32 C 24.6000 %
1803 05-07-2017 02:00:00 14.48 C 28.2000 %
1804 05-07-2017 03:00:00 14 C 31.6000 %
1805 05-07-2017 04:00:00 13.64 C 33.6000 %
1806 05-07-2017 05:00:00 13.4 C 35.2000 %
1807 05-07-2017 06:00:00 13.8 C 34.4000 %
1808 05-07-2017 07:00:00 14.46 C 31.8000 %
1809 05-07-2017 08:00:00 16.12 C 28.4000 %
1810 05-07-2017 09:00:00 23.32 C 20.0000 %
1811 05-07-2017 10:00:00 24.52 C 20.0000 %
1812 05-07-2017 11:00:00 25.02 C 20.0000 %
1813 05-07-2017 12:00:00 25.9 C 20.0000 %
1814 05-07-2017 13:00:00 27.22 C 20.0000 %
1815 05-07-2017 14:00:00 30.58 C 20.0000 %
1816 05-07-2017 15:00:00 34.46 C 20.0000 %
1817 05-07-2017 16:00:00 33.04 C 20.0000 %
1818 05-07-2017 17:00:00 35.68 C 20.0000 %
1819 05-07-2017 18:00:00 40.54 C 20.0000 %
1820 05-07-2017 19:00:00 35.04 C 20.0000 %
1821 05-07-2017 20:00:00 28.72 C 20.0000 %
1822 05-07-2017 21:00:00 24.28 C 20.0000 %
1823 05-07-2017 22:00:00 22.02 C 20.0000 %
1824 05-07-2017 23:00:00 20.28 C 20.0000 %
1825 06-07-2017 00:00:00 18.52 C 20.0000 %
Sensor: Nr:Datum:Temp:Feuchte:
Aussen-T/F 1826 06-07-2017 01:00:00 17.4 C 20.0000 %
1827 06-07-2017 02:00:00 16.54 C 23.0000 %
1828 06-07-2017 03:00:00 15.86 C 26.0000 %
1829 06-07-2017 04:00:00 15.48 C 29.0000 %
1830 06-07-2017 05:00:00 15.02 C 31.0000 %
1831 06-07-2017 06:00:00 15.28 C 32.0000 %
1832 06-07-2017 07:00:00 15.98 C 31.0000 %
1833 06-07-2017 08:00:00 17.9 C 27.6000 %
1834 06-07-2017 09:00:00 24.02 C 20.0000 %
1835 06-07-2017 10:00:00 25.56 C 20.0000 %
1836 06-07-2017 11:00:00 27.06 C 20.0000 %
1837 06-07-2017 12:00:00 28.36 C 20.0000 %
1838 06-07-2017 13:00:00 31.04 C 20.0000 %
1839 06-07-2017 14:00:00 34.18 C 20.0000 %
1840 06-07-2017 15:00:00 37.04 C 20.0000 %
1841 06-07-2017 16:00:00 29.18 C 20.0000 %
1842 06-07-2017 17:00:00 23.2 C 20.0000 %
1843 06-07-2017 18:00:00 32.84 C 20.0000 %
1844 06-07-2017 19:00:00 26.34 C 20.0000 %
1845 06-07-2017 20:00:00 23.28 C 20.0000 %
1846 06-07-2017 21:00:00 20.38 C 26.8000 %
1847 06-07-2017 22:00:00 18.46 C 40.8000 %
1848 06-07-2017 23:00:00 17.9 C 47.8000 %
1849 07-07-2017 00:00:00 18.24 C 57.2000 %
1850 07-07-2017 01:00:00 18.1 C 59.0000 %
Sensor: Nr:Datum:Temp:Feuchte:
Aussen-T/F 1851 07-07-2017 02:00:00 17.46 C 58.4000 %
1852 07-07-2017 03:00:00 17.12 C 59.8000 %
1853 07-07-2017 04:00:00 16.56 C 59.8000 %
1854 07-07-2017 05:00:00 16.3 C 60.6000 %
1855 07-07-2017 06:00:00 16.7 C 61.4000 %
1856 07-07-2017 07:00:00 17.86 C 60.4000 %
1857 07-07-2017 08:00:00 18.8 C 55.4000 %
1858 07-07-2017 09:00:00 23.06 C 27.2000 %
1859 07-07-2017 10:00:00 24.16 C 20.0000 %
1860 07-07-2017 11:00:00 25.56 C 20.0000 %
1861 07-07-2017 12:00:00 26.58 C 20.0000 %
1862 07-07-2017 13:00:00 28.72 C 20.0000 %
1863 07-07-2017 14:00:00 31.9 C 20.0000 %
1864 07-07-2017 15:00:00 35.3 C 20.0000 %
1865 07-07-2017 16:00:00 33.22 C 20.0000 %
1866 07-07-2017 17:00:00 36.04 C 20.0000 %
1867 07-07-2017 18:00:00 35.9 C 20.0000 %
1868 07-07-2017 19:00:00 33.74 C 20.0000 %
1869 07-07-2017 20:00:00 28.32 C 20.0000 %
1870 07-07-2017 21:00:00 24.86 C 20.0000 %
1871 07-07-2017 22:00:00 23.2 C 20.0000 %
1872 07-07-2017 23:00:00 21.42 C 20.0000 %
1873 08-07-2017 00:00:00 20.12 C 20.0000 %
1874 08-07-2017 01:00:00 18.98 C 20.0000 %
1875 08-07-2017 02:00:00 17.44 C 20.8000 %
Sensor: Nr:Datum:Temp:Feuchte:
Aussen-T/F 1876 08-07-2017 03:00:00 16.62 C 24.4000 %
1877 08-07-2017 04:00:00 15.98 C 27.0000 %
1878 08-07-2017 05:00:00 15.56 C 30.0000 %
1879 08-07-2017 06:00:00 15.58 C 32.6000 %
1880 08-07-2017 07:00:00 16.62 C 31.6000 %
1881 08-07-2017 08:00:00 18.2 C 25.8000 %
1882 08-07-2017 09:00:00 23.68 C 20.0000 %
1883 08-07-2017 10:00:00 26.08 C 20.0000 %
1884 08-07-2017 11:00:00 25.74 C 20.0000 %
1885 08-07-2017 12:00:00 25.66 C 20.0000 %
1886 08-07-2017 13:00:00 27 C 20.0000 %
1887 08-07-2017 14:00:00 29.36 C 20.0000 %
1888 08-07-2017 15:00:00 32.08 C 20.0000 %
1889 08-07-2017 16:00:00 32.4 C 20.0000 %
1890 08-07-2017 17:00:00 35.42 C 20.0000 %
1891 08-07-2017 18:00:00 38.7 C 20.0000 %
1892 08-07-2017 19:00:00 32.78 C 20.0000 %
1893 08-07-2017 20:00:00 26.96 C 20.0000 %
1894 08-07-2017 21:00:00 23.4 C 20.0000 %
1895 08-07-2017 22:00:00 21.8 C 20.0000 %
1896 08-07-2017 23:00:00 20.84 C 20.0000 %
1897 09-07-2017 00:00:00 20.02 C 20.0000 %
1898 09-07-2017 01:00:00 19.3 C 20.2000 %
1899 09-07-2017 02:00:00 19.04 C 20.6000 %
1900 09-07-2017 03:00:00 18.44 C 23.8000 %
Sensor: Nr:Datum:Temp:Feuchte:
Aussen-T/F 1901 09-07-2017 04:00:00 17.9 C 27.0000 %
1902 09-07-2017 05:00:00 17.7 C 26.8000 %
1903 09-07-2017 06:00:00 17.74 C 28.0000 %
1904 09-07-2017 07:00:00 19.2 C 21.6000 %
1905 09-07-2017 08:00:00 20.84 C 20.0000 %
1906 09-07-2017 09:00:00 22.08 C 20.0000 %
1907 09-07-2017 10:00:00 24.02 C 20.0000 %
1908 09-07-2017 11:00:00 24.8 C 20.0000 %
1909 09-07-2017 12:00:00 25.68 C 20.0000 %
1910 09-07-2017 13:00:00 27.56 C 20.0000 %
1911 09-07-2017 14:00:00 30.26 C 20.0000 %
1912 09-07-2017 15:00:00 33.06 C 20.0000 %
1913 09-07-2017 16:00:00 32.86 C 20.0000 %
1914 09-07-2017 17:00:00 31.24 C 20.0000 %
1915 09-07-2017 18:00:00 30.3 C 20.0000 %
1916 09-07-2017 19:00:00 28.1 C 20.0000 %
1917 09-07-2017 20:00:00 26.92 C 20.0000 %
1918 09-07-2017 21:00:00 24.06 C 20.0000 %
1919 09-07-2017 22:00:00 22.3 C 20.0000 %
1920 09-07-2017 23:00:00 19.62 C 32.2000 %
1921 10-07-2017 00:00:00 19.2 C 37.4000 %
1922 10-07-2017 01:00:00 19.06 C 40.0000 %
1923 10-07-2017 02:00:00 19.04 C 41.4000 %
1924 10-07-2017 03:00:00 18.64 C 43.8000 %
1925 10-07-2017 04:00:00 18.48 C 44.2000 %
Sensor: Nr:Datum:Temp:Feuchte:
Aussen-T/F 1926 10-07-2017 05:00:00 18.12 C 45.8000 %
1927 10-07-2017 06:00:00 18.22 C 49.6000 %
1928 10-07-2017 07:00:00 18.46 C 50.8000 %
1929 10-07-2017 08:00:00 18.96 C 51.0000 %
1930 10-07-2017 09:00:00 19.78 C 48.4000 %
1931 10-07-2017 10:00:00 21.42 C 31.2000 %
1932 10-07-2017 11:00:00 20.76 C 29.0000 %
1933 10-07-2017 12:00:00 20.4 C 31.2000 %
1934 10-07-2017 13:00:00 21.48 C 26.6000 %
1935 10-07-2017 14:00:00 23.46 C 20.0000 %
1936 10-07-2017 15:00:00 23.88 C 20.8000 %
1937 10-07-2017 16:00:00 21.46 C 28.0000 %
1938 10-07-2017 17:00:00 22.16 C 30.6000 %
1939 10-07-2017 18:00:00 22.06 C 27.8000 %
1940 10-07-2017 19:00:00 20.74 C 28.8000 %
1941 10-07-2017 20:00:00 19.72 C 32.0000 %
1942 10-07-2017 21:00:00 18.8 C 35.4000 %
1943 10-07-2017 22:00:00 17.9 C 38.8000 %
1944 10-07-2017 23:00:00 17.68 C 41.6000 %
1945 11-07-2017 00:00:00 17.7 C 44.2000 %
1946 11-07-2017 01:00:00 17.6 C 43.4000 %
1947 11-07-2017 02:00:00 17.58 C 44.0000 %
1948 11-07-2017 03:00:00 17.42 C 42.0000 %
1949 11-07-2017 04:00:00 17.22 C 37.6000 %
1950 11-07-2017 05:00:00 16.7 C 36.0000 %
Sensor: Nr:Datum:Temp:Feuchte:
Aussen-T/F 1951 11-07-2017 06:00:00 16.7 C 30.0000 %
1952 11-07-2017 07:00:00 17.1 C 20.0000 %
1953 11-07-2017 08:00:00 17.66 C 20.0000 %
1954 11-07-2017 09:00:00 18.06 C 20.0000 %
1955 11-07-2017 10:00:00 20.12 C 20.0000 %
1956 11-07-2017 11:00:00 22.04 C 20.0000 %
1957 11-07-2017 12:00:00 23.28 C 20.0000 %
1958 11-07-2017 13:00:00 24.86 C 20.0000 %
1959 11-07-2017 14:00:00 25.7 C 20.0000 %
1960 11-07-2017 15:00:00 23.24 C 20.0000 %
1961 11-07-2017 16:00:00 22.4 C 20.0000 %
1962 11-07-2017 17:00:00 25.3 C 20.0000 %
1963 11-07-2017 18:00:00 24.22 C 20.0000 %
1964 11-07-2017 19:00:00 21 C 20.0000 %
1965 11-07-2017 20:00:00 20.28 C 20.0000 %
1966 11-07-2017 21:00:00 18.94 C 20.0000 %
1967 11-07-2017 22:00:00 17.76 C 20.2000 %
1968 11-07-2017 23:00:00 16.5 C 24.6000 %
1969 12-07-2017 00:00:00 16.08 C 30.0000 %
1970 12-07-2017 01:00:00 16.52 C 30.4000 %
1971 12-07-2017 02:00:00 16.78 C 28.6000 %
1972 12-07-2017 03:00:00 16.74 C 28.0000 %
1973 12-07-2017 04:00:00 16.76 C 29.4000 %
1974 12-07-2017 05:00:00 16.58 C 30.0000 %
1975 12-07-2017 06:00:00 17 C 29.4000 %
Sensor: Nr:Datum:Temp:Feuchte:
Aussen-T/F 1976 12-07-2017 07:00:00 17.08 C 30.2000 %
1977 12-07-2017 08:00:00 16.1 C 36.6000 %
1978 12-07-2017 09:00:00 16.38 C 38.2000 %
1979 12-07-2017 10:00:00 16.5 C 36.6000 %
1980 12-07-2017 11:00:00 16.5 C 35.4000 %
1981 12-07-2017 12:00:00 18.48 C 25.6000 %
1982 12-07-2017 13:00:00 21.68 C 20.0000 %
1983 12-07-2017 14:00:00 23.08 C 20.0000 %
1984 12-07-2017 15:00:00 23.46 C 20.0000 %
1985 12-07-2017 16:00:00 18.12 C 28.2000 %
1986 12-07-2017 17:00:00 19.7 C 22.6000 %
1987 12-07-2017 18:00:00 22.58 C 20.0000 %
1988 12-07-2017 19:00:00 20.82 C 20.0000 %
1989 12-07-2017 20:00:00 17.44 C 20.0000 %
1990 12-07-2017 21:00:00 15.54 C 20.6000 %
1991 12-07-2017 22:00:00 13.96 C 30.8000 %
1992 12-07-2017 23:00:00 13.38 C 35.6000 %
1993 13-07-2017 00:00:00 12.92 C 37.6000 %
1994 13-07-2017 01:00:00 12.16 C 35.0000 %
1995 13-07-2017 02:00:00 11.6 C 32.0000 %
1996 13-07-2017 03:00:00 10.84 C 34.8000 %
1997 13-07-2017 04:00:00 10 C 39.0000 %
1998 13-07-2017 05:00:00 9.3 C 41.6000 %
1999 13-07-2017 06:00:00 9.34 C 43.0000 %
2000 13-07-2017 07:00:00 10.06 C 44.2000 %
Sensor: Nr:Datum:Temp:Feuchte:
Aussen-T/F 2001 13-07-2017 08:00:00 11.5 C 40.6000 %
2002 13-07-2017 09:00:00 14.68 C 25.2000 %
2003 13-07-2017 10:00:00 16.38 C 20.0000 %
2004 13-07-2017 11:00:00 17.86 C 20.0000 %
2005 13-07-2017 12:00:00 17.62 C 20.0000 %
2006 13-07-2017 13:00:00 18.06 C 20.0000 %
2007 13-07-2017 14:00:00 21.52 C 20.0000 %
2008 13-07-2017 15:00:00 24.9 C 20.0000 %
2009 13-07-2017 16:00:00 24.56 C 20.0000 %
2010 13-07-2017 17:00:00 28.24 C 20.0000 %
2011 13-07-2017 18:00:00 35.86 C 20.0000 %
2012 13-07-2017 19:00:00 28.2 C 20.0000 %
2013 13-07-2017 20:00:00 19.14 C 20.0000 %
2014 13-07-2017 21:00:00 16.38 C 20.0000 %
2015 13-07-2017 22:00:00 15.12 C 20.0000 %
2016 13-07-2017 23:00:00 14.3 C 20.0000 %
2017 14-07-2017 00:00:00 12.88 C 21.2000 %
2018 14-07-2017 01:00:00 12.06 C 26.6000 %
2019 14-07-2017 02:00:00 12.44 C 29.2000 %
2020 14-07-2017 03:00:00 12.46 C 28.6000 %
2021 14-07-2017 04:00:00 11.66 C 31.8000 %
2022 14-07-2017 05:00:00 11.14 C 34.4000 %
2023 14-07-2017 06:00:00 12.38 C 32.2000 %
2024 14-07-2017 07:00:00 13.16 C 30.2000 %
2025 14-07-2017 08:00:00 15.12 C 21.4000 %
Sensor: Nr:Datum:Temp:Feuchte:
Aussen-T/F 2026 14-07-2017 09:00:00 17.62 C 20.0000 %
2027 14-07-2017 10:00:00 19.06 C 20.0000 %
2028 14-07-2017 11:00:00 21.24 C 20.0000 %
2029 14-07-2017 12:00:00 21.28 C 20.0000 %
2030 14-07-2017 13:00:00 22.74 C 20.0000 %
2031 14-07-2017 14:00:00 23.3 C 20.0000 %
2032 14-07-2017 15:00:00 25.34 C 20.0000 %
2033 14-07-2017 16:00:00 26.64 C 20.0000 %
2034 14-07-2017 17:00:00 24.88 C 20.0000 %
2035 14-07-2017 18:00:00 17.46 C 20.0000 %
2036 14-07-2017 19:00:00 16.04 C 26.4000 %
2037 14-07-2017 20:00:00 15.68 C 29.4000 %
2038 14-07-2017 21:00:00 15.18 C 24.2000 %
2039 14-07-2017 22:00:00 13.74 C 30.8000 %
2040 14-07-2017 23:00:00 13.14 C 33.4000 %
2041 15-07-2017 00:00:00 13 C 34.6000 %
2042 15-07-2017 01:00:00 12.48 C 33.8000 %
2043 15-07-2017 02:00:00 11.72 C 33.8000 %
2044 15-07-2017 03:00:00 10.92 C 37.0000 %
2045 15-07-2017 04:00:00 11.48 C 38.2000 %
2046 15-07-2017 05:00:00 11.64 C 34.0000 %
2047 15-07-2017 06:00:00 12.24 C 29.4000 %
2048 15-07-2017 07:00:00 13.7 C 22.0000 %
2049 15-07-2017 08:00:00 15.24 C 20.0000 %
2050 15-07-2017 09:00:00 17.08 C 20.0000 %
Sensor: Nr:Datum:Temp:Feuchte:
Aussen-T/F 2051 15-07-2017 10:00:00 18.6 C 20.0000 %
2052 15-07-2017 11:00:00 18.98 C 20.0000 %
2053 15-07-2017 12:00:00 19.8 C 20.0000 %
2054 15-07-2017 13:00:00 21.22 C 20.0000 %
2055 15-07-2017 14:00:00 22.64 C 20.0000 %
2056 15-07-2017 15:00:00 23.7 C 20.0000 %
2057 15-07-2017 16:00:00 23.7 C 20.0000 %
2058 15-07-2017 17:00:00 25.06 C 20.0000 %
2059 15-07-2017 18:00:00 25.64 C 20.0000 %
2060 15-07-2017 19:00:00 24.1 C 20.0000 %
2061 15-07-2017 20:00:00 18.46 C 20.0000 %
2062 15-07-2017 21:00:00 17.22 C 20.0000 %
2063 15-07-2017 22:00:00 16.92 C 20.0000 %
2064 15-07-2017 23:00:00 16.04 C 20.0000 %
2065 16-07-2017 00:00:00 15.4 C 20.0000 %
2066 16-07-2017 01:00:00 15.44 C 20.6000 %
2067 16-07-2017 02:00:00 15.36 C 22.8000 %
2068 16-07-2017 03:00:00 15.34 C 24.0000 %
2069 16-07-2017 04:00:00 15.4 C 25.2000 %
2070 16-07-2017 05:00:00 15.4 C 25.2000 %
2071 16-07-2017 06:00:00 15.64 C 25.4000 %
2072 16-07-2017 07:00:00 16.6 C 23.8000 %
2073 16-07-2017 08:00:00 18.28 C 20.4000 %
2074 16-07-2017 09:00:00 18.86 C 20.0000 %
2075 16-07-2017 10:00:00 19.32 C 20.0000 %
Sensor: Nr:Datum:Temp:Feuchte:
Aussen-T/F 2076 16-07-2017 11:00:00 20.38 C 20.0000 %
2077 16-07-2017 12:00:00 22.46 C 20.0000 %
2078 16-07-2017 13:00:00 23.66 C 20.0000 %
2079 16-07-2017 14:00:00 23.92 C 20.0000 %
2080 16-07-2017 15:00:00 24.6 C 20.0000 %
2081 16-07-2017 16:00:00 24.54 C 20.0000 %
2082 16-07-2017 17:00:00 25.82 C 20.0000 %
2083 16-07-2017 18:00:00 24.38 C 20.0000 %
2084 16-07-2017 19:00:00 24.12 C 20.0000 %
2085 16-07-2017 20:00:00 21.7 C 20.0000 %
2086 16-07-2017 21:00:00 20.38 C 22.0000 %
2087 16-07-2017 22:00:00 19.64 C 25.6000 %
2088 16-07-2017 23:00:00 19.48 C 27.0000 %
2089 17-07-2017 00:00:00 19.1 C 28.6000 %
2090 17-07-2017 01:00:00 17.64 C 30.6000 %
2091 17-07-2017 02:00:00 17.48 C 32.6000 %
2092 17-07-2017 03:00:00 16.28 C 34.6000 %
2093 17-07-2017 04:00:00 15.8 C 37.6000 %
2094 17-07-2017 05:00:00 16.02 C 38.4000 %
2095 17-07-2017 06:00:00 16.12 C 37.4000 %
2096 17-07-2017 07:00:00 16.68 C 37.0000 %
2097 17-07-2017 08:00:00 18.02 C 32.0000 %
2098 17-07-2017 09:00:00 21.66 C 22.0000 %
2099 17-07-2017 10:00:00 24.26 C 20.0000 %
2100 17-07-2017 11:00:00 25.14 C 20.0000 %
Sensor: Nr:Datum:Temp:Feuchte:
Aussen-T/F 2101 17-07-2017 12:00:00 25.12 C 20.0000 %
2102 17-07-2017 13:00:00 23.38 C 20.0000 %
2103 17-07-2017 14:00:00 25 C 20.0000 %
2104 17-07-2017 15:00:00 26.26 C 20.0000 %
2105 17-07-2017 16:00:00 28.68 C 20.0000 %
2106 17-07-2017 17:00:00 32.1 C 20.0000 %
2107 17-07-2017 18:00:00 34.76 C 20.0000 %
2108 17-07-2017 19:00:00 30.02 C 20.0000 %
2109 17-07-2017 20:00:00 24.06 C 20.0000 %
2110 17-07-2017 21:00:00 20.52 C 20.0000 %
2111 17-07-2017 22:00:00 18.78 C 21.8000 %
2112 17-07-2017 23:00:00 17.9 C 26.4000 %
2113 18-07-2017 00:00:00 17.06 C 29.4000 %
2114 18-07-2017 01:00:00 16.12 C 32.4000 %
2115 18-07-2017 02:00:00 15.54 C 35.2000 %
2116 18-07-2017 03:00:00 15.04 C 36.8000 %
2117 18-07-2017 04:00:00 14.54 C 38.4000 %
2118 18-07-2017 05:00:00 14.26 C 39.4000 %
2119 18-07-2017 06:00:00 14.94 C 40.0000 %
2120 18-07-2017 07:00:00 16.24 C 37.2000 %
2121 18-07-2017 08:00:00 16.28 C 34.8000 %
2122 18-07-2017 09:00:00 20.12 C 24.0000 %
2123 18-07-2017 10:00:00 22.42 C 20.0000 %
2124 18-07-2017 11:00:00 24.78 C 20.0000 %
2125 18-07-2017 12:00:00 25.8 C 20.0000 %
Sensor: Nr:Datum:Temp:Feuchte:
Aussen-T/F 2126 18-07-2017 13:00:00 27.1 C 20.0000 %
2127 18-07-2017 14:00:00 29.58 C 20.0000 %
2128 18-07-2017 15:00:00 32.6 C 20.0000 %
2129 18-07-2017 16:00:00 32.46 C 20.0000 %
2130 18-07-2017 17:00:00 33.8 C 20.0000 %
2131 18-07-2017 18:00:00 39.52 C 20.0000 %
2132 18-07-2017 19:00:00 34.76 C 20.0000 %
2133 18-07-2017 20:00:00 26.94 C 20.0000 %
2134 18-07-2017 21:00:00 23.4 C 20.0000 %
2135 18-07-2017 22:00:00 22.04 C 20.0000 %
2136 18-07-2017 23:00:00 21.2 C 20.0000 %
2137 19-07-2017 00:00:00 20.6 C 20.0000 %
2138 19-07-2017 01:00:00 19.84 C 20.2000 %
2139 19-07-2017 02:00:00 19.16 C 22.0000 %
2140 19-07-2017 03:00:00 18.42 C 26.0000 %
2141 19-07-2017 04:00:00 18.12 C 28.6000 %
2142 19-07-2017 05:00:00 17.56 C 29.8000 %
2143 19-07-2017 06:00:00 17.56 C 32.4000 %
2144 19-07-2017 07:00:00 17.96 C 32.8000 %
2145 19-07-2017 08:00:00 19.12 C 30.0000 %
2146 19-07-2017 09:00:00 22.8 C 22.2000 %
2147 19-07-2017 10:00:00 25.12 C 20.0000 %
2148 19-07-2017 11:00:00 28.06 C 20.0000 %
2149 19-07-2017 12:00:00 28.96 C 20.0000 %
2150 19-07-2017 13:00:00 30.64 C 20.0000 %
Sensor: Nr:Datum:Temp:Feuchte:
Aussen-T/F 2151 19-07-2017 14:00:00 33.7 C 20.0000 %
2152 19-07-2017 15:00:00 35.5 C 20.0000 %
2153 19-07-2017 16:00:00 32.36 C 20.0000 %
2154 19-07-2017 17:00:00 28.82 C 20.0000 %
2155 19-07-2017 18:00:00 30.12 C 20.0000 %
2156 19-07-2017 19:00:00 30.34 C 20.0000 %
2157 19-07-2017 20:00:00 25.52 C 20.0000 %
2158 19-07-2017 21:00:00 22.12 C 20.0000 %
2159 19-07-2017 22:00:00 20.56 C 20.0000 %
2160 19-07-2017 23:00:00 20.02 C 21.0000 %
2161 20-07-2017 00:00:00 20.32 C 22.2000 %
2162 20-07-2017 01:00:00 20.14 C 23.8000 %
2163 20-07-2017 02:00:00 19.92 C 26.6000 %
2164 20-07-2017 03:00:00 19.42 C 30.4000 %
2165 20-07-2017 04:00:00 19.2 C 35.2000 %
2166 20-07-2017 05:00:00 19.18 C 37.4000 %
2167 20-07-2017 06:00:00 19.06 C 41.2000 %
2168 20-07-2017 07:00:00 19.12 C 47.4000 %
2169 20-07-2017 08:00:00 19.44 C 51.0000 %
2170 20-07-2017 09:00:00 20.24 C 50.2000 %
2171 20-07-2017 10:00:00 21 C 39.0000 %
2172 20-07-2017 11:00:00 21.92 C 29.0000 %
2173 20-07-2017 12:00:00 23.7 C 20.0000 %
2174 20-07-2017 13:00:00 24.26 C 20.0000 %
2175 20-07-2017 14:00:00 25.64 C 20.0000 %
Sensor: Nr:Datum:Temp:Feuchte:
Aussen-T/F 2176 20-07-2017 15:00:00 27.6 C 20.0000 %
2177 20-07-2017 16:00:00 27.9 C 20.0000 %
2178 20-07-2017 17:00:00 29.78 C 20.0000 %
2179 20-07-2017 18:00:00 30.18 C 20.0000 %
2180 20-07-2017 19:00:00 29.18 C 20.0000 %
2181 20-07-2017 20:00:00 24.02 C 20.0000 %
2182 20-07-2017 21:00:00 21.22 C 20.0000 %
2183 20-07-2017 22:00:00 19.68 C 20.0000 %
2184 20-07-2017 23:00:00 19.34 C 20.0000 %
2185 21-07-2017 00:00:00 18.28 C 20.4000 %
2186 21-07-2017 01:00:00 18.24 C 22.8000 %
2187 21-07-2017 02:00:00 17.86 C 20.0000 %
2188 21-07-2017 03:00:00 15.72 C 20.0000 %
2189 21-07-2017 04:00:00 14.66 C 24.4000 %
2190 21-07-2017 05:00:00 13.84 C 23.8000 %
2191 21-07-2017 06:00:00 13.32 C 28.2000 %
2192 21-07-2017 07:00:00 13.64 C 31.2000 %
2193 21-07-2017 08:00:00 14.82 C 29.4000 %
2194 21-07-2017 09:00:00 18.58 C 21.6000 %
2195 21-07-2017 10:00:00 21.16 C 20.0000 %
2196 21-07-2017 11:00:00 22.36 C 20.0000 %
2197 21-07-2017 12:00:00 24.16 C 20.0000 %
2198 21-07-2017 13:00:00 24.6 C 20.0000 %
2199 21-07-2017 14:00:00 26.54 C 20.0000 %
2200 21-07-2017 15:00:00 28.2 C 20.0000 %
Sensor: Nr:Datum:Temp:Feuchte:
Aussen-T/F 2201 21-07-2017 16:00:00 28.76 C 20.0000 %
2202 21-07-2017 17:00:00 30.88 C 20.0000 %
2203 21-07-2017 18:00:00 33.62 C 20.0000 %
2204 21-07-2017 19:00:00 26.42 C 20.0000 %
2205 21-07-2017 20:00:00 23.38 C 20.0000 %
2206 21-07-2017 21:00:00 21.16 C 20.0000 %
2207 21-07-2017 22:00:00 20.18 C 20.0000 %
2208 21-07-2017 23:00:00 19.84 C 20.0000 %
2209 22-07-2017 00:00:00 19.8 C 20.0000 %
2210 22-07-2017 01:00:00 18.72 C 30.0000 %
2211 22-07-2017 02:00:00 17.98 C 40.6000 %
2212 22-07-2017 03:00:00 17.58 C 44.6000 %
2213 22-07-2017 04:00:00 17.42 C 53.0000 %
2214 22-07-2017 05:00:00 17.4 C 56.8000 %
2215 22-07-2017 06:00:00 17.54 C 59.4000 %
2216 22-07-2017 07:00:00 18.2 C 59.0000 %
2217 22-07-2017 08:00:00 19.04 C 51.6000 %
2218 22-07-2017 09:00:00 20.12 C 43.2000 %
2219 22-07-2017 10:00:00 21.5 C 30.2000 %
2220 22-07-2017 11:00:00 23.9 C 20.0000 %
2221 22-07-2017 12:00:00 24.8 C 20.0000 %
2222 22-07-2017 13:00:00 23.32 C 20.2000 %
2223 22-07-2017 14:00:00 24.46 C 20.8000 %
2224 22-07-2017 15:00:00 29.96 C 20.0000 %
2225 22-07-2017 16:00:00 29.28 C 20.0000 %
Sensor: Nr:Datum:Temp:Feuchte:
Aussen-T/F 2226 22-07-2017 17:00:00 30.46 C 20.0000 %
2227 22-07-2017 18:00:00 37.34 C 20.0000 %
2228 22-07-2017 19:00:00 31.62 C 20.0000 %
2229 22-07-2017 20:00:00 26.7 C 20.0000 %
2230 22-07-2017 21:00:00 21.66 C 20.6000 %
2231 22-07-2017 22:00:00 19.7 C 27.6000 %
2232 22-07-2017 23:00:00 20.16 C 24.8000 %
2233 23-07-2017 00:00:00 17.88 C 40.4000 %
2234 23-07-2017 01:00:00 17.4 C 43.4000 %
2235 23-07-2017 02:00:00 17.22 C 51.6000 %
2236 23-07-2017 03:00:00 16.44 C 54.2000 %
2237 23-07-2017 04:00:00 15.72 C 56.8000 %
2238 23-07-2017 05:00:00 15.26 C 58.4000 %
2239 23-07-2017 06:00:00 15.28 C 60.8000 %
2240 23-07-2017 07:00:00 15.56 C 57.0000 %
2241 23-07-2017 08:00:00 16 C 54.4000 %
2242 23-07-2017 09:00:00 17.56 C 34.8000 %
2243 23-07-2017 10:00:00 19.76 C 20.0000 %
2244 23-07-2017 11:00:00 19.64 C 20.0000 %
2245 23-07-2017 12:00:00 20.12 C 20.0000 %
2246 23-07-2017 13:00:00 21.72 C 20.0000 %
2247 23-07-2017 14:00:00 22.2 C 20.0000 %
2248 23-07-2017 15:00:00 23.88 C 20.0000 %
2249 23-07-2017 16:00:00 24.3 C 20.0000 %
2250 23-07-2017 17:00:00 24.72 C 20.0000 %
Sensor: Nr:Datum:Temp:Feuchte:
Aussen-T/F 2251 23-07-2017 18:00:00 27.9 C 20.0000 %
2252 23-07-2017 19:00:00 23.06 C 20.0000 %
2253 23-07-2017 20:00:00 19.1 C 20.0000 %
2254 23-07-2017 21:00:00 17.62 C 20.0000 %
2255 23-07-2017 22:00:00 16.3 C 20.0000 %
2256 23-07-2017 23:00:00 15.3 C 20.0000 %
2257 24-07-2017 00:00:00 14.74 C 23.4000 %
2258 24-07-2017 01:00:00 14.84 C 22.4000 %
2259 24-07-2017 02:00:00 14.84 C 23.6000 %
2260 24-07-2017 03:00:00 14.2 C 33.0000 %
2261 24-07-2017 04:00:00 14.06 C 36.0000 %
2262 24-07-2017 05:00:00 13.92 C 39.6000 %
2263 24-07-2017 06:00:00 13.98 C 40.8000 %
2264 24-07-2017 07:00:00 14.02 C 41.2000 %
2265 24-07-2017 08:00:00 13.86 C 43.8000 %
2266 24-07-2017 09:00:00 14.54 C 45.0000 %
2267 24-07-2017 10:00:00 15.3 C 40.0000 %
2268 24-07-2017 11:00:00 16.78 C 28.2000 %
2269 24-07-2017 12:00:00 18.4 C 20.0000 %
2270 24-07-2017 13:00:00 18.5 C 20.2000 %
2271 24-07-2017 14:00:00 17.88 C 20.0000 %
2272 24-07-2017 15:00:00 18.44 C 21.0000 %
2273 24-07-2017 16:00:00 17.92 C 26.4000 %
2274 24-07-2017 17:00:00 15.1 C 30.0000 %
2275 24-07-2017 18:00:00 14.88 C 41.2000 %
Sensor: Nr:Datum:Temp:Feuchte:
Aussen-T/F 2276 24-07-2017 19:00:00 15.46 C 39.0000 %
2277 24-07-2017 20:00:00 14.64 C 41.2000 %
2278 24-07-2017 21:00:00 13.3 C 47.2000 %
2279 24-07-2017 22:00:00 12.46 C 54.4000 %
2280 24-07-2017 23:00:00 12.02 C 60.2000 %
2281 25-07-2017 00:00:00 12.64 C 65.4000 %
2282 25-07-2017 01:00:00 12.78 C 65.8000 %
2283 25-07-2017 02:00:00 12.78 C 64.6000 %
2284 25-07-2017 03:00:00 13 C 63.0000 %
2285 25-07-2017 04:00:00 13.08 C 63.0000 %
2286 25-07-2017 05:00:00 13.1 C 62.6000 %
2287 25-07-2017 06:00:00 13.18 C 63.0000 %
2288 25-07-2017 07:00:00 13.48 C 63.4000 %
2289 25-07-2017 08:00:00 13.66 C 61.4000 %
2290 25-07-2017 09:00:00 13.74 C 60.2000 %
2291 25-07-2017 10:00:00 14.1 C 57.0000 %
2292 25-07-2017 11:00:00 14.24 C 57.0000 %
2293 25-07-2017 12:00:00 14.86 C 51.6000 %
2294 25-07-2017 13:00:00 16.16 C 49.8000 %
2295 25-07-2017 14:00:00 16.3 C 36.4000 %
2296 25-07-2017 15:00:00 15.44 C 35.8000 %
2297 25-07-2017 16:00:00 15.4 C 38.2000 %
2298 25-07-2017 17:00:00 15.04 C 42.8000 %
2299 25-07-2017 18:00:00 15.02 C 46.2000 %
2300 25-07-2017 19:00:00 14.82 C 47.0000 %
Sensor: Nr:Datum:Temp:Feuchte:
Aussen-T/F 2301 25-07-2017 20:00:00 14.32 C 46.4000 %
2302 25-07-2017 21:00:00 14.24 C 52.2000 %
2303 25-07-2017 22:00:00 14.4 C 49.6000 %
2304 25-07-2017 23:00:00 14.52 C 49.4000 %
2305 26-07-2017 00:00:00 14.68 C 52.6000 %
2306 26-07-2017 01:00:00 14.62 C 53.0000 %
2307 26-07-2017 02:00:00 14.5 C 54.0000 %
2308 26-07-2017 03:00:00 14.5 C 54.8000 %
2309 26-07-2017 04:00:00 14.6 C 56.6000 %
2310 26-07-2017 05:00:00 14.64 C 58.8000 %
2311 26-07-2017 06:00:00 14.78 C 59.6000 %
2312 26-07-2017 07:00:00 14.48 C 50.8000 %
2313 26-07-2017 08:00:00 14.52 C 42.8000 %
2314 26-07-2017 09:00:00 15.14 C 37.0000 %
2315 26-07-2017 10:00:00 17.12 C 23.8000 %
2316 26-07-2017 11:00:00 18.9 C 20.0000 %
2317 26-07-2017 12:00:00 19.62 C 20.0000 %
2318 26-07-2017 13:00:00 18.64 C 20.0000 %
2319 26-07-2017 14:00:00 19.74 C 20.0000 %
2320 26-07-2017 15:00:00 23.08 C 20.0000 %
2321 26-07-2017 16:00:00 24.42 C 20.0000 %
2322 26-07-2017 17:00:00 26.46 C 20.0000 %
2323 26-07-2017 18:00:00 25.84 C 20.0000 %
2324 26-07-2017 19:00:00 21.02 C 20.0000 %
2325 26-07-2017 20:00:00 18.42 C 20.0000 %
Sensor: Nr:Datum:Temp:Feuchte:
Aussen-T/F 2326 26-07-2017 21:00:00 16.52 C 24.6000 %
2327 26-07-2017 22:00:00 15.4 C 32.8000 %
2328 26-07-2017 23:00:00 15.38 C 36.0000 %
2329 27-07-2017 00:00:00 15.62 C 37.0000 %
2330 27-07-2017 01:00:00 15.78 C 37.4000 %
2331 27-07-2017 02:00:00 15.88 C 38.8000 %
2332 27-07-2017 03:00:00 16.08 C 41.4000 %
2333 27-07-2017 04:00:00 16.28 C 44.8000 %
2334 27-07-2017 05:00:00 16.42 C 51.2000 %
2335 27-07-2017 06:00:00 16.6 C 58.4000 %
2336 27-07-2017 07:00:00 17.16 C 58.2000 %
2337 27-07-2017 08:00:00 18.56 C 41.2000 %
2338 27-07-2017 09:00:00 20.34 C 23.6000 %
2339 27-07-2017 10:00:00 21.6 C 20.0000 %
2340 27-07-2017 11:00:00 22.68 C 20.0000 %
2341 27-07-2017 12:00:00 23.02 C 20.0000 %
2342 27-07-2017 13:00:00 21.16 C 23.0000 %
2343 27-07-2017 14:00:00 21.88 C 20.4000 %
2344 27-07-2017 15:00:00 24.42 C 20.0000 %
2345 27-07-2017 16:00:00 24 C 20.0000 %
2346 27-07-2017 17:00:00 22.6 C 20.0000 %
2347 27-07-2017 18:00:00 21.62 C 20.0000 %
2348 27-07-2017 19:00:00 19.98 C 23.0000 %
2349 27-07-2017 20:00:00 17.78 C 38.4000 %
2350 27-07-2017 21:00:00 17.1 C 45.2000 %
Sensor: Nr:Datum:Temp:Feuchte:
Aussen-T/F 2351 27-07-2017 22:00:00 16.74 C 55.4000 %
2352 27-07-2017 23:00:00 16.66 C 62.4000 %
2353 28-07-2017 00:00:00 16.64 C 63.2000 %
2354 28-07-2017 01:00:00 15.66 C 57.0000 %
2355 28-07-2017 02:00:00 14.1 C 48.2000 %
2356 28-07-2017 03:00:00 13.28 C 44.4000 %
2357 28-07-2017 04:00:00 13.3 C 40.8000 %
2358 28-07-2017 05:00:00 13.26 C 38.0000 %
2359 28-07-2017 06:00:00 12.32 C 39.0000 %
2360 28-07-2017 07:00:00 12.28 C 42.8000 %
2361 28-07-2017 08:00:00 13.58 C 43.6000 %
2362 28-07-2017 09:00:00 16.38 C 23.4000 %
2363 28-07-2017 10:00:00 18.86 C 20.0000 %
2364 28-07-2017 11:00:00 20.56 C 20.0000 %
2365 28-07-2017 12:00:00 20.88 C 20.0000 %
2366 28-07-2017 13:00:00 22.08 C 20.0000 %
2367 28-07-2017 14:00:00 22.78 C 20.0000 %
2368 28-07-2017 15:00:00 22.58 C 20.0000 %
2369 28-07-2017 16:00:00 22.06 C 20.0000 %
2370 28-07-2017 17:00:00 21.6 C 20.0000 %
2371 28-07-2017 18:00:00 19.66 C 20.0000 %
2372 28-07-2017 19:00:00 18.78 C 20.0000 %
2373 28-07-2017 20:00:00 17.9 C 20.0000 %
2374 28-07-2017 21:00:00 17.14 C 22.4000 %
2375 28-07-2017 22:00:00 16.78 C 26.2000 %
Sensor: Nr:Datum:Temp:Feuchte:
Aussen-T/F 2376 28-07-2017 23:00:00 16.64 C 29.0000 %
2377 29-07-2017 00:00:00 16.52 C 29.6000 %
2378 29-07-2017 01:00:00 15.8 C 30.8000 %
2379 29-07-2017 02:00:00 14.82 C 35.0000 %
2380 29-07-2017 03:00:00 14.68 C 36.8000 %
2381 29-07-2017 04:00:00 15.54 C 35.8000 %
2382 29-07-2017 05:00:00 15.9 C 34.8000 %
2383 29-07-2017 06:00:00 16.06 C 32.4000 %
2384 29-07-2017 07:00:00 16.5 C 32.8000 %
2385 29-07-2017 08:00:00 17.26 C 28.8000 %
2386 29-07-2017 09:00:00 20.02 C 21.0000 %
2387 29-07-2017 10:00:00 22.62 C 20.0000 %
2388 29-07-2017 11:00:00 23.7 C 20.0000 %
2389 29-07-2017 12:00:00 24.06 C 20.0000 %
2390 29-07-2017 13:00:00 25.88 C 20.0000 %
2391 29-07-2017 14:00:00 26.88 C 20.0000 %
2392 29-07-2017 15:00:00 28 C 20.0000 %
2393 29-07-2017 16:00:00 28.08 C 20.0000 %
2394 29-07-2017 17:00:00 25.88 C 20.0000 %
2395 29-07-2017 18:00:00 27.48 C 20.0000 %
2396 29-07-2017 19:00:00 23.66 C 20.0000 %
2397 29-07-2017 20:00:00 22.32 C 20.2000 %
2398 29-07-2017 21:00:00 20.74 C 25.0000 %
2399 29-07-2017 22:00:00 20.16 C 27.6000 %
2400 29-07-2017 23:00:00 19.84 C 29.8000 %
Sensor: Nr:Datum:Temp:Feuchte:
Aussen-T/F 2401 30-07-2017 00:00:00 19.46 C 30.4000 %
2402 30-07-2017 01:00:00 19.26 C 31.8000 %
2403 30-07-2017 02:00:00 19.08 C 33.2000 %
2404 30-07-2017 03:00:00 18.76 C 34.6000 %
2405 30-07-2017 04:00:00 18.34 C 35.2000 %
2406 30-07-2017 05:00:00 18.36 C 34.8000 %
2407 30-07-2017 06:00:00 18 C 36.0000 %
2408 30-07-2017 07:00:00 18.08 C 37.6000 %
2409 30-07-2017 08:00:00 21.12 C 23.8000 %
2410 30-07-2017 09:00:00 23.54 C 20.0000 %
2411 30-07-2017 10:00:00 25.36 C 20.0000 %
2412 30-07-2017 11:00:00 26.78 C 20.0000 %
2413 30-07-2017 12:00:00 26.6 C 20.0000 %
2414 30-07-2017 13:00:00 27.34 C 20.0000 %
2415 30-07-2017 14:00:00 28.54 C 20.0000 %
2416 30-07-2017 15:00:00 29 C 20.0000 %
2417 30-07-2017 16:00:00 29.94 C 20.0000 %
2418 30-07-2017 17:00:00 30.98 C 20.0000 %
2419 30-07-2017 18:00:00 32.9 C 20.0000 %
2420 30-07-2017 19:00:00 26.98 C 20.0000 %
2421 30-07-2017 20:00:00 24.14 C 20.0000 %
2422 30-07-2017 21:00:00 21.76 C 20.0000 %
2423 30-07-2017 22:00:00 19.9 C 20.0000 %
2424 30-07-2017 23:00:00 18.56 C 22.2000 %
2425 31-07-2017 00:00:00 17.72 C 25.0000 %
Sensor: Nr:Datum:Temp:Feuchte:
Aussen-T/F 2426 31-07-2017 01:00:00 16.66 C 29.2000 %
2427 31-07-2017 02:00:00 15.9 C 30.8000 %
2428 31-07-2017 03:00:00 16.3 C 30.8000 %
2429 31-07-2017 04:00:00 15.74 C 31.4000 %
2430 31-07-2017 05:00:00 15.98 C 30.4000 %
2431 31-07-2017 06:00:00 15.24 C 32.6000 %
2432 31-07-2017 07:00:00 15.48 C 35.8000 %
2433 31-07-2017 08:00:00 17.52 C 29.6000 %
2434 31-07-2017 09:00:00 19.9 C 23.2000 %
2435 31-07-2017 10:00:00 22.66 C 20.0000 %
2436 31-07-2017 11:00:00 24.52 C 20.0000 %
2437 31-07-2017 12:00:00 25.04 C 20.0000 %
2438 31-07-2017 13:00:00 26.06 C 20.0000 %
2439 31-07-2017 14:00:00 27.28 C 20.0000 %
2440 31-07-2017 15:00:00 29.42 C 20.0000 %
2441 31-07-2017 16:00:00 28.48 C 20.0000 %
2442 31-07-2017 17:00:00 28.6 C 20.0000 %
2443 31-07-2017 18:00:00 27.42 C 20.0000 %
2444 31-07-2017 19:00:00 24.36 C 20.0000 %
2445 31-07-2017 20:00:00 22.32 C 20.0000 %
2446 31-07-2017 21:00:00 21.18 C 21.2000 %
2447 31-07-2017 22:00:00 19.36 C 36.2000 %
2448 31-07-2017 23:00:00 18.84 C 43.6000 %
2449 01-08-2017 00:00:00 18.72 C 55.2000 %
2450 01-08-2017 01:00:00 18.64 C 61.6000 %
Sensor: Nr:Datum:Temp:Feuchte:
Aussen-T/F 2451 01-08-2017 02:00:00 18.54 C 63.4000 %
2452 01-08-2017 03:00:00 18.26 C 62.8000 %
2453 01-08-2017 04:00:00 18.08 C 62.6000 %
2454 01-08-2017 05:00:00 18 C 62.2000 %
2455 01-08-2017 06:00:00 17.88 C 62.2000 %
2456 01-08-2017 07:00:00 18.44 C 61.6000 %
2457 01-08-2017 08:00:00 18.76 C 61.0000 %
2458 01-08-2017 09:00:00 19.18 C 59.6000 %
2459 01-08-2017 10:00:00 19 C 58.8000 %
2460 01-08-2017 11:00:00 21.06 C 56.8000 %
2461 01-08-2017 12:00:00 21.66 C 38.8000 %
2462 01-08-2017 13:00:00 20.32 C 38.8000 %
2463 01-08-2017 14:00:00 20.94 C 40.2000 %
2464 01-08-2017 15:00:00 20.62 C 38.8000 %
2465 01-08-2017 16:00:00 20.7 C 39.0000 %
2466 01-08-2017 17:00:00 23.08 C 28.6000 %
2467 01-08-2017 18:00:00 28.94 C 20.0000 %
2468 01-08-2017 19:00:00 25.66 C 21.0000 %
2469 01-08-2017 20:00:00 21.5 C 28.0000 %
2470 01-08-2017 21:00:00 19.88 C 33.6000 %
2471 01-08-2017 22:00:00 18.64 C 40.0000 %
2472 01-08-2017 23:00:00 17.9 C 45.4000 %
2473 02-08-2017 00:00:00 17.44 C 48.2000 %
2474 02-08-2017 01:00:00 16.9 C 49.4000 %
2475 02-08-2017 02:00:00 16.54 C 53.2000 %
Sensor: Nr:Datum:Temp:Feuchte:
Aussen-T/F 2476 02-08-2017 03:00:00 16.62 C 60.0000 %
2477 02-08-2017 04:00:00 16.88 C 61.8000 %
2478 02-08-2017 05:00:00 16.7 C 60.2000 %
2479 02-08-2017 06:00:00 16.58 C 59.6000 %
2480 02-08-2017 07:00:00 17.64 C 60.8000 %
2481 02-08-2017 08:00:00 19.12 C 51.4000 %
2482 02-08-2017 09:00:00 20.68 C 38.0000 %
2483 02-08-2017 10:00:00 23.1 C 22.0000 %
2484 02-08-2017 11:00:00 25 C 20.0000 %
2485 02-08-2017 12:00:00 26.28 C 20.0000 %
2486 02-08-2017 13:00:00 27.4 C 20.0000 %
2487 02-08-2017 14:00:00 27.74 C 20.0000 %
2488 02-08-2017 15:00:00 28.54 C 20.0000 %
2489 02-08-2017 16:00:00 27.58 C 20.0000 %
2490 02-08-2017 17:00:00 29.08 C 20.0000 %
2491 02-08-2017 18:00:00 28.2 C 20.0000 %
2492 02-08-2017 19:00:00 25 C 20.0000 %
2493 02-08-2017 20:00:00 24.2 C 20.0000 %
2494 02-08-2017 21:00:00 21 C 25.4000 %
2495 02-08-2017 22:00:00 20.38 C 28.2000 %
2496 02-08-2017 23:00:00 19.84 C 30.0000 %
2497 03-08-2017 00:00:00 19.36 C 32.4000 %
2498 03-08-2017 01:00:00 19.22 C 33.4000 %
2499 03-08-2017 02:00:00 18.92 C 34.8000 %
2500 03-08-2017 03:00:00 18.28 C 37.0000 %
Sensor: Nr:Datum:Temp:Feuchte:
Aussen-T/F 2501 03-08-2017 04:00:00 18.12 C 39.0000 %
2502 03-08-2017 05:00:00 18.12 C 39.6000 %
2503 03-08-2017 06:00:00 18.14 C 40.0000 %
2504 03-08-2017 07:00:00 18.6 C 40.0000 %
2505 03-08-2017 08:00:00 19.08 C 38.2000 %
2506 03-08-2017 09:00:00 19.28 C 38.0000 %
2507 03-08-2017 10:00:00 20.24 C 38.2000 %
2508 03-08-2017 11:00:00 22.9 C 20.4000 %
2509 03-08-2017 12:00:00 23.82 C 20.0000 %
2510 03-08-2017 13:00:00 24.7 C 20.0000 %
2511 03-08-2017 14:00:00 26.2 C 20.0000 %
2512 03-08-2017 15:00:00 24.56 C 20.0000 %
2513 03-08-2017 16:00:00 26.6 C 20.0000 %
2514 03-08-2017 17:00:00 28.62 C 20.0000 %
2515 03-08-2017 18:00:00 29.84 C 20.0000 %
2516 03-08-2017 19:00:00 25.48 C 20.0000 %
2517 03-08-2017 20:00:00 22.86 C 20.0000 %
2518 03-08-2017 21:00:00 21.52 C 20.0000 %
2519 03-08-2017 22:00:00 20.46 C 20.2000 %
2520 03-08-2017 23:00:00 18.96 C 23.8000 %
2521 04-08-2017 00:00:00 18.48 C 27.4000 %
2522 04-08-2017 01:00:00 18.14 C 30.2000 %
2523 04-08-2017 02:00:00 17.92 C 30.8000 %
2524 04-08-2017 03:00:00 17.62 C 32.4000 %
2525 04-08-2017 04:00:00 17.5 C 33.0000 %
Sensor: Nr:Datum:Temp:Feuchte:
Aussen-T/F 2526 04-08-2017 05:00:00 17.5 C 34.2000 %
2527 04-08-2017 06:00:00 17.54 C 33.2000 %
2528 04-08-2017 07:00:00 18.16 C 32.0000 %
2529 04-08-2017 08:00:00 19.82 C 24.4000 %
2530 04-08-2017 09:00:00 21.86 C 20.0000 %
2531 04-08-2017 10:00:00 22.18 C 20.0000 %
2532 04-08-2017 11:00:00 23.32 C 20.0000 %
2533 04-08-2017 12:00:00 23.94 C 20.0000 %
2534 04-08-2017 13:00:00 23.72 C 20.0000 %
2535 04-08-2017 14:00:00 24.56 C 20.0000 %
2536 04-08-2017 15:00:00 26.46 C 20.0000 %
2537 04-08-2017 16:00:00 26.82 C 20.0000 %
2538 04-08-2017 17:00:00 25.74 C 20.0000 %
2539 04-08-2017 18:00:00 24.5 C 20.0000 %
2540 04-08-2017 19:00:00 24.28 C 20.0000 %
2541 04-08-2017 20:00:00 21.62 C 20.0000 %
2542 04-08-2017 21:00:00 19.58 C 20.0000 %
2543 04-08-2017 22:00:00 17.78 C 20.0000 %
2544 04-08-2017 23:00:00 16.82 C 23.0000 %
2545 05-08-2017 00:00:00 15.92 C 28.2000 %
2546 05-08-2017 01:00:00 15.2 C 30.2000 %
2547 05-08-2017 02:00:00 14.78 C 31.8000 %
2548 05-08-2017 03:00:00 15.3 C 33.6000 %
2549 05-08-2017 04:00:00 15.76 C 31.6000 %
2550 05-08-2017 05:00:00 15.96 C 30.2000 %
Sensor: Nr:Datum:Temp:Feuchte:
Aussen-T/F 2551 05-08-2017 06:00:00 16.08 C 30.0000 %
2552 05-08-2017 07:00:00 16.7 C 29.2000 %
2553 05-08-2017 08:00:00 18.9 C 22.4000 %
2554 05-08-2017 09:00:00 20.6 C 20.0000 %
2555 05-08-2017 10:00:00 23.24 C 20.0000 %
2556 05-08-2017 11:00:00 24.8 C 20.0000 %
2557 05-08-2017 12:00:00 25.94 C 20.0000 %
2558 05-08-2017 13:00:00 22.98 C 20.0000 %
2559 05-08-2017 14:00:00 24.06 C 20.0000 %
2560 05-08-2017 15:00:00 24.9 C 20.0000 %
2561 05-08-2017 16:00:00 25.16 C 20.0000 %
2562 05-08-2017 17:00:00 23.26 C 20.0000 %
2563 05-08-2017 18:00:00 26.98 C 20.0000 %
2564 05-08-2017 19:00:00 21.8 C 20.0000 %
2565 05-08-2017 20:00:00 20.18 C 20.0000 %
2566 05-08-2017 21:00:00 17.56 C 20.0000 %
2567 05-08-2017 22:00:00 16.08 C 23.0000 %
2568 05-08-2017 23:00:00 16.62 C 22.0000 %
2569 06-08-2017 00:00:00 15.42 C 24.2000 %
2570 06-08-2017 01:00:00 14.36 C 29.4000 %
2571 06-08-2017 02:00:00 13.94 C 32.2000 %
2572 06-08-2017 03:00:00 12.92 C 34.8000 %
2573 06-08-2017 04:00:00 13.66 C 35.4000 %
2574 06-08-2017 05:00:00 13.86 C 31.2000 %
2575 06-08-2017 06:00:00 12.22 C 35.8000 %
Sensor: Nr:Datum:Temp:Feuchte:
Aussen-T/F 2576 06-08-2017 07:00:00 12.7 C 37.8000 %
2577 06-08-2017 08:00:00 13.32 C 34.2000 %
2578 06-08-2017 09:00:00 15.8 C 27.0000 %
2579 06-08-2017 10:00:00 18.86 C 20.0000 %
2580 06-08-2017 11:00:00 20.8 C 20.0000 %
2581 06-08-2017 12:00:00 19.82 C 20.0000 %
2582 06-08-2017 13:00:00 20.56 C 20.0000 %
2583 06-08-2017 14:00:00 22.46 C 20.0000 %
2584 06-08-2017 15:00:00 24.76 C 20.0000 %
2585 06-08-2017 16:00:00 25.54 C 20.0000 %
2586 06-08-2017 17:00:00 27.68 C 20.0000 %
2587 06-08-2017 18:00:00 34.46 C 20.0000 %
2588 06-08-2017 19:00:00 24.28 C 20.0000 %
2589 06-08-2017 20:00:00 19.1 C 20.0000 %
2590 06-08-2017 21:00:00 15.78 C 20.0000 %
2591 06-08-2017 22:00:00 14.46 C 20.0000 %
2592 06-08-2017 23:00:00 13.06 C 20.4000 %
2593 07-08-2017 00:00:00 12.1 C 24.2000 %
2594 07-08-2017 01:00:00 11.48 C 28.4000 %
2595 07-08-2017 02:00:00 11.02 C 32.2000 %
2596 07-08-2017 03:00:00 10.52 C 35.4000 %
2597 07-08-2017 04:00:00 10.06 C 37.2000 %
2598 07-08-2017 05:00:00 9.8 C 39.8000 %
2599 07-08-2017 06:00:00 9.76 C 40.0000 %
2600 07-08-2017 07:00:00 10.14 C 40.8000 %
Sensor: Nr:Datum:Temp:Feuchte:
Aussen-T/F 2601 07-08-2017 08:00:00 11.04 C 40.2000 %
2602 07-08-2017 09:00:00 12.84 C 36.4000 %
2603 07-08-2017 10:00:00 15.38 C 26.4000 %
2604 07-08-2017 11:00:00 19.28 C 20.0000 %
2605 07-08-2017 12:00:00 20.98 C 20.0000 %
2606 07-08-2017 13:00:00 22.94 C 20.0000 %
2607 07-08-2017 14:00:00 24.88 C 20.0000 %
2608 07-08-2017 15:00:00 27.28 C 20.0000 %
2609 07-08-2017 16:00:00 28.96 C 20.0000 %
2610 07-08-2017 17:00:00 31.3 C 20.0000 %
2611 07-08-2017 18:00:00 34.9 C 20.0000 %
2612 07-08-2017 19:00:00 24.72 C 20.0000 %
2613 07-08-2017 20:00:00 20.74 C 20.0000 %
2614 07-08-2017 21:00:00 17.84 C 20.0000 %
2615 07-08-2017 22:00:00 16.48 C 20.0000 %
2616 07-08-2017 23:00:00 15.98 C 20.0000 %
2617 08-08-2017 00:00:00 15 C 21.6000 %
2618 08-08-2017 01:00:00 14.44 C 25.4000 %
2619 08-08-2017 02:00:00 13.88 C 28.4000 %
2620 08-08-2017 03:00:00 14.04 C 30.2000 %
2621 08-08-2017 04:00:00 14.56 C 30.0000 %
2622 08-08-2017 05:00:00 14.72 C 30.0000 %
2623 08-08-2017 06:00:00 13.68 C 32.8000 %
2624 08-08-2017 07:00:00 14.24 C 35.2000 %
2625 08-08-2017 08:00:00 17.34 C 27.2000 %
Sensor: Nr:Datum:Temp:Feuchte:
Aussen-T/F 2626 08-08-2017 09:00:00 19.26 C 20.4000 %
2627 08-08-2017 10:00:00 20.6 C 20.0000 %
2628 08-08-2017 11:00:00 17.82 C 31.6000 %
2629 08-08-2017 12:00:00 17.98 C 37.0000 %
2630 08-08-2017 13:00:00 18.24 C 37.2000 %
2631 08-08-2017 14:00:00 19.28 C 34.0000 %
2632 08-08-2017 15:00:00 19.12 C 32.6000 %
2633 08-08-2017 16:00:00 22.08 C 26.2000 %
2634 08-08-2017 17:00:00 23.56 C 20.0000 %
2635 08-08-2017 18:00:00 29.46 C 20.0000 %
2636 08-08-2017 19:00:00 23.22 C 20.0000 %
2637 08-08-2017 20:00:00 19.36 C 20.0000 %
2638 08-08-2017 21:00:00 17.66 C 21.4000 %
2639 08-08-2017 22:00:00 15.86 C 29.4000 %
2640 08-08-2017 23:00:00 15.1 C 30.8000 %
2641 09-08-2017 00:00:00 14.1 C 35.4000 %
2642 09-08-2017 01:00:00 14.32 C 31.6000 %
2643 09-08-2017 02:00:00 14.08 C 30.2000 %
2644 09-08-2017 03:00:00 14.68 C 28.6000 %
2645 09-08-2017 04:00:00 15.26 C 20.6000 %
2646 09-08-2017 05:00:00 14.3 C 24.2000 %
2647 09-08-2017 06:00:00 13.36 C 32.0000 %
2648 09-08-2017 07:00:00 14.16 C 31.4000 %
2649 09-08-2017 08:00:00 15.2 C 21.6000 %
2650 09-08-2017 09:00:00 16.62 C 20.0000 %
Sensor: Nr:Datum:Temp:Feuchte:
Aussen-T/F 2651 09-08-2017 10:00:00 18 C 20.0000 %
2652 09-08-2017 11:00:00 19.26 C 20.0000 %
2653 09-08-2017 12:00:00 20.3 C 20.0000 %
2654 09-08-2017 13:00:00 20.48 C 20.0000 %
2655 09-08-2017 14:00:00 22.84 C 20.0000 %
2656 09-08-2017 15:00:00 25.34 C 20.0000 %
2657 09-08-2017 16:00:00 25.36 C 20.0000 %
2658 09-08-2017 17:00:00 24.22 C 20.0000 %
2659 09-08-2017 18:00:00 24.68 C 20.0000 %
2660 09-08-2017 19:00:00 21.98 C 20.0000 %
2661 09-08-2017 20:00:00 19.52 C 20.0000 %
2662 09-08-2017 21:00:00 16.6 C 20.0000 %
2663 09-08-2017 22:00:00 15.32 C 23.8000 %
2664 09-08-2017 23:00:00 15.68 C 26.0000 %
2665 10-08-2017 00:00:00 16.02 C 27.4000 %
2666 10-08-2017 01:00:00 15.66 C 34.6000 %
2667 10-08-2017 02:00:00 15.2 C 40.2000 %
2668 10-08-2017 03:00:00 15.14 C 41.2000 %
2669 10-08-2017 04:00:00 15.04 C 43.4000 %
2670 10-08-2017 05:00:00 14.96 C 47.8000 %
2671 10-08-2017 06:00:00 14.92 C 50.4000 %
2672 10-08-2017 07:00:00 15.08 C 52.2000 %
2673 10-08-2017 08:00:00 15.1 C 53.0000 %
2674 10-08-2017 09:00:00 15.56 C 53.2000 %
2675 10-08-2017 10:00:00 15.94 C 49.0000 %
Sensor: Nr:Datum:Temp:Feuchte:
Aussen-T/F 2676 10-08-2017 11:00:00 16.36 C 46.6000 %
2677 10-08-2017 12:00:00 16.62 C 44.0000 %
2678 10-08-2017 13:00:00 16.62 C 42.6000 %
2679 10-08-2017 14:00:00 15.92 C 41.6000 %
2680 10-08-2017 15:00:00 15.78 C 42.2000 %
2681 10-08-2017 16:00:00 15.72 C 44.0000 %
2682 10-08-2017 17:00:00 15.6 C 41.4000 %
2683 10-08-2017 18:00:00 15.02 C 44.8000 %
2684 10-08-2017 19:00:00 14.9 C 51.4000 %
2685 10-08-2017 20:00:00 14.48 C 58.2000 %
2686 10-08-2017 21:00:00 14.34 C 63.2000 %
2687 10-08-2017 22:00:00 14.26 C 64.0000 %
2688 10-08-2017 23:00:00 14.16 C 65.6000 %
2689 11-08-2017 00:00:00 14.24 C 66.0000 %
2690 11-08-2017 01:00:00 14.2 C 65.2000 %
2691 11-08-2017 02:00:00 14.24 C 65.0000 %
2692 11-08-2017 03:00:00 14.1 C 63.6000 %
2693 11-08-2017 04:00:00 13.98 C 62.8000 %
2694 11-08-2017 05:00:00 14.1 C 63.0000 %
2695 11-08-2017 06:00:00 14.14 C 62.8000 %
2696 11-08-2017 07:00:00 14.14 C 62.0000 %
2697 11-08-2017 08:00:00 14.3 C 60.6000 %
2698 11-08-2017 09:00:00 14.42 C 57.6000 %
2699 11-08-2017 10:00:00 15.26 C 47.0000 %
2700 11-08-2017 11:00:00 15.48 C 39.0000 %
Sensor: Nr:Datum:Temp:Feuchte:
Aussen-T/F 2701 11-08-2017 12:00:00 15.52 C 35.2000 %
2702 11-08-2017 13:00:00 15.8 C 34.0000 %
2703 11-08-2017 14:00:00 16.46 C 29.8000 %
2704 11-08-2017 15:00:00 16.46 C 23.8000 %
2705 11-08-2017 16:00:00 15.58 C 31.0000 %
2706 11-08-2017 17:00:00 15.26 C 36.8000 %
2707 11-08-2017 18:00:00 14.76 C 41.6000 %
2708 11-08-2017 19:00:00 14.52 C 48.0000 %
2709 11-08-2017 20:00:00 14.16 C 52.2000 %
2710 11-08-2017 21:00:00 13.94 C 59.8000 %
2711 11-08-2017 22:00:00 13.88 C 64.2000 %
2712 11-08-2017 23:00:00 13.98 C 65.4000 %
2713 12-08-2017 00:00:00 13.74 C 65.8000 %
2714 12-08-2017 01:00:00 14 C 65.8000 %
2715 12-08-2017 02:00:00 13.84 C 65.6000 %
2716 12-08-2017 03:00:00 13.84 C 66.0000 %
2717 12-08-2017 04:00:00 13.84 C 65.2000 %
2718 12-08-2017 05:00:00 13.72 C 65.0000 %
2719 12-08-2017 06:00:00 13.5 C 64.2000 %
2720 12-08-2017 07:00:00 13.22 C 63.0000 %
2721 12-08-2017 08:00:00 13.34 C 56.2000 %
2722 12-08-2017 09:00:00 14.44 C 35.8000 %
2723 12-08-2017 10:00:00 15.28 C 21.6000 %
2724 12-08-2017 11:00:00 15.82 C 21.2000 %
2725 12-08-2017 12:00:00 15.52 C 24.4000 %
Sensor: Nr:Datum:Temp:Feuchte:
Aussen-T/F 2726 12-08-2017 13:00:00 16.72 C 20.0000 %
2727 12-08-2017 14:00:00 16.6 C 20.8000 %
2728 12-08-2017 15:00:00 16.68 C 23.4000 %
2729 12-08-2017 16:00:00 16.46 C 27.8000 %
2730 12-08-2017 17:00:00 17.24 C 25.0000 %
2731 12-08-2017 18:00:00 17.28 C 22.4000 %
2732 12-08-2017 19:00:00 17.18 C 22.8000 %
2733 12-08-2017 20:00:00 16.56 C 27.0000 %
2734 12-08-2017 21:00:00 16.58 C 27.8000 %
2735 12-08-2017 22:00:00 15.98 C 33.4000 %
2736 12-08-2017 23:00:00 15.94 C 36.4000 %
2737 13-08-2017 00:00:00 15.84 C 38.2000 %
2738 13-08-2017 01:00:00 16.06 C 37.6000 %
2739 13-08-2017 02:00:00 16.2 C 36.2000 %
2740 13-08-2017 03:00:00 15.98 C 37.6000 %
2741 13-08-2017 04:00:00 15.64 C 41.0000 %
2742 13-08-2017 05:00:00 15.46 C 43.8000 %
2743 13-08-2017 06:00:00 15.06 C 47.6000 %
2744 13-08-2017 07:00:00 15.92 C 46.2000 %
2745 13-08-2017 08:00:00 16.9 C 30.4000 %
2746 13-08-2017 09:00:00 18.72 C 20.0000 %
2747 13-08-2017 10:00:00 18.38 C 20.0000 %
2748 13-08-2017 11:00:00 19.88 C 20.0000 %
2749 13-08-2017 12:00:00 21.36 C 20.0000 %
2750 13-08-2017 13:00:00 21.7 C 20.0000 %
Sensor: Nr:Datum:Temp:Feuchte:
Aussen-T/F 2751 13-08-2017 14:00:00 22.96 C 20.0000 %
2752 13-08-2017 15:00:00 24.32 C 20.0000 %
2753 13-08-2017 16:00:00 23.76 C 20.0000 %
2754 13-08-2017 17:00:00 24.92 C 20.0000 %
2755 13-08-2017 18:00:00 24.04 C 20.0000 %
2756 13-08-2017 19:00:00 19.98 C 20.0000 %
2757 13-08-2017 20:00:00 18.5 C 20.4000 %
2758 13-08-2017 21:00:00 16.46 C 24.4000 %
2759 13-08-2017 22:00:00 14.84 C 30.2000 %
2760 13-08-2017 23:00:00 13.74 C 36.0000 %
2761 14-08-2017 00:00:00 13.1 C 38.8000 %
2762 14-08-2017 01:00:00 12.52 C 41.4000 %
2763 14-08-2017 02:00:00 11.96 C 44.0000 %
2764 14-08-2017 03:00:00 11.6 C 45.8000 %
2765 14-08-2017 04:00:00 11.28 C 48.4000 %
2766 14-08-2017 05:00:00 11.52 C 51.2000 %
2767 14-08-2017 06:00:00 12.12 C 54.4000 %
2768 14-08-2017 07:00:00 12.88 C 56.4000 %
2769 14-08-2017 08:00:00 13.72 C 49.4000 %
2770 14-08-2017 09:00:00 14.22 C 41.8000 %
2771 14-08-2017 10:00:00 16.1 C 37.8000 %
2772 14-08-2017 11:00:00 19.74 C 23.4000 %
2773 14-08-2017 12:00:00 21.74 C 20.0000 %
2774 14-08-2017 13:00:00 23.3 C 20.0000 %
2775 14-08-2017 14:00:00 25.04 C 20.0000 %
Sensor: Nr:Datum:Temp:Feuchte:
Aussen-T/F 2776 14-08-2017 15:00:00 27.28 C 20.0000 %
2777 14-08-2017 16:00:00 27.68 C 20.0000 %
2778 14-08-2017 17:00:00 27.32 C 20.0000 %
2779 14-08-2017 18:00:00 31.46 C 20.0000 %
2780 14-08-2017 19:00:00 24.22 C 20.0000 %
2781 14-08-2017 20:00:00 20.78 C 23.4000 %
2782 14-08-2017 21:00:00 19.6 C 28.6000 %
2783 14-08-2017 22:00:00 18.72 C 30.8000 %
2784 14-08-2017 23:00:00 17.58 C 35.4000 %
2785 15-08-2017 00:00:00 16.5 C 38.8000 %
2786 15-08-2017 01:00:00 15.74 C 41.0000 %
2787 15-08-2017 02:00:00 15.32 C 45.2000 %
2788 15-08-2017 03:00:00 15.36 C 48.8000 %
2789 15-08-2017 04:00:00 14.88 C 51.0000 %
2790 15-08-2017 05:00:00 14.96 C 59.4000 %
2791 15-08-2017 06:00:00 14.64 C 62.2000 %
2792 15-08-2017 07:00:00 15.44 C 64.4000 %
2793 15-08-2017 08:00:00 16.72 C 60.8000 %
2794 15-08-2017 09:00:00 18.56 C 43.6000 %
2795 15-08-2017 10:00:00 19.98 C 29.6000 %
2796 15-08-2017 11:00:00 20.46 C 28.0000 %
2797 15-08-2017 12:00:00 20.28 C 30.4000 %
2798 15-08-2017 13:00:00 20.9 C 34.2000 %
2799 15-08-2017 14:00:00 22.94 C 26.6000 %
2800 15-08-2017 15:00:00 22.86 C 24.6000 %
Sensor: Nr:Datum:Temp:Feuchte:
Aussen-T/F 2801 15-08-2017 16:00:00 23.24 C 24.8000 %
2802 15-08-2017 17:00:00 23.28 C 23.6000 %
2803 15-08-2017 18:00:00 23 C 22.8000 %
2804 15-08-2017 19:00:00 21.26 C 25.0000 %
2805 15-08-2017 20:00:00 19.78 C 30.2000 %
2806 15-08-2017 21:00:00 18.72 C 34.8000 %
2807 15-08-2017 22:00:00 18.56 C 37.0000 %
2808 15-08-2017 23:00:00 18.74 C 38.0000 %
2809 16-08-2017 00:00:00 18.32 C 44.0000 %
2810 16-08-2017 01:00:00 17.74 C 49.8000 %
2811 16-08-2017 02:00:00 17.28 C 57.8000 %
2812 16-08-2017 03:00:00 17.24 C 62.6000 %
2813 16-08-2017 04:00:00 16.92 C 63.4000 %
2814 16-08-2017 05:00:00 16.82 C 63.0000 %
2815 16-08-2017 06:00:00 16.78 C 63.0000 %
2816 16-08-2017 07:00:00 17 C 61.4000 %
2817 16-08-2017 08:00:00 16.98 C 58.2000 %
2818 16-08-2017 09:00:00 19 C 54.0000 %
2819 16-08-2017 10:00:00 20.62 C 26.4000 %
2820 16-08-2017 11:00:00 21.92 C 20.0000 %
2821 16-08-2017 12:00:00 21.52 C 20.0000 %
2822 16-08-2017 13:00:00 21.68 C 20.0000 %
2823 16-08-2017 14:00:00 23.26 C 20.0000 %
2824 16-08-2017 15:00:00 25 C 20.0000 %
2825 16-08-2017 16:00:00 25.38 C 20.0000 %
Sensor: Nr:Datum:Temp:Feuchte:
Aussen-T/F 2826 16-08-2017 17:00:00 23.88 C 20.0000 %
2827 16-08-2017 18:00:00 24.14 C 20.0000 %
2828 16-08-2017 19:00:00 23.06 C 20.0000 %
2829 16-08-2017 20:00:00 20.08 C 22.8000 %
2830 16-08-2017 21:00:00 18.54 C 26.6000 %
2831 16-08-2017 22:00:00 18.66 C 30.0000 %
2832 16-08-2017 23:00:00 17.5 C 34.4000 %
2833 17-08-2017 00:00:00 16.74 C 38.6000 %
2834 17-08-2017 01:00:00 16.04 C 40.2000 %
2835 17-08-2017 02:00:00 15.42 C 42.8000 %
2836 17-08-2017 03:00:00 14.96 C 45.6000 %
2837 17-08-2017 04:00:00 15.22 C 53.0000 %
2838 17-08-2017 05:00:00 15.62 C 56.8000 %
2839 17-08-2017 06:00:00 15.74 C 58.4000 %
2840 17-08-2017 07:00:00 15.98 C 57.0000 %
2841 17-08-2017 08:00:00 16.78 C 50.2000 %
2842 17-08-2017 09:00:00 18.34 C 36.0000 %
2843 17-08-2017 10:00:00 20.7 C 21.6000 %
2844 17-08-2017 11:00:00 23.38 C 20.0000 %
2845 17-08-2017 12:00:00 24.64 C 20.0000 %
2846 17-08-2017 13:00:00 25.66 C 20.0000 %
2847 17-08-2017 14:00:00 26.06 C 20.0000 %
2848 17-08-2017 15:00:00 23.54 C 20.0000 %
2849 17-08-2017 16:00:00 23.86 C 20.0000 %
2850 17-08-2017 17:00:00 22.46 C 20.0000 %
Sensor: Nr:Datum:Temp:Feuchte:
Aussen-T/F 2851 17-08-2017 18:00:00 22.3 C 20.0000 %
2852 17-08-2017 19:00:00 21.7 C 20.0000 %
2853 17-08-2017 20:00:00 20.58 C 21.6000 %
2854 17-08-2017 21:00:00 19.04 C 27.8000 %
2855 17-08-2017 22:00:00 17.74 C 34.0000 %
2856 17-08-2017 23:00:00 17.22 C 37.2000 %
2857 18-08-2017 00:00:00 17.56 C 38.6000 %
2858 18-08-2017 01:00:00 17.34 C 40.0000 %
2859 18-08-2017 02:00:00 17.44 C 42.2000 %
2860 18-08-2017 03:00:00 17.46 C 44.8000 %
2861 18-08-2017 04:00:00 17.54 C 46.6000 %
2862 18-08-2017 05:00:00 17.86 C 49.8000 %
2863 18-08-2017 06:00:00 17.92 C 46.4000 %
2864 18-08-2017 07:00:00 18.62 C 40.2000 %
2865 18-08-2017 08:00:00 19.96 C 29.2000 %
2866 18-08-2017 09:00:00 20.44 C 24.0000 %
2867 18-08-2017 10:00:00 20.64 C 20.0000 %
2868 18-08-2017 11:00:00 20.56 C 20.0000 %
2869 18-08-2017 12:00:00 20.66 C 22.4000 %
2870 18-08-2017 13:00:00 20.12 C 32.6000 %
2871 18-08-2017 14:00:00 19.28 C 36.4000 %
2872 18-08-2017 15:00:00 18.28 C 42.2000 %
2873 18-08-2017 16:00:00 17.96 C 49.2000 %
2874 18-08-2017 17:00:00 17.88 C 57.2000 %
2875 18-08-2017 18:00:00 17.54 C 58.8000 %
Sensor: Nr:Datum:Temp:Feuchte:
Aussen-T/F 2876 18-08-2017 19:00:00 17.12 C 58.6000 %
2877 18-08-2017 20:00:00 16.74 C 57.8000 %
2878 18-08-2017 21:00:00 16.12 C 61.8000 %
2879 18-08-2017 22:00:00 15.84 C 64.4000 %
2880 18-08-2017 23:00:00 15.3 C 61.2000 %
2881 19-08-2017 00:00:00 13.8 C 60.6000 %
2882 19-08-2017 01:00:00 13 C 63.8000 %
2883 19-08-2017 02:00:00 12.38 C 64.0000 %
2884 19-08-2017 03:00:00 11.78 C 64.4000 %
2885 19-08-2017 04:00:00 11.4 C 65.8000 %
2886 19-08-2017 05:00:00 11.08 C 66.2000 %
2887 19-08-2017 06:00:00 11.02 C 67.2000 %
2888 19-08-2017 07:00:00 11.1 C 66.2000 %
2889 19-08-2017 08:00:00 11.42 C 66.4000 %
2890 19-08-2017 09:00:00 12.3 C 61.4000 %
2891 19-08-2017 10:00:00 14.4 C 35.6000 %
2892 19-08-2017 11:00:00 16.98 C 20.0000 %
2893 19-08-2017 12:00:00 17.54 C 20.0000 %
2894 19-08-2017 13:00:00 18.52 C 20.0000 %
2895 19-08-2017 14:00:00 19.64 C 20.0000 %
2896 19-08-2017 15:00:00 19.52 C 20.0000 %
2897 19-08-2017 16:00:00 18.54 C 20.0000 %
2898 19-08-2017 17:00:00 16.34 C 23.0000 %
2899 19-08-2017 18:00:00 15.68 C 33.2000 %
2900 19-08-2017 19:00:00 15.24 C 34.0000 %
Sensor: Nr:Datum:Temp:Feuchte:
Aussen-T/F 2901 19-08-2017 20:00:00 14.62 C 34.2000 %
2902 19-08-2017 21:00:00 14.48 C 35.6000 %
2903 19-08-2017 22:00:00 13.72 C 37.8000 %
2904 19-08-2017 23:00:00 12.88 C 41.4000 %
2905 20-08-2017 00:00:00 12.88 C 43.0000 %
2906 20-08-2017 01:00:00 12.34 C 43.4000 %
2907 20-08-2017 02:00:00 12.54 C 42.6000 %
2908 20-08-2017 03:00:00 11.32 C 43.8000 %
2909 20-08-2017 04:00:00 11.06 C 47.8000 %
2910 20-08-2017 05:00:00 10.86 C 47.4000 %
2911 20-08-2017 06:00:00 11.08 C 47.6000 %
2912 20-08-2017 07:00:00 11.6 C 46.0000 %
2913 20-08-2017 08:00:00 12.14 C 41.8000 %
2914 20-08-2017 09:00:00 13.34 C 32.2000 %
2915 20-08-2017 10:00:00 15.18 C 20.0000 %
2916 20-08-2017 11:00:00 17.6 C 20.0000 %
2917 20-08-2017 12:00:00 17.74 C 20.0000 %
2918 20-08-2017 13:00:00 18.06 C 20.0000 %
2919 20-08-2017 14:00:00 18.66 C 20.0000 %
2920 20-08-2017 15:00:00 17.5 C 20.0000 %
2921 20-08-2017 16:00:00 20.04 C 20.0000 %
2922 20-08-2017 17:00:00 19.72 C 20.0000 %
2923 20-08-2017 18:00:00 21.18 C 20.0000 %
2924 20-08-2017 19:00:00 17.44 C 20.0000 %
2925 20-08-2017 20:00:00 15.18 C 20.0000 %
Sensor: Nr:Datum:Temp:Feuchte:
Aussen-T/F 2926 20-08-2017 21:00:00 14.24 C 25.2000 %
2927 20-08-2017 22:00:00 13.88 C 28.0000 %
2928 20-08-2017 23:00:00 12.62 C 31.4000 %
2929 21-08-2017 00:00:00 12.2 C 36.4000 %
2930 21-08-2017 01:00:00 12.36 C 37.4000 %
2931 21-08-2017 02:00:00 12.28 C 36.4000 %
2932 21-08-2017 03:00:00 12.1 C 37.0000 %
2933 21-08-2017 04:00:00 11.92 C 38.2000 %
2934 21-08-2017 05:00:00 11.68 C 39.8000 %
2935 21-08-2017 06:00:00 11.16 C 40.4000 %
2936 21-08-2017 07:00:00 11.4 C 42.2000 %
2937 21-08-2017 08:00:00 13.22 C 39.8000 %
2938 21-08-2017 09:00:00 13.46 C 33.8000 %
2939 21-08-2017 10:00:00 14.88 C 27.6000 %
2940 21-08-2017 11:00:00 17.6 C 20.0000 %
2941 21-08-2017 12:00:00 19.7 C 20.0000 %
2942 21-08-2017 13:00:00 19.96 C 20.0000 %
2943 21-08-2017 14:00:00 21.14 C 20.0000 %
2944 21-08-2017 15:00:00 23.76 C 20.0000 %
2945 21-08-2017 16:00:00 23.86 C 20.0000 %
2946 21-08-2017 17:00:00 26.94 C 20.0000 %
2947 21-08-2017 18:00:00 25.98 C 20.0000 %
2948 21-08-2017 19:00:00 19.04 C 20.0000 %
2949 21-08-2017 20:00:00 16.64 C 20.4000 %
2950 21-08-2017 21:00:00 14.82 C 25.2000 %
Sensor: Nr:Datum:Temp:Feuchte:
Aussen-T/F 2951 21-08-2017 22:00:00 13.74 C 27.2000 %
2952 21-08-2017 23:00:00 12.74 C 31.6000 %
2953 22-08-2017 00:00:00 11.9 C 36.0000 %
2954 22-08-2017 01:00:00 11.34 C 39.4000 %
2955 22-08-2017 02:00:00 10.92 C 42.2000 %
2956 22-08-2017 03:00:00 10.52 C 44.0000 %
2957 22-08-2017 04:00:00 10.18 C 45.8000 %
2958 22-08-2017 05:00:00 9.94 C 49.6000 %
2959 22-08-2017 06:00:00 10.66 C 51.8000 %
2960 22-08-2017 07:00:00 11.14 C 48.6000 %
2961 22-08-2017 08:00:00 12 C 45.2000 %
2962 22-08-2017 09:00:00 12.94 C 38.8000 %
2963 22-08-2017 10:00:00 14.02 C 33.2000 %
2964 22-08-2017 11:00:00 16.7 C 24.6000 %
2965 22-08-2017 12:00:00 18.32 C 23.2000 %
2966 22-08-2017 13:00:00 19.88 C 20.0000 %
2967 22-08-2017 14:00:00 20.06 C 20.0000 %
2968 22-08-2017 15:00:00 23.94 C 20.0000 %
2969 22-08-2017 16:00:00 25.6 C 20.0000 %
2970 22-08-2017 17:00:00 26.38 C 20.0000 %
2971 22-08-2017 18:00:00 25.58 C 20.0000 %
2972 22-08-2017 19:00:00 20.96 C 20.0000 %
2973 22-08-2017 20:00:00 17.5 C 20.2000 %
2974 22-08-2017 21:00:00 16.18 C 21.4000 %
2975 22-08-2017 22:00:00 15.24 C 27.4000 %
Sensor: Nr:Datum:Temp:Feuchte:
Aussen-T/F 2976 22-08-2017 23:00:00 14.22 C 33.0000 %
2977 23-08-2017 00:00:00 13.7 C 35.2000 %
2978 23-08-2017 01:00:00 13.4 C 36.4000 %
2979 23-08-2017 02:00:00 12.76 C 39.2000 %
2980 23-08-2017 03:00:00 12.36 C 41.4000 %
2981 23-08-2017 04:00:00 12.06 C 42.2000 %
2982 23-08-2017 05:00:00 11.62 C 44.6000 %
2983 23-08-2017 06:00:00 11.42 C 46.0000 %
2984 23-08-2017 07:00:00 12.3 C 49.8000 %
2985 23-08-2017 08:00:00 14.06 C 45.0000 %
2986 23-08-2017 09:00:00 14.02 C 39.4000 %
2987 23-08-2017 10:00:00 15.48 C 32.4000 %
2988 23-08-2017 11:00:00 18.62 C 21.6000 %
2989 23-08-2017 12:00:00 19.1 C 20.2000 %
2990 23-08-2017 13:00:00 20.52 C 20.0000 %
2991 23-08-2017 14:00:00 23.14 C 20.0000 %
2992 23-08-2017 15:00:00 25.68 C 20.0000 %
2993 23-08-2017 16:00:00 27.56 C 20.0000 %
2994 23-08-2017 17:00:00 29.86 C 20.0000 %
2995 23-08-2017 18:00:00 27.88 C 20.0000 %
2996 23-08-2017 19:00:00 21.88 C 20.0000 %
2997 23-08-2017 20:00:00 19.5 C 21.0000 %
2998 23-08-2017 21:00:00 18.54 C 25.4000 %
2999 23-08-2017 22:00:00 17.8 C 29.6000 %
3000 23-08-2017 23:00:00 16.96 C 32.0000 %
Sensor: Nr:Datum:Temp:Feuchte:
Aussen-T/F 3001 24-08-2017 00:00:00 16.36 C 35.0000 %
3002 24-08-2017 01:00:00 15.96 C 36.6000 %
3003 24-08-2017 02:00:00 16.24 C 38.6000 %
3004 24-08-2017 03:00:00 17.7 C 33.4000 %
3005 24-08-2017 04:00:00 17.88 C 32.4000 %
3006 24-08-2017 05:00:00 17.82 C 34.8000 %
3007 24-08-2017 06:00:00 17.74 C 36.8000 %
3008 24-08-2017 07:00:00 17.9 C 31.2000 %
3009 24-08-2017 08:00:00 18.5 C 24.8000 %
3010 24-08-2017 09:00:00 19 C 20.2000 %
3011 24-08-2017 10:00:00 19.86 C 20.0000 %
3012 24-08-2017 11:00:00 21.1 C 20.0000 %
3013 24-08-2017 12:00:00 21.42 C 20.0000 %
3014 24-08-2017 13:00:00 22.04 C 20.0000 %
3015 24-08-2017 14:00:00 22.44 C 20.0000 %
3016 24-08-2017 15:00:00 26.4 C 20.0000 %
3017 24-08-2017 16:00:00 25.74 C 20.0000 %
3018 24-08-2017 17:00:00 28.9 C 20.0000 %
3019 24-08-2017 18:00:00 26.06 C 20.0000 %
3020 24-08-2017 19:00:00 21.58 C 20.0000 %
3021 24-08-2017 20:00:00 18.6 C 20.2000 %
3022 24-08-2017 21:00:00 17.6 C 22.0000 %
3023 24-08-2017 22:00:00 16 C 28.8000 %
3024 24-08-2017 23:00:00 14.94 C 33.8000 %
3025 25-08-2017 00:00:00 14.4 C 36.6000 %
Sensor: Nr:Datum:Temp:Feuchte:
Aussen-T/F 3026 25-08-2017 01:00:00 14.16 C 38.0000 %
3027 25-08-2017 02:00:00 13.86 C 40.2000 %
3028 25-08-2017 03:00:00 13.62 C 40.8000 %
3029 25-08-2017 04:00:00 13.18 C 41.6000 %
3030 25-08-2017 05:00:00 13.22 C 43.0000 %
3031 25-08-2017 06:00:00 13.56 C 44.6000 %
3032 25-08-2017 07:00:00 14.5 C 42.6000 %
3033 25-08-2017 08:00:00 15.74 C 38.2000 %
3034 25-08-2017 09:00:00 16.7 C 32.2000 %
3035 25-08-2017 10:00:00 18.32 C 25.2000 %
3036 25-08-2017 11:00:00 20.86 C 20.0000 %
3037 25-08-2017 12:00:00 21.56 C 20.0000 %
3038 25-08-2017 13:00:00 23.08 C 20.0000 %
3039 25-08-2017 14:00:00 25.1 C 20.0000 %
3040 25-08-2017 15:00:00 26.34 C 20.0000 %
3041 25-08-2017 16:00:00 24.72 C 20.0000 %
3042 25-08-2017 17:00:00 21.86 C 26.0000 %
3043 25-08-2017 18:00:00 20.66 C 41.4000 %
3044 25-08-2017 19:00:00 20.52 C 42.8000 %
3045 25-08-2017 20:00:00 18.96 C 50.4000 %
3046 25-08-2017 21:00:00 18.08 C 60.6000 %
3047 25-08-2017 22:00:00 18.16 C 66.4000 %
3048 25-08-2017 23:00:00 18.24 C 66.4000 %
3049 26-08-2017 00:00:00 17.6 C 65.2000 %
3050 26-08-2017 01:00:00 17.24 C 64.8000 %
Sensor: Nr:Datum:Temp:Feuchte:
Aussen-T/F 3051 26-08-2017 02:00:00 17.66 C 66.6000 %
3052 26-08-2017 03:00:00 18 C 64.2000 %
3053 26-08-2017 04:00:00 18.2 C 63.6000 %
3054 26-08-2017 05:00:00 17.96 C 62.8000 %
3055 26-08-2017 06:00:00 17.66 C 62.4000 %
3056 26-08-2017 07:00:00 17.14 C 62.6000 %
3057 26-08-2017 08:00:00 17.74 C 64.0000 %
3058 26-08-2017 09:00:00 18.74 C 63.8000 %
3059 26-08-2017 10:00:00 19.48 C 61.0000 %
3060 26-08-2017 11:00:00 20.48 C 49.6000 %
3061 26-08-2017 12:00:00 21.78 C 35.8000 %
3062 26-08-2017 13:00:00 24.36 C 24.0000 %
3063 26-08-2017 14:00:00 25.72 C 20.2000 %
3064 26-08-2017 15:00:00 27.08 C 20.0000 %
3065 26-08-2017 16:00:00 27.04 C 20.0000 %
3066 26-08-2017 17:00:00 27.16 C 20.0000 %
3067 26-08-2017 18:00:00 27.06 C 20.0000 %
3068 26-08-2017 19:00:00 23.02 C 20.4000 %
3069 26-08-2017 20:00:00 20.9 C 27.8000 %
3070 26-08-2017 21:00:00 19.98 C 33.8000 %
3071 26-08-2017 22:00:00 19.84 C 35.0000 %
3072 26-08-2017 23:00:00 19.48 C 36.0000 %
3073 27-08-2017 00:00:00 18.04 C 37.8000 %
3074 27-08-2017 01:00:00 17.26 C 41.4000 %
3075 27-08-2017 02:00:00 16.76 C 47.0000 %
Sensor: Nr:Datum:Temp:Feuchte:
Aussen-T/F 3076 27-08-2017 03:00:00 16.76 C 49.0000 %
3077 27-08-2017 04:00:00 16.3 C 47.4000 %
3078 27-08-2017 05:00:00 15.82 C 50.2000 %
3079 27-08-2017 06:00:00 16.06 C 57.2000 %
3080 27-08-2017 07:00:00 16.54 C 59.8000 %
3081 27-08-2017 08:00:00 17.12 C 55.6000 %
3082 27-08-2017 09:00:00 17.88 C 44.6000 %
3083 27-08-2017 10:00:00 19.28 C 32.8000 %
3084 27-08-2017 11:00:00 22.02 C 20.0000 %
3085 27-08-2017 12:00:00 22.04 C 20.0000 %
3086 27-08-2017 13:00:00 22.4 C 20.0000 %
3087 27-08-2017 14:00:00 24.44 C 20.0000 %
3088 27-08-2017 15:00:00 26.22 C 20.0000 %
3089 27-08-2017 16:00:00 25.18 C 20.0000 %
3090 27-08-2017 17:00:00 22.98 C 20.0000 %
3091 27-08-2017 18:00:00 22.82 C 20.0000 %
3092 27-08-2017 19:00:00 20.6 C 23.8000 %
3093 27-08-2017 20:00:00 19.5 C 27.4000 %
3094 27-08-2017 21:00:00 19.04 C 29.6000 %
3095 27-08-2017 22:00:00 18.64 C 31.6000 %
3096 27-08-2017 23:00:00 17.44 C 33.4000 %
3097 28-08-2017 00:00:00 16.78 C 35.4000 %
3098 28-08-2017 01:00:00 15.96 C 39.0000 %
3099 28-08-2017 02:00:00 15.66 C 40.6000 %
3100 28-08-2017 03:00:00 15.54 C 39.4000 %
Sensor: Nr:Datum:Temp:Feuchte:
Aussen-T/F 3101 28-08-2017 04:00:00 15.02 C 36.6000 %
3102 28-08-2017 05:00:00 14.78 C 36.2000 %
3103 28-08-2017 06:00:00 14.28 C 37.2000 %
3104 28-08-2017 07:00:00 14.5 C 38.0000 %
3105 28-08-2017 08:00:00 15.46 C 36.8000 %
3106 28-08-2017 09:00:00 16.36 C 35.4000 %
3107 28-08-2017 10:00:00 16.6 C 35.0000 %
3108 28-08-2017 11:00:00 18.42 C 27.0000 %
3109 28-08-2017 12:00:00 20.22 C 23.8000 %
3110 28-08-2017 13:00:00 21.96 C 20.6000 %
3111 28-08-2017 14:00:00 23.68 C 20.0000 %
3112 28-08-2017 15:00:00 26.04 C 20.0000 %
3113 28-08-2017 16:00:00 27.78 C 20.0000 %
3114 28-08-2017 17:00:00 31.28 C 20.0000 %
3115 28-08-2017 18:00:00 29.7 C 20.0000 %
3116 28-08-2017 19:00:00 22.32 C 20.8000 %
3117 28-08-2017 20:00:00 20.12 C 26.0000 %
3118 28-08-2017 21:00:00 19.16 C 29.0000 %
3119 28-08-2017 22:00:00 18.32 C 31.8000 %
3120 28-08-2017 23:00:00 17.52 C 35.4000 %
3121 29-08-2017 00:00:00 16.78 C 38.4000 %
3122 29-08-2017 01:00:00 16.36 C 40.4000 %
3123 29-08-2017 02:00:00 15.9 C 41.8000 %
3124 29-08-2017 03:00:00 15.34 C 45.0000 %
3125 29-08-2017 04:00:00 14.9 C 47.8000 %
Sensor: Nr:Datum:Temp:Feuchte:
Aussen-T/F 3126 29-08-2017 05:00:00 14.46 C 49.8000 %
3127 29-08-2017 06:00:00 14.28 C 54.0000 %
3128 29-08-2017 07:00:00 14.52 C 57.6000 %
3129 29-08-2017 08:00:00 15.58 C 56.6000 %
3130 29-08-2017 09:00:00 16.16 C 53.8000 %
3131 29-08-2017 10:00:00 17.78 C 48.4000 %
3132 29-08-2017 11:00:00 20.38 C 25.4000 %
3133 29-08-2017 12:00:00 21.4 C 26.6000 %
3134 29-08-2017 13:00:00 22.8 C 20.6000 %
3135 29-08-2017 14:00:00 24.68 C 20.0000 %
3136 29-08-2017 15:00:00 27 C 20.0000 %
3137 29-08-2017 16:00:00 28.36 C 20.0000 %
3138 29-08-2017 17:00:00 32.14 C 20.0000 %
3139 29-08-2017 18:00:00 31.8 C 20.0000 %
3140 29-08-2017 19:00:00 23.74 C 20.0000 %
3141 29-08-2017 20:00:00 20.7 C 21.0000 %
3142 29-08-2017 21:00:00 19.58 C 25.8000 %
3143 29-08-2017 22:00:00 18.58 C 31.0000 %
3144 29-08-2017 23:00:00 17.66 C 34.8000 %
3145 30-08-2017 00:00:00 17.06 C 37.2000 %
3146 30-08-2017 01:00:00 16.68 C 39.6000 %
3147 30-08-2017 02:00:00 16.28 C 40.8000 %
3148 30-08-2017 03:00:00 15.94 C 42.2000 %
3149 30-08-2017 04:00:00 15.52 C 45.2000 %
3150 30-08-2017 05:00:00 15.22 C 49.8000 %
Sensor: Nr:Datum:Temp:Feuchte:
Aussen-T/F 3151 30-08-2017 06:00:00 15.04 C 54.4000 %
3152 30-08-2017 07:00:00 15.54 C 60.0000 %
3153 30-08-2017 08:00:00 17.34 C 59.6000 %
3154 30-08-2017 09:00:00 19.1 C 43.6000 %
3155 30-08-2017 10:00:00 21.84 C 24.2000 %
3156 30-08-2017 11:00:00 23.475 C 20.0000 %
3157 30-08-2017 12:00:00 24.64 C 20.0000 %
3158 30-08-2017 13:00:00 26.76667 C 20.0000 %
3159 30-08-2017 14:00:00 28.2 C 20.0000 %
3160 30-08-2017 15:00:00 28.22 C 20.0000 %
3161 30-08-2017 16:00:00 25.52 C 20.0000 %
3162 30-08-2017 17:00:00 25.475 C 20.0000 %
3163 30-08-2017 18:00:00 24.1 C 20.0000 %
3164 30-08-2017 19:00:00 22.725 C 20.2500 %
3165 30-08-2017 20:00:00 21.72 C 22.0000 %
3166 30-08-2017 21:00:00 21.46 C 21.4000 %
3167 30-08-2017 22:00:00 21.9 C 20.0000 %
3168 30-08-2017 23:00:00 21.9 C 20.0000 %
3169 31-08-2017 00:00:00 21.9 C 20.0000 %
3170 31-08-2017 01:00:00 19.98 C 27.2000 %
3171 31-08-2017 02:00:00 19.62 C 28.0000 %
3172 31-08-2017 03:00:00 19.6 C 28.0000 %
3173 31-08-2017 04:00:00 19.6 C 26.4000 %
3174 31-08-2017 05:00:00 19.6 C 26.0000 %
3175 31-08-2017 06:00:00 19.44 C 27.2000 %
Sensor: Nr:Datum:Temp:Feuchte:
Aussen-T/F 3176 31-08-2017 07:00:00 17.54 C 26.4000 %
3177 31-08-2017 08:00:00 15.22 C 40.8000 %
3178 31-08-2017 09:00:00 15.08 C 43.2000 %
3179 31-08-2017 10:00:00 15.34 C 41.4000 %
3180 31-08-2017 11:00:00 16.8 C 28.6000 %
3181 31-08-2017 12:00:00 18.92 C 20.0000 %
3182 31-08-2017 13:00:00 19.52 C 20.0000 %
3183 31-08-2017 14:00:00 17.64 C 20.0000 %
3184 31-08-2017 15:00:00 15.94 C 21.8000 %
3185 31-08-2017 16:00:00 16.34 C 21.4000 %
3186 31-08-2017 17:00:00 17.38 C 20.0000 %
3187 31-08-2017 18:00:00 22.56 C 20.0000 %
3188 31-08-2017 19:00:00 17.08 C 20.0000 %
3189 31-08-2017 20:00:00 14.28 C 25.0000 %
3190 31-08-2017 21:00:00 13.04 C 30.8000 %
3191 31-08-2017 22:00:00 12.38 C 36.2000 %
3192 31-08-2017 23:00:00 12 C 40.6000 %
3193 01-09-2017 00:00:00 11.86 C 41.4000 %
3194 01-09-2017 01:00:00 11.1 C 43.0000 %
3195 01-09-2017 02:00:00 10.56 C 45.2000 %
3196 01-09-2017 03:00:00 10.06 C 48.2000 %
3197 01-09-2017 04:00:00 9.96 C 52.2000 %
3198 01-09-2017 05:00:00 10.42 C 57.8000 %
3199 01-09-2017 06:00:00 10.44 C 57.0000 %
3200 01-09-2017 07:00:00 10.4 C 52.8000 %
Sensor: Nr:Datum:Temp:Feuchte:
Aussen-T/F 3201 01-09-2017 08:00:00 10.98 C 48.0000 %
3202 01-09-2017 09:00:00 12.14 C 41.2000 %
3203 01-09-2017 10:00:00 13.8 C 32.4000 %
3204 01-09-2017 11:00:00 14.32 C 25.8000 %
3205 01-09-2017 12:00:00 15.92 C 21.8000 %
3206 01-09-2017 13:00:00 19.06 C 20.0000 %
3207 01-09-2017 14:00:00 19.72 C 20.0000 %
3208 01-09-2017 15:00:00 18.82 C 20.0000 %
3209 01-09-2017 16:00:00 19.36 C 20.0000 %
3210 01-09-2017 17:00:00 18.8 C 20.0000 %
3211 01-09-2017 18:00:00 20.06 C 20.0000 %
3212 01-09-2017 19:00:00 16.54 C 20.0000 %
3213 01-09-2017 20:00:00 14.42 C 25.2000 %
3214 01-09-2017 21:00:00 13.68 C 28.8000 %
3215 01-09-2017 22:00:00 12.86 C 32.8000 %
3216 01-09-2017 23:00:00 13.12 C 34.6000 %
3217 02-09-2017 00:00:00 13.1 C 35.2000 %
3218 02-09-2017 01:00:00 12.82 C 37.0000 %
3219 02-09-2017 02:00:00 12.26 C 40.0000 %
3220 02-09-2017 03:00:00 12.36 C 43.4000 %
3221 02-09-2017 04:00:00 12.18 C 43.0000 %
3222 02-09-2017 05:00:00 12.02 C 44.0000 %
3223 02-09-2017 06:00:00 11.84 C 47.0000 %
3224 02-09-2017 07:00:00 12.26 C 47.4000 %
3225 02-09-2017 08:00:00 12.44 C 44.6000 %
Sensor: Nr:Datum:Temp:Feuchte:
Aussen-T/F 3226 02-09-2017 09:00:00 13.2 C 44.0000 %
3227 02-09-2017 10:00:00 14.7 C 35.0000 %
3228 02-09-2017 11:00:00 16.86 C 20.0000 %
3229 02-09-2017 12:00:00 17.84 C 20.0000 %
3230 02-09-2017 13:00:00 18.4 C 20.0000 %
3231 02-09-2017 14:00:00 19.06 C 20.0000 %
3232 02-09-2017 15:00:00 19.82 C 20.0000 %
3233 02-09-2017 16:00:00 16.8 C 20.8000 %
3234 02-09-2017 17:00:00 14.7 C 30.0000 %
3235 02-09-2017 18:00:00 18.42 C 22.2000 %
3236 02-09-2017 19:00:00 15.28 C 28.8000 %
3237 02-09-2017 20:00:00 13.8 C 35.6000 %
3238 02-09-2017 21:00:00 13.22 C 39.0000 %
3239 02-09-2017 22:00:00 12.82 C 40.6000 %
3240 02-09-2017 23:00:00 12.14 C 40.0000 %
3241 03-09-2017 00:00:00 11.36 C 41.2000 %
3242 03-09-2017 01:00:00 11 C 42.0000 %
3243 03-09-2017 02:00:00 11 C 42.0000 %
3244 03-09-2017 03:00:00 10.08 C 46.6000 %
3245 03-09-2017 04:00:00 9.4 C 50.0000 %
3246 03-09-2017 05:00:00 9.96 C 50.4000 %
3247 03-09-2017 06:00:00 10.04 C 44.8000 %
3248 03-09-2017 07:00:00 10.1 C 42.4000 %
3249 03-09-2017 08:00:00 10.36 C 39.2000 %
3250 03-09-2017 09:00:00 11.12 C 33.4000 %
Sensor: Nr:Datum:Temp:Feuchte:
Aussen-T/F 3251 03-09-2017 10:00:00 12.7 C 25.2000 %
3252 03-09-2017 11:00:00 14.92 C 20.0000 %
3253 03-09-2017 12:00:00 14.08 C 21.8000 %
3254 03-09-2017 13:00:00 14.98 C 22.6000 %
3255 03-09-2017 14:00:00 16.24 C 20.0000 %
3256 03-09-2017 15:00:00 16.3 C 20.0000 %
3257 03-09-2017 16:00:00 16.3 C 20.0000 %
3258 03-09-2017 17:00:00 16.3 C 20.0000 %
3259 03-09-2017 18:00:00 16.3 C 20.0000 %
3260 03-09-2017 19:00:00 16.3 C 20.0000 %
3261 03-09-2017 20:00:00 14.7 C 21.6000 %
3262 03-09-2017 21:00:00 13.44 C 27.0000 %
3263 03-09-2017 22:00:00 11.72 C 33.4000 %
3264 03-09-2017 23:00:00 11 C 36.6000 %
3265 04-09-2017 00:00:00 10.34 C 40.4000 %
3266 04-09-2017 01:00:00 9.8 C 42.6000 %
3267 04-09-2017 02:00:00 9.44 C 45.2000 %
3268 04-09-2017 03:00:00 9.1 C 47.8000 %
3269 04-09-2017 04:00:00 8.8 C 51.8000 %
3270 04-09-2017 05:00:00 9.1 C 56.6000 %
3271 04-09-2017 06:00:00 9.62 C 59.8000 %
3272 04-09-2017 07:00:00 9.82 C 58.0000 %
3273 04-09-2017 08:00:00 10.26 C 51.6000 %
3274 04-09-2017 09:00:00 11.32 C 44.8000 %
3275 04-09-2017 10:00:00 12.62 C 31.0000 %
Sensor: Nr:Datum:Temp:Feuchte:
Aussen-T/F 3276 04-09-2017 11:00:00 14.76 C 26.6000 %
3277 04-09-2017 12:00:00 17.66 C 20.0000 %
3278 04-09-2017 13:00:00 19.78 C 20.0000 %
3279 04-09-2017 14:00:00 19.18 C 20.0000 %
3280 04-09-2017 15:00:00 19.96 C 20.0000 %
3281 04-09-2017 16:00:00 19.52 C 20.0000 %
3282 04-09-2017 17:00:00 18.68 C 20.0000 %
3283 04-09-2017 18:00:00 17.06 C 20.6000 %
3284 04-09-2017 19:00:00 16.1 C 22.0000 %
3285 04-09-2017 20:00:00 15.76 C 26.2000 %
3286 04-09-2017 21:00:00 15.46 C 29.2000 %
3287 04-09-2017 22:00:00 15.26 C 30.8000 %
3288 04-09-2017 23:00:00 15.2 C 32.0000 %
3289 05-09-2017 00:00:00 15.06 C 31.8000 %
3290 05-09-2017 01:00:00 14.66 C 36.8000 %
3291 05-09-2017 02:00:00 14.64 C 39.6000 %
3292 05-09-2017 03:00:00 14.52 C 41.2000 %
3293 05-09-2017 04:00:00 14.4 C 44.0000 %
3294 05-09-2017 05:00:00 13.98 C 48.4000 %
3295 05-09-2017 06:00:00 13.36 C 56.2000 %
3296 05-09-2017 07:00:00 13.78 C 63.8000 %
3297 05-09-2017 08:00:00 14.88 C 64.8000 %
3298 05-09-2017 09:00:00 15.18 C 56.8000 %
3299 05-09-2017 10:00:00 16.64 C 52.0000 %
3300 05-09-2017 11:00:00 19.24 C 27.8000 %
Sensor: Nr:Datum:Temp:Feuchte:
Aussen-T/F 3301 05-09-2017 12:00:00 18.78 C 29.6000 %
3302 05-09-2017 13:00:00 20.98 C 24.8000 %
3303 05-09-2017 14:00:00 22.98 C 20.0000 %
3304 05-09-2017 15:00:00 25.08 C 20.0000 %
3305 05-09-2017 16:00:00 25.16 C 20.0000 %
3306 05-09-2017 17:00:00 22.6 C 20.0000 %
3307 05-09-2017 18:00:00 20.62 C 22.4000 %
3308 05-09-2017 19:00:00 19.92 C 25.8000 %
3309 05-09-2017 20:00:00 19.04 C 29.8000 %
3310 05-09-2017 21:00:00 18.38 C 31.8000 %
3311 05-09-2017 22:00:00 17.88 C 34.8000 %
3312 05-09-2017 23:00:00 17.12 C 38.2000 %
3313 06-09-2017 00:00:00 16.92 C 41.2000 %
3314 06-09-2017 01:00:00 17.26 C 40.0000 %
3315 06-09-2017 02:00:00 17.48 C 37.4000 %
3316 06-09-2017 03:00:00 17.32 C 34.8000 %
3317 06-09-2017 04:00:00 16.8 C 37.6000 %
3318 06-09-2017 05:00:00 16.44 C 39.8000 %
3319 06-09-2017 06:00:00 17.36 C 30.6000 %
3320 06-09-2017 07:00:00 17.06 C 30.6000 %
3321 06-09-2017 08:00:00 17.64 C 25.0000 %
3322 06-09-2017 09:00:00 18.78 C 20.2000 %
3323 06-09-2017 10:00:00 20.06 C 20.0000 %
3324 06-09-2017 11:00:00 17.2 C 22.0000 %
3325 06-09-2017 12:00:00 18.22 C 20.2000 %
Sensor: Nr:Datum:Temp:Feuchte:
Aussen-T/F 3326 06-09-2017 13:00:00 19.02 C 20.0000 %
3327 06-09-2017 14:00:00 18.62 C 20.0000 %
3328 06-09-2017 15:00:00 19.78 C 20.0000 %
3329 06-09-2017 16:00:00 19.4 C 20.0000 %
3330 06-09-2017 17:00:00 19.36 C 20.0000 %
3331 06-09-2017 18:00:00 18.16 C 20.0000 %
3332 06-09-2017 19:00:00 16.86 C 20.0000 %
3333 06-09-2017 20:00:00 15.7 C 20.0000 %
3334 06-09-2017 21:00:00 14.86 C 20.0000 %
3335 06-09-2017 22:00:00 14.74 C 20.0000 %
3336 06-09-2017 23:00:00 14.26 C 20.0000 %
3337 07-09-2017 00:00:00 12.72 C 23.2000 %
3338 07-09-2017 01:00:00 13.34 C 21.4000 %
3339 07-09-2017 02:00:00 13.3 C 22.2000 %
3340 07-09-2017 03:00:00 13.06 C 26.4000 %
3341 07-09-2017 04:00:00 13.32 C 23.6000 %
3342 07-09-2017 05:00:00 13.44 C 21.8000 %
3343 07-09-2017 06:00:00 13.64 C 21.2000 %
3344 07-09-2017 07:00:00 13.52 C 23.8000 %
3345 07-09-2017 08:00:00 13.74 C 23.0000 %
3346 07-09-2017 09:00:00 14.76 C 20.0000 %
3347 07-09-2017 10:00:00 16.04 C 20.0000 %
3348 07-09-2017 11:00:00 16.6 C 20.0000 %
3349 07-09-2017 12:00:00 18.28 C 20.0000 %
3350 07-09-2017 13:00:00 18.3 C 20.0000 %
Sensor: Nr:Datum:Temp:Feuchte:
Aussen-T/F 3351 07-09-2017 14:00:00 18.56 C 20.0000 %
3352 07-09-2017 15:00:00 21.46 C 20.0000 %
3353 07-09-2017 16:00:00 19.96 C 20.0000 %
3354 07-09-2017 17:00:00 19.36 C 20.0000 %
3355 07-09-2017 18:00:00 17.32 C 20.0000 %
3356 07-09-2017 19:00:00 16.68 C 20.0000 %
3357 07-09-2017 20:00:00 16.34 C 20.0000 %
3358 07-09-2017 21:00:00 16.12 C 20.0000 %
3359 07-09-2017 22:00:00 16 C 20.0000 %
3360 07-09-2017 23:00:00 15.76 C 20.0000 %
3361 08-09-2017 00:00:00 15.22 C 20.0000 %
3362 08-09-2017 01:00:00 14.1 C 22.0000 %
3363 08-09-2017 02:00:00 14.44 C 20.4000 %
3364 08-09-2017 03:00:00 13.36 C 23.6000 %
3365 08-09-2017 04:00:00 13.6 C 23.6000 %
3366 08-09-2017 05:00:00 13.48 C 21.0000 %
3367 08-09-2017 06:00:00 13.62 C 20.6000 %
3368 08-09-2017 07:00:00 13.34 C 23.4000 %
3369 08-09-2017 08:00:00 13.96 C 21.2000 %
3370 08-09-2017 09:00:00 15.38 C 20.0000 %
3371 08-09-2017 10:00:00 16.32 C 20.0000 %
3372 08-09-2017 11:00:00 17.6 C 20.0000 %
3373 08-09-2017 12:00:00 18.2 C 20.0000 %
3374 08-09-2017 13:00:00 17.64 C 20.0000 %
3375 08-09-2017 14:00:00 18.58 C 20.0000 %
Sensor: Nr:Datum:Temp:Feuchte:
Aussen-T/F 3376 08-09-2017 15:00:00 18.86 C 20.0000 %
3377 08-09-2017 16:00:00 17.74 C 20.0000 %
3378 08-09-2017 17:00:00 17.64 C 20.0000 %
3379 08-09-2017 18:00:00 17.88 C 20.0000 %
3380 08-09-2017 19:00:00 16.94 C 20.0000 %
3381 08-09-2017 20:00:00 16.5 C 20.0000 %
3382 08-09-2017 21:00:00 16.5 C 20.0000 %
3383 08-09-2017 22:00:00 16.5 C 20.0000 %
3384 08-09-2017 23:00:00 16.5 C 20.0000 %
3385 09-09-2017 00:00:00 16.5 C 20.0000 %
3386 09-09-2017 01:00:00 16.12 C 23.4000 %
3387 09-09-2017 02:00:00 14.38 C 40.2000 %
3388 09-09-2017 03:00:00 14.14 C 42.0000 %
3389 09-09-2017 04:00:00 14 C 44.0000 %
3390 09-09-2017 05:00:00 14 C 52.0000 %
3391 09-09-2017 06:00:00 13.88 C 61.0000 %
3392 09-09-2017 07:00:00 13.88 C 64.4000 %
3393 09-09-2017 08:00:00 13.68 C 63.6000 %
3394 09-09-2017 09:00:00 13.66 C 56.0000 %
3395 09-09-2017 10:00:00 13.86 C 47.6000 %
3396 09-09-2017 11:00:00 14.26 C 36.0000 %
3397 09-09-2017 12:00:00 15.58 C 24.4000 %
3398 09-09-2017 13:00:00 16.92 C 20.0000 %
3399 09-09-2017 14:00:00 16.74 C 22.0000 %
3400 09-09-2017 15:00:00 16.6 C 21.6000 %
Sensor: Nr:Datum:Temp:Feuchte:
Aussen-T/F 3401 09-09-2017 16:00:00 18.56 C 20.0000 %
3402 09-09-2017 17:00:00 18.8 C 20.0000 %
3403 09-09-2017 18:00:00 15.2 C 25.2000 %
3404 09-09-2017 19:00:00 12.84 C 40.6000 %
3405 09-09-2017 20:00:00 12.52 C 44.2000 %
3406 09-09-2017 21:00:00 11.92 C 49.8000 %
3407 09-09-2017 22:00:00 10.66 C 57.2000 %
3408 09-09-2017 23:00:00 10.26 C 63.4000 %
3409 10-09-2017 00:00:00 9.78 C 66.2000 %
3410 10-09-2017 01:00:00 9.92 C 68.8000 %
3411 10-09-2017 02:00:00 11 C 70.8000 %
3412 10-09-2017 03:00:00 10.44 C 68.0000 %
3413 10-09-2017 04:00:00 10.24 C 68.0000 %
3414 10-09-2017 05:00:00 11 C 69.4000 %
3415 10-09-2017 06:00:00 10.5 C 66.6000 %
3416 10-09-2017 07:00:00 10.08 C 64.8000 %
3417 10-09-2017 08:00:00 10.32 C 66.0000 %
3418 10-09-2017 09:00:00 10.86 C 65.0000 %
3419 10-09-2017 10:00:00 12.06 C 56.6000 %
3420 10-09-2017 11:00:00 14.92 C 31.8000 %
3421 10-09-2017 12:00:00 16.08 C 20.0000 %
3422 10-09-2017 13:00:00 15.82 C 20.0000 %
3423 10-09-2017 14:00:00 15.06 C 20.0000 %
3424 10-09-2017 15:00:00 16.44 C 20.0000 %
3425 10-09-2017 16:00:00 18.38 C 20.0000 %
Sensor: Nr:Datum:Temp:Feuchte:
Aussen-T/F 3426 10-09-2017 17:00:00 20.48 C 20.0000 %
3427 10-09-2017 18:00:00 20.32 C 20.0000 %
3428 10-09-2017 19:00:00 16.32 C 20.2000 %
3429 10-09-2017 20:00:00 13.74 C 23.8000 %
3430 10-09-2017 21:00:00 12.68 C 26.2000 %
3431 10-09-2017 22:00:00 11.64 C 27.8000 %
3432 10-09-2017 23:00:00 10.54 C 36.4000 %
3433 11-09-2017 00:00:00 10.94 C 39.2000 %
3434 11-09-2017 01:00:00 11.96 C 31.2000 %
3435 11-09-2017 02:00:00 12.86 C 21.0000 %
3436 11-09-2017 03:00:00 13.62 C 20.0000 %
3437 11-09-2017 04:00:00 13.98 C 20.0000 %
3438 11-09-2017 05:00:00 13.58 C 20.6000 %
3439 11-09-2017 06:00:00 13.24 C 25.8000 %
3440 11-09-2017 07:00:00 12.9 C 33.2000 %
3441 11-09-2017 08:00:00 14.2 C 27.2000 %
3442 11-09-2017 09:00:00 14.52 C 22.8000 %
3443 11-09-2017 10:00:00 13.64 C 33.4000 %
3444 11-09-2017 11:00:00 14.08 C 33.4000 %
3445 11-09-2017 12:00:00 14.1 C 36.8000 %
3446 11-09-2017 13:00:00 13.7 C 32.6000 %
3447 11-09-2017 14:00:00 14.62 C 28.8000 %
3448 11-09-2017 15:00:00 17.7 C 20.0000 %
3449 11-09-2017 16:00:00 18.1 C 20.0000 %
3450 11-09-2017 17:00:00 19.88 C 20.0000 %
Sensor: Nr:Datum:Temp:Feuchte:
Aussen-T/F 3451 11-09-2017 18:00:00 19.76 C 20.0000 %
3452 11-09-2017 19:00:00 14.62 C 21.0000 %
3453 11-09-2017 20:00:00 12.78 C 27.6000 %
3454 11-09-2017 21:00:00 12.04 C 30.4000 %
3455 11-09-2017 22:00:00 12.92 C 25.2000 %
3456 11-09-2017 23:00:00 12.76 C 23.6000 %
3457 12-09-2017 00:00:00 12.08 C 29.6000 %
3458 12-09-2017 01:00:00 13.12 C 22.2000 %
3459 12-09-2017 02:00:00 12.94 C 22.4000 %
3460 12-09-2017 03:00:00 13.18 C 20.0000 %
3461 12-09-2017 04:00:00 13.38 C 21.2000 %
3462 12-09-2017 05:00:00 13.42 C 20.2000 %
3463 12-09-2017 06:00:00 13.02 C 21.4000 %
3464 12-09-2017 07:00:00 13.1 C 20.0000 %
3465 12-09-2017 08:00:00 12.74 C 25.6000 %
3466 12-09-2017 09:00:00 12.96 C 30.0000 %
3467 12-09-2017 10:00:00 14.68 C 20.4000 %
3468 12-09-2017 11:00:00 15.76 C 20.0000 %
3469 12-09-2017 12:00:00 16.74 C 20.0000 %
3470 12-09-2017 13:00:00 17.44 C 20.0000 %
3471 12-09-2017 14:00:00 16.84 C 20.0000 %
3472 12-09-2017 15:00:00 18.82 C 20.0000 %
3473 12-09-2017 16:00:00 15.82 C 20.0000 %
3474 12-09-2017 17:00:00 17.5 C 20.0000 %
3475 12-09-2017 18:00:00 19.42 C 20.0000 %
Sensor: Nr:Datum:Temp:Feuchte:
Aussen-T/F 3476 12-09-2017 19:00:00 15.9 C 29.4000 %
3477 12-09-2017 20:00:00 11.9 C 42.8000 %
3478 12-09-2017 21:00:00 11.16 C 45.0000 %
3479 12-09-2017 22:00:00 10.9 C 47.6000 %
3480 12-09-2017 23:00:00 11 C 49.6000 %
3481 13-09-2017 00:00:00 10.88 C 49.0000 %
3482 13-09-2017 01:00:00 10.86 C 50.8000 %
3483 13-09-2017 02:00:00 10.64 C 58.6000 %
3484 13-09-2017 03:00:00 10.9 C 63.0000 %
3485 13-09-2017 04:00:00 10.9 C 63.0000 %
3486 13-09-2017 05:00:00 10.9 C 63.0000 %
3487 13-09-2017 06:00:00 10.9 C 63.0000 %
3488 13-09-2017 07:00:00 11.86 C 38.0000 %
3489 13-09-2017 08:00:00 12.82 C 35.0000 %
3490 13-09-2017 09:00:00 13.94 C 31.2000 %
3491 13-09-2017 10:00:00 15.24 C 26.8000 %
3492 13-09-2017 11:00:00 15.24 C 36.4000 %
3493 13-09-2017 12:00:00 16.2 C 29.0000 %
3494 13-09-2017 13:00:00 17.58 C 20.0000 %
3495 13-09-2017 14:00:00 17.16 C 20.0000 %
3496 13-09-2017 15:00:00 19.22 C 20.0000 %
3497 13-09-2017 16:00:00 19.34 C 20.0000 %
3498 13-09-2017 17:00:00 18.38 C 20.0000 %
3499 13-09-2017 18:00:00 16.86 C 20.0000 %
3500 13-09-2017 19:00:00 14.5 C 23.6000 %
Sensor: Nr:Datum:Temp:Feuchte:
Aussen-T/F 3501 13-09-2017 20:00:00 13.3 C 37.0000 %
3502 13-09-2017 21:00:00 12.84 C 42.6000 %
3503 13-09-2017 22:00:00 12.38 C 47.2000 %
3504 13-09-2017 23:00:00 12.32 C 54.8000 %
3505 14-09-2017 00:00:00 12.24 C 60.4000 %
3506 14-09-2017 01:00:00 12.1 C 62.6000 %
3507 14-09-2017 02:00:00 12.02 C 65.2000 %
3508 14-09-2017 03:00:00 11.68 C 66.2000 %
3509 14-09-2017 04:00:00 11.38 C 59.0000 %
3510 14-09-2017 05:00:00 11.18 C 47.8000 %
3511 14-09-2017 06:00:00 11.08 C 43.8000 %
3512 14-09-2017 07:00:00 11.1 C 42.8000 %
3513 14-09-2017 08:00:00 11.26 C 40.0000 %
3514 14-09-2017 09:00:00 11.38 C 36.8000 %
3515 14-09-2017 10:00:00 11.68 C 30.8000 %
3516 14-09-2017 11:00:00 13.08 C 21.6000 %
3517 14-09-2017 12:00:00 13.96 C 20.0000 %
3518 14-09-2017 13:00:00 14.72 C 20.0000 %
3519 14-09-2017 14:00:00 13.08 C 25.6000 %
3520 14-09-2017 15:00:00 11.82 C 30.0000 %
3521 14-09-2017 16:00:00 14.34 C 20.0000 %
3522 14-09-2017 17:00:00 12.88 C 20.4000 %
3523 14-09-2017 18:00:00 10.36 C 25.6000 %
3524 14-09-2017 19:00:00 10.26 C 31.2000 %
3525 14-09-2017 20:00:00 9.84 C 38.2000 %
Sensor: Nr:Datum:Temp:Feuchte:
Aussen-T/F 3526 14-09-2017 21:00:00 10.08 C 40.4000 %
3527 14-09-2017 22:00:00 10.24 C 45.4000 %
3528 14-09-2017 23:00:00 10.34 C 48.8000 %
3529 15-09-2017 00:00:00 10.44 C 45.4000 %
3530 15-09-2017 01:00:00 10.2 C 42.0000 %
3531 15-09-2017 02:00:00 10.16 C 44.4000 %
3532 15-09-2017 03:00:00 10.12 C 46.0000 %
3533 15-09-2017 04:00:00 10.2 C 40.2000 %
3534 15-09-2017 05:00:00 10.2 C 40.2000 %
3535 15-09-2017 06:00:00 9.42 C 40.8000 %
3536 15-09-2017 07:00:00 9.18 C 50.8000 %
3537 15-09-2017 08:00:00 10.18 C 60.0000 %
3538 15-09-2017 09:00:00 11.42 C 52.4000 %
3539 15-09-2017 10:00:00 13.8 C 23.0000 %
3540 15-09-2017 11:00:00 14.2 C 20.0000 %
3541 15-09-2017 12:00:00 15.24 C 20.0000 %
3542 15-09-2017 13:00:00 15.96 C 20.0000 %
3543 15-09-2017 14:00:00 15.86 C 20.0000 %
3544 15-09-2017 15:00:00 16.04 C 20.0000 %
3545 15-09-2017 16:00:00 17.18 C 20.0000 %
3546 15-09-2017 17:00:00 16.32 C 20.0000 %
3547 15-09-2017 18:00:00 20.58 C 20.0000 %
3548 15-09-2017 19:00:00 13.4 C 22.4000 %
3549 15-09-2017 20:00:00 11.04 C 32.2000 %
3550 15-09-2017 21:00:00 11.02 C 33.0000 %
Sensor: Nr:Datum:Temp:Feuchte:
Aussen-T/F 3551 15-09-2017 22:00:00 9.76 C 37.2000 %
3552 15-09-2017 23:00:00 8.5 C 43.0000 %
3553 16-09-2017 00:00:00 8.26 C 46.4000 %
3554 16-09-2017 01:00:00 7.36 C 47.6000 %
3555 16-09-2017 02:00:00 6.88 C 53.6000 %
3556 16-09-2017 03:00:00 6.46 C 61.0000 %
3557 16-09-2017 04:00:00 6.3 C 65.2000 %
3558 16-09-2017 05:00:00 5.8 C 66.4000 %
3559 16-09-2017 06:00:00 5.92 C 69.0000 %
3560 16-09-2017 07:00:00 6.12 C 69.0000 %
3561 16-09-2017 08:00:00 7.18 C 67.2000 %
3562 16-09-2017 09:00:00 8.38 C 53.4000 %
3563 16-09-2017 10:00:00 9.6 C 39.4000 %
3564 16-09-2017 11:00:00 10.08 C 34.2000 %
3565 16-09-2017 12:00:00 11.72 C 23.6000 %
3566 16-09-2017 13:00:00 13.24 C 20.0000 %
3567 16-09-2017 14:00:00 14.3 C 20.0000 %
3568 16-09-2017 15:00:00 14.86 C 20.0000 %
3569 16-09-2017 16:00:00 17.04 C 20.0000 %
3570 16-09-2017 17:00:00 16.94 C 20.0000 %
3571 16-09-2017 18:00:00 15.06 C 20.0000 %
3572 16-09-2017 19:00:00 12.5 C 24.2000 %
3573 16-09-2017 20:00:00 11.14 C 30.0000 %
3574 16-09-2017 21:00:00 10.6 C 32.4000 %
3575 16-09-2017 22:00:00 9.14 C 37.4000 %
Sensor: Nr:Datum:Temp:Feuchte:
Aussen-T/F 3576 16-09-2017 23:00:00 7.84 C 42.8000 %
3577 17-09-2017 00:00:00 7.9 C 45.6000 %
3578 17-09-2017 01:00:00 7.36 C 45.4000 %
3579 17-09-2017 02:00:00 6.58 C 48.0000 %
3580 17-09-2017 03:00:00 6.78 C 54.8000 %
3581 17-09-2017 04:00:00 7.46 C 60.4000 %
3582 17-09-2017 05:00:00 7.84 C 61.4000 %
3583 17-09-2017 06:00:00 7.5 C 62.2000 %
3584 17-09-2017 07:00:00 7.5 C 66.8000 %
3585 17-09-2017 08:00:00 8.12 C 68.0000 %
3586 17-09-2017 09:00:00 8.98 C 65.2000 %
3587 17-09-2017 10:00:00 10.62 C 58.6000 %
3588 17-09-2017 11:00:00 11.2 C 53.0000 %
3589 17-09-2017 12:00:00 11.2 C 49.0000 %
3590 17-09-2017 13:00:00 12.16 C 46.8000 %
3591 17-09-2017 14:00:00 12.82 C 36.8000 %
3592 17-09-2017 15:00:00 12.3 C 35.6000 %
3593 17-09-2017 16:00:00 13.8 C 35.0000 %
3594 17-09-2017 17:00:00 13.42 C 28.2000 %
3595 17-09-2017 18:00:00 13.5 C 29.0000 %
3596 17-09-2017 19:00:00 11.44 C 39.0000 %
3597 17-09-2017 20:00:00 9.48 C 47.8000 %
3598 17-09-2017 21:00:00 8.86 C 58.8000 %
3599 17-09-2017 22:00:00 7.86 C 68.2000 %
3600 17-09-2017 23:00:00 7.4 C 72.0000 %
Sensor: Nr:Datum:Temp:Feuchte:
Aussen-T/F 3601 18-09-2017 00:00:00 6.86 C 72.6000 %
3602 18-09-2017 01:00:00 6.42 C 73.0000 %
3603 18-09-2017 02:00:00 6.16 C 72.4000 %
3604 18-09-2017 03:00:00 5.78 C 72.8000 %
3605 18-09-2017 04:00:00 5.58 C 71.8000 %
3606 18-09-2017 05:00:00 5.74 C 72.2000 %
3607 18-09-2017 06:00:00 6.86 C 71.6000 %
3608 18-09-2017 07:00:00 7.44 C 70.8000 %
3609 18-09-2017 08:00:00 8.34 C 69.8000 %
3610 18-09-2017 09:00:00 9.04 C 67.8000 %
3611 18-09-2017 10:00:00 10.12 C 63.6000 %
3612 18-09-2017 11:00:00 11.84 C 37.6000 %
3613 18-09-2017 12:00:00 12.66 C 20.0000 %
3614 18-09-2017 13:00:00 13.58 C 20.0000 %
3615 18-09-2017 14:00:00 14.7 C 20.0000 %
3616 18-09-2017 15:00:00 15.56 C 20.0000 %
3617 18-09-2017 16:00:00 16.7 C 20.0000 %
3618 18-09-2017 17:00:00 17.12 C 20.0000 %
3619 18-09-2017 18:00:00 16.6 C 20.0000 %
3620 18-09-2017 19:00:00 13.3 C 20.0000 %
3621 18-09-2017 20:00:00 11.06 C 26.6000 %
3622 18-09-2017 21:00:00 9.78 C 33.6000 %
3623 18-09-2017 22:00:00 9.86 C 36.2000 %
3624 18-09-2017 23:00:00 9.94 C 37.4000 %
3625 19-09-2017 00:00:00 10.32 C 33.6000 %
Sensor: Nr:Datum:Temp:Feuchte:
Aussen-T/F 3626 19-09-2017 01:00:00 10.6 C 26.8000 %
3627 19-09-2017 02:00:00 10.78 C 21.4000 %
3628 19-09-2017 03:00:00 10.48 C 25.6000 %
3629 19-09-2017 04:00:00 10.14 C 31.6000 %
3630 19-09-2017 05:00:00 10.04 C 31.4000 %
3631 19-09-2017 06:00:00 10.02 C 30.4000 %
3632 19-09-2017 07:00:00 9.98 C 33.8000 %
3633 19-09-2017 08:00:00 10.56 C 34.4000 %
3634 19-09-2017 09:00:00 11.88 C 27.4000 %
3635 19-09-2017 10:00:00 13.24 C 21.0000 %
3636 19-09-2017 11:00:00 13.58 C 22.2000 %
3637 19-09-2017 12:00:00 14 C 21.6000 %
3638 19-09-2017 13:00:00 13.52 C 34.0000 %
3639 19-09-2017 14:00:00 14.14 C 32.0000 %
3640 19-09-2017 15:00:00 13.42 C 33.4000 %
3641 19-09-2017 16:00:00 13.24 C 36.2000 %
3642 19-09-2017 17:00:00 13.84 C 35.6000 %
3643 19-09-2017 18:00:00 15.72 C 27.2000 %
3644 19-09-2017 19:00:00 12.42 C 37.8000 %
3645 19-09-2017 20:00:00 11.5 C 42.4000 %
3646 19-09-2017 21:00:00 10.26 C 45.6000 %
3647 19-09-2017 22:00:00 9.38 C 50.0000 %
3648 19-09-2017 23:00:00 9.18 C 53.0000 %
3649 20-09-2017 00:00:00 8.46 C 51.8000 %
3650 20-09-2017 01:00:00 8.3 C 57.6000 %
Sensor: Nr:Datum:Temp:Feuchte:
Aussen-T/F 3651 20-09-2017 02:00:00 8.2 C 63.2000 %
3652 20-09-2017 03:00:00 8.3 C 65.2000 %
3653 20-09-2017 04:00:00 8.14 C 63.8000 %
3654 20-09-2017 05:00:00 7.38 C 61.0000 %
3655 20-09-2017 06:00:00 6.92 C 64.4000 %
3656 20-09-2017 07:00:00 7.46 C 69.2000 %
3657 20-09-2017 08:00:00 8.58 C 70.4000 %
3658 20-09-2017 09:00:00 10.1 C 64.2000 %
3659 20-09-2017 10:00:00 11.62 C 41.8000 %
3660 20-09-2017 11:00:00 13.54 C 26.2000 %
3661 20-09-2017 12:00:00 14.96 C 20.0000 %
3662 20-09-2017 13:00:00 15.88 C 20.0000 %
3663 20-09-2017 14:00:00 16.04 C 20.0000 %
3664 20-09-2017 15:00:00 15.8 C 20.0000 %
3665 20-09-2017 16:00:00 18.52 C 20.0000 %
3666 20-09-2017 17:00:00 16.18 C 20.0000 %
3667 20-09-2017 18:00:00 13.92 C 21.2000 %
3668 20-09-2017 19:00:00 13.06 C 26.8000 %
3669 20-09-2017 20:00:00 11.76 C 30.2000 %
3670 20-09-2017 21:00:00 10.18 C 37.0000 %
3671 20-09-2017 22:00:00 9.36 C 42.2000 %
3672 20-09-2017 23:00:00 8.44 C 44.2000 %
3673 21-09-2017 00:00:00 7.8 C 48.2000 %
3674 21-09-2017 01:00:00 7.3 C 53.0000 %
3675 21-09-2017 02:00:00 6.98 C 57.8000 %
Sensor: Nr:Datum:Temp:Feuchte:
Aussen-T/F 3676 21-09-2017 03:00:00 6.52 C 63.8000 %
3677 21-09-2017 04:00:00 6.3 C 67.4000 %
3678 21-09-2017 05:00:00 6.98 C 69.0000 %
3679 21-09-2017 06:00:00 6.98 C 67.4000 %
3680 21-09-2017 07:00:00 6.98 C 66.4000 %
3681 21-09-2017 08:00:00 7.24 C 66.6000 %
3682 21-09-2017 09:00:00 8 C 64.2000 %
3683 21-09-2017 10:00:00 9.42 C 47.4000 %
3684 21-09-2017 11:00:00 10.44 C 38.2000 %
3685 21-09-2017 12:00:00 10.84 C 37.2000 %
3686 21-09-2017 13:00:00 11.94 C 38.4000 %
3687 21-09-2017 14:00:00 14.7 C 23.6000 %
3688 21-09-2017 15:00:00 17.32 C 20.0000 %
3689 21-09-2017 16:00:00 17.88 C 20.0000 %
3690 21-09-2017 17:00:00 18.24 C 20.0000 %
3691 21-09-2017 18:00:00 16.74 C 20.0000 %
3692 21-09-2017 19:00:00 12.68 C 29.0000 %
3693 21-09-2017 20:00:00 11.08 C 35.4000 %
3694 21-09-2017 21:00:00 10.34 C 37.6000 %
3695 21-09-2017 22:00:00 9.74 C 40.4000 %
3696 21-09-2017 23:00:00 9.32 C 42.8000 %
3697 22-09-2017 00:00:00 8.42 C 44.0000 %
3698 22-09-2017 01:00:00 7.78 C 49.0000 %
3699 22-09-2017 02:00:00 7.48 C 54.8000 %
3700 22-09-2017 03:00:00 7.88 C 62.4000 %
Sensor: Nr:Datum:Temp:Feuchte:
Aussen-T/F 3701 22-09-2017 04:00:00 7.24 C 64.6000 %
3702 22-09-2017 05:00:00 6.82 C 68.0000 %
3703 22-09-2017 06:00:00 6.98 C 69.8000 %
3704 22-09-2017 07:00:00 7.48 C 69.4000 %
3705 22-09-2017 08:00:00 7.4 C 67.0000 %
3706 22-09-2017 09:00:00 8.26 C 65.6000 %
3707 22-09-2017 10:00:00 8.9 C 60.8000 %
3708 22-09-2017 11:00:00 11.04 C 41.6000 %
3709 22-09-2017 12:00:00 12.42 C 34.4000 %
3710 22-09-2017 13:00:00 15.88 C 22.6000 %
3711 22-09-2017 14:00:00 17.52 C 20.0000 %
3712 22-09-2017 15:00:00 16.62 C 20.0000 %
3713 22-09-2017 16:00:00 17.66 C 20.0000 %
3714 22-09-2017 17:00:00 16.54 C 20.0000 %
3715 22-09-2017 18:00:00 17.48 C 20.0000 %
3716 22-09-2017 19:00:00 13.2 C 25.2000 %
3717 22-09-2017 20:00:00 11.92 C 32.2000 %
3718 22-09-2017 21:00:00 10.76 C 38.8000 %
3719 22-09-2017 22:00:00 10.66 C 41.6000 %
3720 22-09-2017 23:00:00 10.64 C 41.6000 %
3721 23-09-2017 00:00:00 10.18 C 43.0000 %
3722 23-09-2017 01:00:00 9.52 C 50.4000 %
3723 23-09-2017 02:00:00 9.34 C 55.6000 %
3724 23-09-2017 03:00:00 9.64 C 65.4000 %
3725 23-09-2017 04:00:00 9.52 C 65.8000 %
Sensor: Nr:Datum:Temp:Feuchte:
Aussen-T/F 3726 23-09-2017 05:00:00 10.22 C 67.8000 %
3727 23-09-2017 06:00:00 10.28 C 64.4000 %
3728 23-09-2017 07:00:00 10.66 C 63.6000 %
3729 23-09-2017 08:00:00 11.16 C 61.0000 %
3730 23-09-2017 09:00:00 11.98 C 48.6000 %
3731 23-09-2017 10:00:00 13 C 41.4000 %
3732 23-09-2017 11:00:00 15.2 C 28.4000 %
3733 23-09-2017 12:00:00 16.1 C 20.0000 %
3734 23-09-2017 13:00:00 17.04 C 20.0000 %
3735 23-09-2017 14:00:00 17.96 C 20.0000 %
3736 23-09-2017 15:00:00 17.78 C 20.0000 %
3737 23-09-2017 16:00:00 19.04 C 20.0000 %
3738 23-09-2017 17:00:00 20.04 C 20.0000 %
3739 23-09-2017 18:00:00 21.42 C 20.0000 %
3740 23-09-2017 19:00:00 15.58 C 21.0000 %
3741 23-09-2017 20:00:00 13.74 C 27.8000 %
3742 23-09-2017 21:00:00 12.3 C 35.2000 %
3743 23-09-2017 22:00:00 11.52 C 41.0000 %
3744 23-09-2017 23:00:00 10.66 C 44.2000 %
3745 24-09-2017 00:00:00 9.98 C 48.6000 %
3746 24-09-2017 01:00:00 9.48 C 54.2000 %
3747 24-09-2017 02:00:00 8.98 C 60.8000 %
3748 24-09-2017 03:00:00 8.9 C 66.2000 %
3749 24-09-2017 04:00:00 9.9 C 68.8000 %
3750 24-09-2017 05:00:00 10.14 C 66.8000 %
Sensor: Nr:Datum:Temp:Feuchte:
Aussen-T/F 3751 24-09-2017 06:00:00 10.24 C 65.6000 %
3752 24-09-2017 07:00:00 10.12 C 63.4000 %
3753 24-09-2017 08:00:00 10.42 C 64.8000 %
3754 24-09-2017 09:00:00 10.86 C 61.8000 %
3755 24-09-2017 10:00:00 12.34 C 52.0000 %
3756 24-09-2017 11:00:00 13.52 C 34.4000 %
3757 24-09-2017 12:00:00 15.16 C 23.4000 %
3758 24-09-2017 13:00:00 15.22 C 20.2000 %
3759 24-09-2017 14:00:00 15.9 C 20.0000 %
3760 24-09-2017 15:00:00 17.62 C 20.0000 %
3761 24-09-2017 16:00:00 18.58 C 20.0000 %
3762 24-09-2017 17:00:00 16.76 C 21.6000 %
3763 24-09-2017 18:00:00 15.72 C 27.2000 %
3764 24-09-2017 19:00:00 14.64 C 32.0000 %
3765 24-09-2017 20:00:00 12.78 C 36.6000 %
3766 24-09-2017 21:00:00 11.6 C 40.6000 %
3767 24-09-2017 22:00:00 10.64 C 43.8000 %
3768 24-09-2017 23:00:00 9.9 C 46.6000 %
3769 25-09-2017 00:00:00 9.34 C 51.4000 %
3770 25-09-2017 01:00:00 8.84 C 57.8000 %
3771 25-09-2017 02:00:00 8.76 C 65.6000 %
3772 25-09-2017 03:00:00 9.56 C 68.2000 %
3773 25-09-2017 04:00:00 9.58 C 66.8000 %
3774 25-09-2017 05:00:00 9.58 C 66.6000 %
3775 25-09-2017 06:00:00 9.72 C 66.8000 %
Sensor: Nr:Datum:Temp:Feuchte:
Aussen-T/F 3776 25-09-2017 07:00:00 9.86 C 66.4000 %
3777 25-09-2017 08:00:00 10.38 C 66.6000 %
3778 25-09-2017 09:00:00 11.88 C 66.2000 %
3779 25-09-2017 10:00:00 13.62 C 44.6000 %
3780 25-09-2017 11:00:00 13.78 C 27.0000 %
3781 25-09-2017 12:00:00 13.66 C 29.0000 %
3782 25-09-2017 13:00:00 15.24 C 21.0000 %
3783 25-09-2017 14:00:00 15.26 C 22.4000 %
3784 25-09-2017 15:00:00 15.54 C 24.4000 %
3785 25-09-2017 16:00:00 17.92 C 22.4000 %
3786 25-09-2017 17:00:00 16.88 C 21.4000 %
3787 25-09-2017 18:00:00 15.1 C 27.4000 %
3788 25-09-2017 19:00:00 14.4 C 29.8000 %
3789 25-09-2017 20:00:00 13.98 C 32.4000 %
3790 25-09-2017 21:00:00 13.66 C 34.8000 %
3791 25-09-2017 22:00:00 12.68 C 37.6000 %
3792 25-09-2017 23:00:00 12.36 C 40.0000 %
3793 26-09-2017 00:00:00 11.48 C 41.2000 %
3794 26-09-2017 01:00:00 10.78 C 45.2000 %
3795 26-09-2017 02:00:00 10.4 C 49.8000 %
3796 26-09-2017 03:00:00 10.6 C 55.2000 %
3797 26-09-2017 04:00:00 10.6 C 59.8000 %
3798 26-09-2017 05:00:00 10.44 C 62.0000 %
3799 26-09-2017 06:00:00 9.76 C 63.0000 %
3800 26-09-2017 07:00:00 9.98 C 67.0000 %
Sensor: Nr:Datum:Temp:Feuchte:
Aussen-T/F 3801 26-09-2017 08:00:00 10.5 C 69.0000 %
3802 26-09-2017 09:00:00 11.68 C 62.0000 %
3803 26-09-2017 10:00:00 12.28 C 41.8000 %
3804 26-09-2017 11:00:00 12.44 C 39.2000 %
3805 26-09-2017 12:00:00 13.1 C 32.4000 %
3806 26-09-2017 13:00:00 15.3 C 28.8000 %
3807 26-09-2017 14:00:00 19.16 C 20.0000 %
3808 26-09-2017 15:00:00 19.32 C 20.0000 %
3809 26-09-2017 16:00:00 18.22 C 20.0000 %
3810 26-09-2017 17:00:00 17.9 C 20.0000 %
3811 26-09-2017 18:00:00 19.16 C 20.0000 %
3812 26-09-2017 19:00:00 15.54 C 26.8000 %
3813 26-09-2017 20:00:00 13.76 C 35.4000 %
3814 26-09-2017 21:00:00 12.96 C 38.2000 %
3815 26-09-2017 22:00:00 11.76 C 42.0000 %
3816 26-09-2017 23:00:00 11.4 C 45.2000 %
3817 27-09-2017 00:00:00 10.82 C 49.2000 %
3818 27-09-2017 01:00:00 10.3 C 52.8000 %
3819 27-09-2017 02:00:00 9.92 C 58.8000 %
3820 27-09-2017 03:00:00 9.42 C 63.4000 %
3821 27-09-2017 04:00:00 10.14 C 67.6000 %
3822 27-09-2017 05:00:00 10.36 C 66.4000 %
3823 27-09-2017 06:00:00 10.36 C 65.4000 %
3824 27-09-2017 07:00:00 10.26 C 64.0000 %
3825 27-09-2017 08:00:00 10.64 C 65.0000 %
Sensor: Nr:Datum:Temp:Feuchte:
Aussen-T/F 3826 27-09-2017 09:00:00 11.7 C 59.2000 %
3827 27-09-2017 10:00:00 12.56 C 41.2000 %
3828 27-09-2017 11:00:00 14.68 C 28.8000 %
3829 27-09-2017 12:00:00 14.44 C 22.0000 %
3830 27-09-2017 13:00:00 14.52 C 29.6000 %
3831 27-09-2017 14:00:00 15.58 C 31.0000 %
3832 27-09-2017 15:00:00 17.08 C 25.0000 %
3833 27-09-2017 16:00:00 17.86 C 21.0000 %
3834 27-09-2017 17:00:00 20.08 C 20.0000 %
3835 27-09-2017 18:00:00 19.44 C 20.8000 %
3836 27-09-2017 19:00:00 14.48 C 32.0000 %
3837 27-09-2017 20:00:00 13.04 C 37.0000 %
3838 27-09-2017 21:00:00 12.14 C 41.0000 %
3839 27-09-2017 22:00:00 11.76 C 45.0000 %
3840 27-09-2017 23:00:00 11.64 C 48.2000 %
3841 28-09-2017 00:00:00 11.54 C 51.2000 %
3842 28-09-2017 01:00:00 10.94 C 55.4000 %
3843 28-09-2017 02:00:00 10.68 C 62.4000 %
3844 28-09-2017 03:00:00 10.2 C 65.2000 %
3845 28-09-2017 04:00:00 10.36 C 68.2000 %
3846 28-09-2017 05:00:00 10.72 C 69.0000 %
3847 28-09-2017 06:00:00 10.7 C 68.0000 %
3848 28-09-2017 07:00:00 10.76 C 67.4000 %
3849 28-09-2017 08:00:00 11.1 C 66.6000 %
3850 28-09-2017 09:00:00 11.98 C 65.2000 %
Sensor: Nr:Datum:Temp:Feuchte:
Aussen-T/F 3851 28-09-2017 10:00:00 13.08 C 61.6000 %
3852 28-09-2017 11:00:00 15.12 C 44.2000 %
3853 28-09-2017 12:00:00 17.44 C 30.8000 %
3854 28-09-2017 13:00:00 18.7 C 20.0000 %
3855 28-09-2017 14:00:00 19.14 C 20.0000 %
3856 28-09-2017 15:00:00 19.96 C 20.2000 %
3857 28-09-2017 16:00:00 20.36 C 20.0000 %
3858 28-09-2017 17:00:00 19.56 C 21.8000 %
3859 28-09-2017 18:00:00 18.04 C 26.0000 %
3860 28-09-2017 19:00:00 17.08 C 28.6000 %
3861 28-09-2017 20:00:00 16.84 C 29.0000 %
3862 28-09-2017 21:00:00 16.22 C 33.6000 %
3863 28-09-2017 22:00:00 15.5 C 36.8000 %
3864 28-09-2017 23:00:00 15.5 C 39.2000 %
3865 29-09-2017 00:00:00 15.06 C 39.8000 %
3866 29-09-2017 01:00:00 15.08 C 42.2000 %
3867 29-09-2017 02:00:00 15.06 C 45.0000 %
3868 29-09-2017 03:00:00 15.02 C 47.8000 %
3869 29-09-2017 04:00:00 15 C 53.2000 %
3870 29-09-2017 05:00:00 14.98 C 60.2000 %
3871 29-09-2017 06:00:00 14.48 C 60.8000 %
3872 29-09-2017 07:00:00 14.52 C 65.4000 %
3873 29-09-2017 08:00:00 15.12 C 66.0000 %
3874 29-09-2017 09:00:00 16.3 C 57.2000 %
3875 29-09-2017 10:00:00 17.4 C 36.4000 %
Sensor: Nr:Datum:Temp:Feuchte:
Aussen-T/F 3876 29-09-2017 11:00:00 17.28 C 29.8000 %
3877 29-09-2017 12:00:00 18.2 C 28.8000 %
3878 29-09-2017 13:00:00 20.56 C 20.0000 %
3879 29-09-2017 14:00:00 22.24 C 20.0000 %
3880 29-09-2017 15:00:00 22.48 C 20.0000 %
3881 29-09-2017 16:00:00 22.66 C 20.0000 %
3882 29-09-2017 17:00:00 21.58 C 20.0000 %
3883 29-09-2017 18:00:00 20.28 C 22.4000 %
3884 29-09-2017 19:00:00 18.06 C 28.8000 %
3885 29-09-2017 20:00:00 17 C 33.4000 %
3886 29-09-2017 21:00:00 16.5 C 35.0000 %
3887 29-09-2017 22:00:00 16.4 C 34.8000 %
3888 29-09-2017 23:00:00 16.02 C 37.2000 %
3889 30-09-2017 00:00:00 15.24 C 39.2000 %
3890 30-09-2017 01:00:00 15.14 C 41.4000 %
3891 30-09-2017 02:00:00 14.76 C 43.0000 %
3892 30-09-2017 03:00:00 14.24 C 46.8000 %
3893 30-09-2017 04:00:00 14.64 C 53.8000 %
3894 30-09-2017 05:00:00 14.78 C 59.2000 %
3895 30-09-2017 06:00:00 14.76 C 62.6000 %
3896 30-09-2017 07:00:00 14.6 C 63.6000 %
3897 30-09-2017 08:00:00 14.76 C 64.6000 %
3898 30-09-2017 09:00:00 15.74 C 54.8000 %
3899 30-09-2017 10:00:00 16.56 C 39.2000 %
3900 30-09-2017 11:00:00 17.92 C 30.0000 %
Sensor: Nr:Datum:Temp:Feuchte:
Aussen-T/F 3901 30-09-2017 12:00:00 17.74 C 26.4000 %
3902 30-09-2017 13:00:00 17.84 C 26.0000 %
3903 30-09-2017 14:00:00 15.14 C 34.2000 %
3904 30-09-2017 15:00:00 13.24 C 38.6000 %
3905 30-09-2017 16:00:00 12.94 C 41.8000 %
3906 30-09-2017 17:00:00 12.92 C 46.0000 %
3907 30-09-2017 18:00:00 12.36 C 48.0000 %
3908 30-09-2017 19:00:00 12.02 C 49.4000 %
3909 30-09-2017 20:00:00 11.5 C 56.0000 %
3910 30-09-2017 21:00:00 11.08 C 63.8000 %
3911 30-09-2017 22:00:00 10.5 C 67.4000 %
3912 30-09-2017 23:00:00 10.5 C 69.8000 %
3913 01-10-2017 00:00:00 9.62 C 68.4000 %
3914 01-10-2017 01:00:00 9.28 C 69.4000 %
3915 01-10-2017 02:00:00 9.42 C 70.0000 %
3916 01-10-2017 03:00:00 9.54 C 69.0000 %
3917 01-10-2017 04:00:00 9.42 C 68.2000 %
3918 01-10-2017 05:00:00 8.26 C 63.0000 %
3919 01-10-2017 06:00:00 7.3 C 66.6000 %
3920 01-10-2017 07:00:00 8.32 C 71.2000 %
3921 01-10-2017 08:00:00 8.74 C 69.4000 %
3922 01-10-2017 09:00:00 8.9 C 69.0000 %
3923 01-10-2017 10:00:00 8.9 C 69.0000 %
3924 01-10-2017 11:00:00 8.9 C 69.0000 %
3925 01-10-2017 12:00:00 8.9 C 69.0000 %
Sensor: Nr:Datum:Temp:Feuchte:
Aussen-T/F 3926 01-10-2017 13:00:00 8.9 C 69.0000 %
3927 01-10-2017 14:00:00 8.9 C 69.0000 %
3928 01-10-2017 15:00:00 10.36 C 59.2000 %
3929 01-10-2017 16:00:00 16.08 C 20.0000 %
3930 01-10-2017 17:00:00 14.8 C 23.0000 %
3931 01-10-2017 18:00:00 14.8 C 25.0000 %
3932 01-10-2017 19:00:00 11.6 C 34.8000 %
3933 01-10-2017 20:00:00 11.2 C 38.0000 %
3934 01-10-2017 21:00:00 11.18 C 38.8000 %
3935 01-10-2017 22:00:00 11.1 C 42.0000 %
3936 01-10-2017 23:00:00 11.26 C 41.2000 %
3937 02-10-2017 00:00:00 11.5 C 40.0000 %
3938 02-10-2017 01:00:00 11.5 C 40.0000 %
3939 02-10-2017 02:00:00 11.5 C 40.0000 %
3940 02-10-2017 03:00:00 11.5 C 40.0000 %
3941 02-10-2017 04:00:00 11.6 C 30.0000 %
3942 02-10-2017 05:00:00 11.6 C 30.0000 %
3943 02-10-2017 06:00:00 11.6 C 30.0000 %
3944 02-10-2017 07:00:00 12.02 C 47.0000 %
3945 02-10-2017 08:00:00 12.32 C 54.2000 %
3946 02-10-2017 09:00:00 12.6 C 57.0000 %
3947 02-10-2017 10:00:00 13.64 C 62.6000 %
3948 02-10-2017 11:00:00 13.9 C 64.0000 %
3949 02-10-2017 12:00:00 13.9 C 64.0000 %
3950 02-10-2017 13:00:00 13.9 C 64.0000 %
Sensor: Nr:Datum:Temp:Feuchte:
Aussen-T/F 3951 02-10-2017 14:00:00 13.9 C 64.0000 %
3952 02-10-2017 15:00:00 13.9 C 64.0000 %
3953 02-10-2017 16:00:00 13.9 C 64.0000 %
3954 02-10-2017 17:00:00 15.12 C 46.4000 %
3955 02-10-2017 18:00:00 16.96 C 20.0000 %
3956 02-10-2017 19:00:00 15.36 C 20.0000 %
3957 02-10-2017 20:00:00 14.74 C 27.0000 %
3958 02-10-2017 21:00:00 15.26 C 20.0000 %
3959 02-10-2017 22:00:00 15.12 C 20.8000 %
3960 02-10-2017 23:00:00 13.98 C 37.8000 %
3961 03-10-2017 00:00:00 12.48 C 41.0000 %
3962 03-10-2017 01:00:00 11.76 C 47.2000 %
3963 03-10-2017 02:00:00 11.28 C 54.6000 %
3964 03-10-2017 03:00:00 11.02 C 61.8000 %
3965 03-10-2017 04:00:00 10.8 C 67.8000 %
3966 03-10-2017 05:00:00 10.8 C 69.8000 %
3967 03-10-2017 06:00:00 10.82 C 70.0000 %
3968 03-10-2017 07:00:00 10.76 C 69.2000 %
3969 03-10-2017 08:00:00 10.6 C 68.2000 %
3970 03-10-2017 09:00:00 10.5 C 68.0000 %
3971 03-10-2017 10:00:00 11.14 C 51.6000 %
3972 03-10-2017 11:00:00 12.72 C 33.8000 %
3973 03-10-2017 12:00:00 14.38 C 20.0000 %
3974 03-10-2017 13:00:00 14.48 C 20.0000 %
3975 03-10-2017 14:00:00 15.26 C 20.0000 %
Sensor: Nr:Datum:Temp:Feuchte:
Aussen-T/F 3976 03-10-2017 15:00:00 15.78 C 20.0000 %
3977 03-10-2017 16:00:00 16.12 C 20.0000 %
3978 03-10-2017 17:00:00 17.42 C 20.0000 %
3979 03-10-2017 18:00:00 16.58 C 20.0000 %
3980 03-10-2017 19:00:00 11.36 C 24.8000 %
3981 03-10-2017 20:00:00 10.1 C 31.8000 %
3982 03-10-2017 21:00:00 9.66 C 34.2000 %
3983 03-10-2017 22:00:00 8.88 C 39.8000 %
3984 03-10-2017 23:00:00 8.26 C 43.2000 %
3985 04-10-2017 00:00:00 8.3 C 45.0000 %
3986 04-10-2017 01:00:00 8.26 C 44.2000 %
3987 04-10-2017 02:00:00 7.9 C 44.4000 %
3988 04-10-2017 03:00:00 7.68 C 46.0000 %
3989 04-10-2017 04:00:00 8.02 C 46.0000 %
3990 04-10-2017 05:00:00 8.08 C 42.6000 %
3991 04-10-2017 06:00:00 7.96 C 44.2000 %
3992 04-10-2017 07:00:00 7.76 C 44.8000 %
3993 04-10-2017 08:00:00 7.96 C 44.4000 %
3994 04-10-2017 09:00:00 8.2 C 44.0000 %
3995 04-10-2017 10:00:00 8.86 C 39.2000 %
3996 04-10-2017 11:00:00 12.2 C 20.0000 %
3997 04-10-2017 12:00:00 12.8 C 20.0000 %
3998 04-10-2017 13:00:00 14.22 C 20.0000 %
3999 04-10-2017 14:00:00 14.8 C 20.0000 %
4000 04-10-2017 15:00:00 15.6 C 20.0000 %
Sensor: Nr:Datum:Temp:Feuchte:
Aussen-T/F 4001 04-10-2017 16:00:00 15.62 C 20.0000 %
4002 04-10-2017 17:00:00 14.6 C 20.0000 %
4003 04-10-2017 18:00:00 13.52 C 20.0000 %
4004 04-10-2017 19:00:00 12.8 C 20.0000 %
4005 04-10-2017 20:00:00 12.6 C 20.0000 %
4006 04-10-2017 21:00:00 12.28 C 20.0000 %
4007 04-10-2017 22:00:00 12.66 C 20.0000 %
4008 04-10-2017 23:00:00 12.66 C 20.0000 %
4009 05-10-2017 00:00:00 12.5 C 20.0000 %
4010 05-10-2017 01:00:00 12.3 C 20.0000 %
4011 05-10-2017 02:00:00 12.06 C 20.0000 %
4012 05-10-2017 03:00:00 11.96 C 20.0000 %
4013 05-10-2017 04:00:00 11.9 C 20.0000 %
4014 05-10-2017 05:00:00 11.74 C 20.0000 %
4015 05-10-2017 06:00:00 11.6 C 20.0000 %
4016 05-10-2017 07:00:00 11.56 C 20.0000 %
4017 05-10-2017 08:00:00 11.6 C 20.0000 %
4018 05-10-2017 09:00:00 11.8 C 20.0000 %
4019 05-10-2017 10:00:00 12.44 C 20.0000 %
4020 05-10-2017 11:00:00 14.22 C 20.0000 %
4021 05-10-2017 12:00:00 14.58 C 20.0000 %
4022 05-10-2017 13:00:00 15.68 C 20.0000 %
4023 05-10-2017 14:00:00 13.62 C 26.0000 %
4024 05-10-2017 15:00:00 12.24 C 34.2000 %
4025 05-10-2017 16:00:00 13.4 C 29.0000 %
Sensor: Nr:Datum:Temp:Feuchte:
Aussen-T/F 4026 05-10-2017 17:00:00 15.86 C 21.8000 %
4027 05-10-2017 18:00:00 14.88 C 20.0000 %
4028 05-10-2017 19:00:00 14.2 C 20.0000 %
4029 05-10-2017 20:00:00 14.2 C 20.0000 %
4030 05-10-2017 21:00:00 14.2 C 20.0000 %
4031 05-10-2017 22:00:00 13.14 C 22.6000 %
4032 05-10-2017 23:00:00 8.6 C 33.6000 %
4033 06-10-2017 00:00:00 8.4 C 34.0000 %
4034 06-10-2017 01:00:00 8.4 C 34.0000 %
4035 06-10-2017 02:00:00 8.4 C 34.0000 %
4036 06-10-2017 03:00:00 8.4 C 34.0000 %
4037 06-10-2017 04:00:00 8.4 C 34.0000 %
4038 06-10-2017 05:00:00 8.4 C 34.0000 %
4039 06-10-2017 06:00:00 8.4 C 34.0000 %
4040 06-10-2017 07:00:00 7.58 C 31.0000 %
4041 06-10-2017 08:00:00 7.6 C 31.0000 %
4042 06-10-2017 09:00:00 7.6 C 31.0000 %
4043 06-10-2017 10:00:00 7.6 C 31.0000 %
4044 06-10-2017 11:00:00 10.1 C 28.0000 %
4045 06-10-2017 12:00:00 10.66 C 30.8000 %
4046 06-10-2017 13:00:00 10.64 C 37.2000 %
4047 06-10-2017 14:00:00 10.52 C 44.4000 %
4048 06-10-2017 15:00:00 10.9 C 39.0000 %
4049 06-10-2017 16:00:00 10.6 C 36.0000 %
4050 06-10-2017 17:00:00 11.6 C 29.6000 %
Sensor: Nr:Datum:Temp:Feuchte:
Aussen-T/F 4051 06-10-2017 18:00:00 13.7 C 20.0000 %
4052 06-10-2017 19:00:00 11.6 C 24.8000 %
4053 06-10-2017 20:00:00 9.4 C 35.2000 %
4054 06-10-2017 21:00:00 8.9 C 40.0000 %
4055 06-10-2017 22:00:00 8.9 C 40.0000 %
4056 06-10-2017 23:00:00 8.9 C 40.0000 %
4057 07-10-2017 00:00:00 9.02 C 40.2000 %
4058 07-10-2017 01:00:00 9.58 C 40.2000 %
4059 07-10-2017 02:00:00 9.44 C 38.4000 %
4060 07-10-2017 03:00:00 9.44 C 36.4000 %
4061 07-10-2017 04:00:00 9.5 C 34.0000 %
4062 07-10-2017 05:00:00 9.5 C 30.8000 %
4063 07-10-2017 06:00:00 9.14 C 31.6000 %
4064 07-10-2017 07:00:00 8.7 C 35.0000 %
4065 07-10-2017 08:00:00 8.7 C 35.0000 %
4066 07-10-2017 09:00:00 8.7 C 35.0000 %
4067 07-10-2017 10:00:00 8.7 C 35.0000 %
4068 07-10-2017 11:00:00 10.54 C 23.0000 %
4069 07-10-2017 12:00:00 11 C 20.0000 %
4070 07-10-2017 13:00:00 10.9 C 20.0000 %
4071 07-10-2017 14:00:00 10.4 C 20.0000 %
4072 07-10-2017 15:00:00 9.62 C 33.0000 %
4073 07-10-2017 16:00:00 9.2 C 36.0000 %
4074 07-10-2017 17:00:00 9.42 C 33.4000 %
4075 07-10-2017 18:00:00 9.4 C 32.0000 %
Sensor: Nr:Datum:Temp:Feuchte:
Aussen-T/F 4076 07-10-2017 19:00:00 9.4 C 32.0000 %
4077 07-10-2017 20:00:00 9.4 C 32.0000 %
4078 07-10-2017 21:00:00 9.4 C 32.0000 %
4079 07-10-2017 22:00:00 9.78 C 29.2000 %
4080 07-10-2017 23:00:00 10.34 C 25.6000 %
4081 08-10-2017 00:00:00 10.6 C 26.0000 %
4082 08-10-2017 01:00:00 10.12 C 37.4000 %
4083 08-10-2017 02:00:00 9.98 C 43.6000 %
4084 08-10-2017 03:00:00 9.98 C 47.2000 %
4085 08-10-2017 04:00:00 10.1 C 48.2000 %
4086 08-10-2017 05:00:00 10.22 C 49.6000 %
4087 08-10-2017 06:00:00 10.28 C 53.2000 %
4088 08-10-2017 07:00:00 10.32 C 56.2000 %
4089 08-10-2017 08:00:00 10.4 C 62.2000 %
4090 08-10-2017 09:00:00 11.26 C 58.8000 %
4091 08-10-2017 10:00:00 12.26 C 42.6000 %
4092 08-10-2017 11:00:00 12.4 C 41.0000 %
4093 08-10-2017 12:00:00 12.68 C 38.8000 %
4094 08-10-2017 13:00:00 14.34 C 20.4000 %
4095 08-10-2017 14:00:00 13.34 C 23.6000 %
4096 08-10-2017 15:00:00 13.1 C 26.0000 %
4097 08-10-2017 16:00:00 13.1 C 26.0000 %
4098 08-10-2017 17:00:00 12.86 C 29.2000 %
4099 08-10-2017 18:00:00 15.6 C 37.0000 %
4100 08-10-2017 19:00:00 15.6 C 37.0000 %
Sensor: Nr:Datum:Temp:Feuchte:
Aussen-T/F 4101 08-10-2017 20:00:00 14.64 C 38.8000 %
4102 08-10-2017 21:00:00 10.72 C 46.6000 %
4103 08-10-2017 22:00:00 10.12 C 50.8000 %
4104 08-10-2017 23:00:00 9.62 C 56.8000 %
4105 09-10-2017 00:00:00 8.96 C 58.6000 %
4106 09-10-2017 01:00:00 7.84 C 64.4000 %
4107 09-10-2017 02:00:00 7.08 C 68.0000 %
4108 09-10-2017 03:00:00 7.34 C 71.4000 %
4109 09-10-2017 04:00:00 8.26 C 72.0000 %
4110 09-10-2017 05:00:00 8.5 C 70.6000 %
4111 09-10-2017 06:00:00 8.6 C 70.0000 %
4112 09-10-2017 07:00:00 8.78 C 69.4000 %
4113 09-10-2017 08:00:00 8.9 C 69.0000 %
4114 09-10-2017 09:00:00 9.18 C 68.2000 %
4115 09-10-2017 10:00:00 10.6 C 60.6000 %
4116 09-10-2017 11:00:00 11.8 C 43.0000 %
4117 09-10-2017 12:00:00 11.8 C 43.0000 %
4118 09-10-2017 13:00:00 12.96 C 33.8000 %
4119 09-10-2017 14:00:00 15.72 C 20.0000 %
4120 09-10-2017 15:00:00 15.8 C 20.0000 %
4121 09-10-2017 16:00:00 15.36 C 20.0000 %
4122 09-10-2017 17:00:00 13.76 C 24.4000 %
4123 09-10-2017 18:00:00 12.98 C 26.0000 %
4124 09-10-2017 19:00:00 12.6 C 24.0000 %
4125 09-10-2017 20:00:00 12.02 C 29.8000 %
Sensor: Nr:Datum:Temp:Feuchte:
Aussen-T/F 4126 09-10-2017 21:00:00 11.6 C 34.0000 %
4127 09-10-2017 22:00:00 11.68 C 35.6000 %
4128 09-10-2017 23:00:00 11.7 C 36.0000 %
4129 10-10-2017 00:00:00 11.16 C 40.6000 %
4130 10-10-2017 01:00:00 11.04 C 37.6000 %
4131 10-10-2017 02:00:00 10.98 C 29.2000 %
4132 10-10-2017 03:00:00 11.02 C 30.0000 %
4133 10-10-2017 04:00:00 11.04 C 31.6000 %
4134 10-10-2017 05:00:00 10.8 C 36.0000 %
4135 10-10-2017 06:00:00 10.8 C 36.0000 %
4136 10-10-2017 07:00:00 10.86 C 39.8000 %
4137 10-10-2017 08:00:00 10.96 C 44.6000 %
4138 10-10-2017 09:00:00 11.62 C 42.2000 %
4139 10-10-2017 10:00:00 12.4 C 36.4000 %
4140 10-10-2017 11:00:00 12.98 C 32.4000 %
4141 10-10-2017 12:00:00 14.62 C 24.2000 %
4142 10-10-2017 13:00:00 14.96 C 20.0000 %
4143 10-10-2017 14:00:00 15.5 C 20.0000 %
4144 10-10-2017 15:00:00 16.6 C 20.0000 %
4145 10-10-2017 16:00:00 16.48 C 20.0000 %
4146 10-10-2017 17:00:00 14.7 C 24.8000 %
4147 10-10-2017 18:00:00 14.02 C 30.6000 %
4148 10-10-2017 19:00:00 13.6 C 33.8000 %
4149 10-10-2017 20:00:00 13.36 C 35.4000 %
4150 10-10-2017 21:00:00 13.4 C 33.8000 %
Sensor: Nr:Datum:Temp:Feuchte:
Aussen-T/F 4151 10-10-2017 22:00:00 13.24 C 32.6000 %
4152 10-10-2017 23:00:00 13.2 C 32.0000 %
4153 11-10-2017 00:00:00 11.64 C 42.6000 %
4154 11-10-2017 01:00:00 11.36 C 50.4000 %
4155 11-10-2017 02:00:00 11.52 C 48.6000 %
4156 11-10-2017 03:00:00 12.14 C 42.4000 %
4157 11-10-2017 04:00:00 12.7 C 33.4000 %
4158 11-10-2017 05:00:00 12.56 C 34.2000 %
4159 11-10-2017 06:00:00 12.5 C 35.0000 %
4160 11-10-2017 07:00:00 12.5 C 35.0000 %
4161 11-10-2017 08:00:00 13 C 26.0000 %
4162 11-10-2017 09:00:00 13.18 C 27.0000 %
4163 11-10-2017 10:00:00 13.72 C 24.2000 %
4164 11-10-2017 11:00:00 15 C 20.0000 %
4165 11-10-2017 12:00:00 14.74 C 20.0000 %
4166 11-10-2017 13:00:00 14.78 C 20.0000 %
4167 11-10-2017 14:00:00 14.74 C 20.0000 %
4168 11-10-2017 15:00:00 14.92 C 20.0000 %
4169 11-10-2017 16:00:00 14.88 C 21.0000 %
4170 11-10-2017 17:00:00 14.4 C 25.0000 %
4171 11-10-2017 18:00:00 14.24 C 26.6000 %
4172 11-10-2017 19:00:00 14 C 29.0000 %
4173 11-10-2017 20:00:00 12.72 C 34.0000 %
4174 11-10-2017 21:00:00 12.14 C 35.6000 %
4175 11-10-2017 22:00:00 12.02 C 38.4000 %
Sensor: Nr:Datum:Temp:Feuchte:
Aussen-T/F 4176 11-10-2017 23:00:00 11.2 C 40.6000 %
4177 12-10-2017 00:00:00 10.76 C 47.6000 %
4178 12-10-2017 01:00:00 10.66 C 58.4000 %
4179 12-10-2017 02:00:00 10.9 C 66.8000 %
4180 12-10-2017 03:00:00 10.28 C 66.0000 %
4181 12-10-2017 04:00:00 11.2 C 69.0000 %
4182 12-10-2017 05:00:00 11.8 C 67.6000 %
4183 12-10-2017 06:00:00 12.56 C 43.2000 %
4184 12-10-2017 07:00:00 12.84 C 34.6000 %
4185 12-10-2017 08:00:00 12.48 C 35.0000 %
4186 12-10-2017 09:00:00 12.56 C 38.2000 %
4187 12-10-2017 10:00:00 13.02 C 28.6000 %
4188 12-10-2017 11:00:00 13.94 C 20.0000 %
4189 12-10-2017 12:00:00 14.94 C 20.0000 %
4190 12-10-2017 13:00:00 16.54 C 20.0000 %
4191 12-10-2017 14:00:00 17.26 C 20.0000 %
4192 12-10-2017 15:00:00 17.82 C 20.0000 %
4193 12-10-2017 16:00:00 17.36 C 20.0000 %
4194 12-10-2017 17:00:00 18.5 C 20.0000 %
4195 12-10-2017 18:00:00 15.1 C 20.0000 %
4196 12-10-2017 19:00:00 12.5 C 21.0000 %
4197 12-10-2017 20:00:00 11.64 C 28.4000 %
4198 12-10-2017 21:00:00 10.68 C 34.2000 %
4199 12-10-2017 22:00:00 10.22 C 39.0000 %
4200 12-10-2017 23:00:00 9.72 C 42.0000 %
Sensor: Nr:Datum:Temp:Feuchte:
Aussen-T/F 4201 13-10-2017 00:00:00 9.56 C 43.2000 %
4202 13-10-2017 01:00:00 9.44 C 46.2000 %
4203 13-10-2017 02:00:00 9.48 C 48.6000 %
4204 13-10-2017 03:00:00 9.52 C 55.8000 %
4205 13-10-2017 04:00:00 9.32 C 60.0000 %
4206 13-10-2017 05:00:00 9.08 C 65.0000 %
4207 13-10-2017 06:00:00 8.8 C 67.4000 %
4208 13-10-2017 07:00:00 10.2 C 69.8000 %
4209 13-10-2017 08:00:00 12.48 C 69.0000 %
4210 13-10-2017 09:00:00 13.82 C 42.4000 %
4211 13-10-2017 10:00:00 15.44 C 24.4000 %
4212 13-10-2017 11:00:00 16.46 C 20.2000 %
4213 13-10-2017 12:00:00 18.02 C 20.0000 %
4214 13-10-2017 13:00:00 19.06 C 20.0000 %
4215 13-10-2017 14:00:00 18.7 C 20.0000 %
4216 13-10-2017 15:00:00 18.6 C 20.0000 %
4217 13-10-2017 16:00:00 18.68 C 20.0000 %
4218 13-10-2017 17:00:00 19.88 C 20.0000 %
4219 13-10-2017 18:00:00 16.92 C 22.2000 %
4220 13-10-2017 19:00:00 14.68 C 32.0000 %
4221 13-10-2017 20:00:00 14.96 C 32.8000 %
4222 13-10-2017 21:00:00 14.76 C 33.4000 %
4223 13-10-2017 22:00:00 13.6 C 37.0000 %
4224 13-10-2017 23:00:00 12.8 C 40.8000 %
4225 14-10-2017 00:00:00 11.72 C 41.6000 %
Sensor: Nr:Datum:Temp:Feuchte:
Aussen-T/F 4226 14-10-2017 01:00:00 10.72 C 48.6000 %
4227 14-10-2017 02:00:00 10.72 C 53.0000 %
4228 14-10-2017 03:00:00 10.54 C 53.4000 %
4229 14-10-2017 04:00:00 9.8 C 57.6000 %
4230 14-10-2017 05:00:00 9.5 C 62.8000 %
4231 14-10-2017 06:00:00 9.16 C 65.4000 %
4232 14-10-2017 07:00:00 9.4 C 68.0000 %
4233 14-10-2017 08:00:00 9.34 C 68.0000 %
4234 14-10-2017 09:00:00 9.94 C 66.4000 %
4235 14-10-2017 10:00:00 10.86 C 64.4000 %
4236 14-10-2017 11:00:00 11.52 C 62.0000 %
4237 14-10-2017 12:00:00 13.3 C 63.2000 %
4238 14-10-2017 13:00:00 14.64 C 54.4000 %
4239 14-10-2017 14:00:00 15.7 C 37.0000 %
4240 14-10-2017 15:00:00 16.44 C 32.4000 %
4241 14-10-2017 16:00:00 16.88 C 29.8000 %
4242 14-10-2017 17:00:00 20.44 C 21.0000 %
4243 14-10-2017 18:00:00 16.54 C 26.2000 %
4244 14-10-2017 19:00:00 14.64 C 33.4000 %
4245 14-10-2017 20:00:00 13.36 C 38.2000 %
4246 14-10-2017 21:00:00 12 C 43.2000 %
4247 14-10-2017 22:00:00 11.42 C 52.0000 %
4248 14-10-2017 23:00:00 10.74 C 58.4000 %
4249 15-10-2017 00:00:00 10.2 C 65.4000 %
4250 15-10-2017 01:00:00 9.78 C 68.2000 %
Sensor: Nr:Datum:Temp:Feuchte:
Aussen-T/F 4251 15-10-2017 02:00:00 9.48 C 69.6000 %
4252 15-10-2017 03:00:00 9.88 C 69.0000 %
4253 15-10-2017 04:00:00 9.82 C 66.6000 %
4254 15-10-2017 05:00:00 9.52 C 65.4000 %
4255 15-10-2017 06:00:00 9.54 C 66.0000 %
4256 15-10-2017 07:00:00 9.04 C 64.2000 %
4257 15-10-2017 08:00:00 9.04 C 66.2000 %
4258 15-10-2017 09:00:00 9.42 C 67.0000 %
4259 15-10-2017 10:00:00 10.48 C 65.2000 %
4260 15-10-2017 11:00:00 10.78 C 51.2000 %
4261 15-10-2017 12:00:00 11.36 C 58.0000 %
4262 15-10-2017 13:00:00 13.16 C 68.0000 %
4263 15-10-2017 14:00:00 15.24 C 68.2000 %
4264 15-10-2017 15:00:00 16.16 C 45.0000 %
4265 15-10-2017 16:00:00 16.78 C 30.4000 %
4266 15-10-2017 17:00:00 19.42 C 20.8000 %
4267 15-10-2017 18:00:00 16.46 C 22.6000 %
4268 15-10-2017 19:00:00 14.14 C 31.0000 %
4269 15-10-2017 20:00:00 13 C 38.4000 %
4270 15-10-2017 21:00:00 11.98 C 42.8000 %
4271 15-10-2017 22:00:00 11.52 C 50.4000 %
4272 15-10-2017 23:00:00 10.56 C 52.6000 %
4273 16-10-2017 00:00:00 10 C 60.8000 %
4274 16-10-2017 01:00:00 9.56 C 66.0000 %
4275 16-10-2017 02:00:00 9.18 C 68.8000 %
Sensor: Nr:Datum:Temp:Feuchte:
Aussen-T/F 4276 16-10-2017 03:00:00 9.12 C 70.2000 %
4277 16-10-2017 04:00:00 8.9 C 70.4000 %
4278 16-10-2017 05:00:00 8.72 C 70.0000 %
4279 16-10-2017 06:00:00 8.74 C 69.6000 %
4280 16-10-2017 07:00:00 8.36 C 68.0000 %
4281 16-10-2017 08:00:00 8.62 C 69.0000 %
4282 16-10-2017 09:00:00 9.8 C 68.8000 %
4283 16-10-2017 10:00:00 11.02 C 68.2000 %
4284 16-10-2017 11:00:00 12.68 C 67.2000 %
4285 16-10-2017 12:00:00 14.46 C 51.4000 %
4286 16-10-2017 13:00:00 16.08 C 38.0000 %
4287 16-10-2017 14:00:00 18.88 C 25.4000 %
4288 16-10-2017 15:00:00 18.92 C 23.4000 %
4289 16-10-2017 16:00:00 18.58 C 24.6000 %
4290 16-10-2017 17:00:00 19.58 C 20.6000 %
4291 16-10-2017 18:00:00 16.9 C 26.6000 %
4292 16-10-2017 19:00:00 14.9 C 34.6000 %
4293 16-10-2017 20:00:00 13.76 C 37.8000 %
4294 16-10-2017 21:00:00 13.22 C 41.0000 %
4295 16-10-2017 22:00:00 12.1 C 44.0000 %
4296 16-10-2017 23:00:00 11.12 C 51.2000 %
4297 17-10-2017 00:00:00 10.56 C 54.6000 %
4298 17-10-2017 01:00:00 10.18 C 61.6000 %
4299 17-10-2017 02:00:00 9.9 C 66.8000 %
4300 17-10-2017 03:00:00 9.7 C 69.0000 %
Sensor: Nr:Datum:Temp:Feuchte:
Aussen-T/F 4301 17-10-2017 04:00:00 9.78 C 67.6000 %
4302 17-10-2017 05:00:00 8.84 C 67.0000 %
4303 17-10-2017 06:00:00 8.98 C 68.6000 %
4304 17-10-2017 07:00:00 8.7 C 68.2000 %
4305 17-10-2017 08:00:00 8.88 C 69.0000 %
4306 17-10-2017 09:00:00 9.68 C 68.4000 %
4307 17-10-2017 10:00:00 11 C 67.8000 %
4308 17-10-2017 11:00:00 12.46 C 65.0000 %
4309 17-10-2017 12:00:00 13.6 C 48.8000 %
4310 17-10-2017 13:00:00 14.7 C 37.6000 %
4311 17-10-2017 14:00:00 15.76 C 31.8000 %
4312 17-10-2017 15:00:00 16.48 C 27.4000 %
4313 17-10-2017 16:00:00 16.9 C 26.4000 %
4314 17-10-2017 17:00:00 18.14 C 21.6000 %
4315 17-10-2017 18:00:00 15.96 C 30.2000 %
4316 17-10-2017 19:00:00 14.38 C 36.6000 %
4317 17-10-2017 20:00:00 13.18 C 43.0000 %
4318 17-10-2017 21:00:00 12.26 C 48.8000 %
4319 17-10-2017 22:00:00 11.72 C 53.8000 %
4320 17-10-2017 23:00:00 11.22 C 58.6000 %
4321 18-10-2017 00:00:00 10.5 C 64.4000 %
4322 18-10-2017 01:00:00 10.32 C 67.0000 %
4323 18-10-2017 02:00:00 11 C 68.4000 %
4324 18-10-2017 03:00:00 10.88 C 66.4000 %
4325 18-10-2017 04:00:00 10.88 C 66.4000 %
Sensor: Nr:Datum:Temp:Feuchte:
Aussen-T/F 4326 18-10-2017 05:00:00 10.58 C 65.0000 %
4327 18-10-2017 06:00:00 10.2 C 64.6000 %
4328 18-10-2017 07:00:00 9.8 C 65.0000 %
4329 18-10-2017 08:00:00 9.36 C 65.2000 %
4330 18-10-2017 09:00:00 9.42 C 66.4000 %
4331 18-10-2017 10:00:00 9.56 C 65.2000 %
4332 18-10-2017 11:00:00 10.64 C 63.2000 %
4333 18-10-2017 12:00:00 12.32 C 55.6000 %
4334 18-10-2017 13:00:00 13.96 C 41.0000 %
4335 18-10-2017 14:00:00 15.22 C 27.4000 %
4336 18-10-2017 15:00:00 16.24 C 20.4000 %
4337 18-10-2017 16:00:00 16.74 C 21.2000 %
4338 18-10-2017 17:00:00 18.66 C 20.0000 %
4339 18-10-2017 18:00:00 14.94 C 24.6000 %
4340 18-10-2017 19:00:00 12.7 C 33.4000 %
4341 18-10-2017 20:00:00 11.32 C 38.6000 %
4342 18-10-2017 21:00:00 10.32 C 42.0000 %
4343 18-10-2017 22:00:00 9.72 C 47.0000 %
4344 18-10-2017 23:00:00 9.2 C 51.6000 %
4345 19-10-2017 00:00:00 8.7 C 57.4000 %
4346 19-10-2017 01:00:00 8.24 C 65.0000 %
4347 19-10-2017 02:00:00 7.78 C 68.4000 %
4348 19-10-2017 03:00:00 7.46 C 70.0000 %
4349 19-10-2017 04:00:00 7.34 C 70.4000 %
4350 19-10-2017 05:00:00 7.56 C 68.8000 %
Sensor: Nr:Datum:Temp:Feuchte:
Aussen-T/F 4351 19-10-2017 06:00:00 8.08 C 68.4000 %
4352 19-10-2017 07:00:00 7.88 C 66.4000 %
4353 19-10-2017 08:00:00 7.98 C 67.2000 %
4354 19-10-2017 09:00:00 8.22 C 66.4000 %
4355 19-10-2017 10:00:00 8.8 C 64.2000 %
4356 19-10-2017 11:00:00 9.66 C 55.2000 %
4357 19-10-2017 12:00:00 10.48 C 50.4000 %
4358 19-10-2017 13:00:00 12.4 C 59.2000 %
4359 19-10-2017 14:00:00 14.58 C 46.0000 %
4360 19-10-2017 15:00:00 15.32 C 33.6000 %
4361 19-10-2017 16:00:00 15.72 C 28.0000 %
4362 19-10-2017 17:00:00 17.12 C 20.8000 %
4363 19-10-2017 18:00:00 14.88 C 27.2000 %
4364 19-10-2017 19:00:00 14.16 C 32.8000 %
4365 19-10-2017 20:00:00 14.14 C 31.4000 %
4366 19-10-2017 21:00:00 13.74 C 32.6000 %
4367 19-10-2017 22:00:00 12.68 C 32.6000 %
4368 19-10-2017 23:00:00 11.14 C 36.2000 %
4369 20-10-2017 00:00:00 10.4 C 40.8000 %
4370 20-10-2017 01:00:00 10.44 C 42.2000 %
4371 20-10-2017 02:00:00 9.96 C 45.4000 %
4372 20-10-2017 03:00:00 10.14 C 49.6000 %
4373 20-10-2017 04:00:00 10.4 C 50.7500 %
4374 20-10-2017 05:00:00 10.48 C 50.6000 %
4375 20-10-2017 06:00:00 10.7 C 50.8000 %
Sensor: Nr:Datum:Temp:Feuchte:
Aussen-T/F 4376 20-10-2017 07:00:00 10.88 C 49.0000 %
4377 20-10-2017 08:00:00 11.74 C 61.4000 %
4378 20-10-2017 09:00:00 12.82 C 67.8000 %
4379 20-10-2017 10:00:00 13.7 C 58.8000 %
4380 20-10-2017 11:00:00 15.32 C 30.4000 %
4381 20-10-2017 12:00:00 13.46 C 23.4000 %
4382 20-10-2017 13:00:00 13.52 C 20.0000 %
4383 20-10-2017 14:00:00 13.92 C 20.0000 %
4384 20-10-2017 15:00:00 14.82 C 20.0000 %
4385 20-10-2017 16:00:00 15.12 C 20.0000 %
4386 20-10-2017 17:00:00 16.16 C 20.0000 %
4387 20-10-2017 18:00:00 12.78 C 20.0000 %
4388 20-10-2017 19:00:00 10.76 C 21.8000 %
4389 20-10-2017 20:00:00 9.22 C 30.8000 %
4390 20-10-2017 21:00:00 7.98 C 34.6000 %
4391 20-10-2017 22:00:00 7.28 C 38.8000 %
4392 20-10-2017 23:00:00 7.04 C 41.6000 %
4393 21-10-2017 00:00:00 6.62 C 44.0000 %
4394 21-10-2017 01:00:00 7.3 C 46.0000 %
4395 21-10-2017 02:00:00 7.86 C 45.6000 %
4396 21-10-2017 03:00:00 7.56 C 43.6000 %
4397 21-10-2017 04:00:00 7.4 C 47.2000 %
4398 21-10-2017 05:00:00 8.2 C 48.8000 %
4399 21-10-2017 06:00:00 8.46 C 45.2000 %
4400 21-10-2017 07:00:00 7.66 C 47.8000 %
Sensor: Nr:Datum:Temp:Feuchte:
Aussen-T/F 4401 21-10-2017 08:00:00 7.66 C 55.0000 %
4402 21-10-2017 09:00:00 9.6 C 65.2000 %
4403 21-10-2017 10:00:00 11.54 C 46.0000 %
4404 21-10-2017 11:00:00 12.68 C 38.2000 %
4405 21-10-2017 12:00:00 15.86 C 24.2000 %
4406 21-10-2017 13:00:00 17.46 C 20.0000 %
4407 21-10-2017 14:00:00 17.46 C 20.0000 %
4408 21-10-2017 15:00:00 17.44 C 20.0000 %
4409 21-10-2017 16:00:00 16.6 C 20.0000 %
4410 21-10-2017 17:00:00 15.66 C 20.0000 %
4411 21-10-2017 18:00:00 13.28 C 27.8000 %
4412 21-10-2017 19:00:00 11.76 C 39.0000 %
4413 21-10-2017 20:00:00 10.46 C 41.4000 %
4414 21-10-2017 21:00:00 10.22 C 39.0000 %
4415 21-10-2017 22:00:00 10.8 C 39.0000 %
4416 21-10-2017 23:00:00 11.2 C 33.6000 %
4417 22-10-2017 00:00:00 11.16 C 21.4000 %
4418 22-10-2017 01:00:00 11.44 C 20.0000 %
4419 22-10-2017 02:00:00 11.6 C 20.0000 %
4420 22-10-2017 03:00:00 11.52 C 20.0000 %
4421 22-10-2017 04:00:00 11.3 C 20.0000 %
4422 22-10-2017 05:00:00 10.9 C 20.0000 %
4423 22-10-2017 06:00:00 10.54 C 20.0000 %
4424 22-10-2017 07:00:00 10.66 C 20.0000 %
4425 22-10-2017 08:00:00 10.66 C 20.0000 %
Sensor: Nr:Datum:Temp:Feuchte:
Aussen-T/F 4426 22-10-2017 09:00:00 10.58 C 20.0000 %
4427 22-10-2017 10:00:00 10.68 C 20.0000 %
4428 22-10-2017 11:00:00 10.56 C 20.0000 %
4429 22-10-2017 12:00:00 9.3 C 29.8000 %
4430 22-10-2017 13:00:00 9.14 C 35.2000 %
4431 22-10-2017 14:00:00 9.36 C 35.0000 %
4432 22-10-2017 15:00:00 9.98 C 34.6000 %
4433 22-10-2017 16:00:00 10.52 C 27.8000 %
4434 22-10-2017 17:00:00 10.9 C 20.0000 %
4435 22-10-2017 18:00:00 10.12 C 25.8000 %
4436 22-10-2017 19:00:00 9.76 C 29.4000 %
4437 22-10-2017 20:00:00 9.38 C 29.4000 %
4438 22-10-2017 21:00:00 9.2 C 26.0000 %
4439 22-10-2017 22:00:00 9.14 C 22.2000 %
4440 22-10-2017 23:00:00 8.42 C 29.4000 %
4441 23-10-2017 00:00:00 8.3 C 33.6000 %
4442 23-10-2017 01:00:00 8.42 C 28.4000 %
4443 23-10-2017 02:00:00 8.9 C 20.0000 %
4444 23-10-2017 03:00:00 8.8 C 21.2000 %
4445 23-10-2017 04:00:00 8.72 C 21.8000 %
4446 23-10-2017 05:00:00 8.96 C 20.0000 %
4447 23-10-2017 06:00:00 8.9 C 21.8000 %
4448 23-10-2017 07:00:00 8.98 C 22.0000 %
4449 23-10-2017 08:00:00 8.9 C 26.0000 %
4450 23-10-2017 09:00:00 9.58 C 20.0000 %
Sensor: Nr:Datum:Temp:Feuchte:
Aussen-T/F 4451 23-10-2017 10:00:00 10.5 C 20.0000 %
4452 23-10-2017 11:00:00 11.34 C 20.0000 %
4453 23-10-2017 12:00:00 11.04 C 27.0000 %
4454 23-10-2017 13:00:00 11.44 C 26.0000 %
4455 23-10-2017 14:00:00 12.56 C 20.0000 %
4456 23-10-2017 15:00:00 12.7 C 20.0000 %
4457 23-10-2017 16:00:00 13.12 C 20.0000 %
4458 23-10-2017 17:00:00 12.64 C 20.0000 %
4459 23-10-2017 18:00:00 11.94 C 20.0000 %
4460 23-10-2017 19:00:00 11.42 C 21.8000 %
4461 23-10-2017 20:00:00 11.16 C 25.8000 %
4462 23-10-2017 21:00:00 11.1 C 26.8000 %
4463 23-10-2017 22:00:00 10.28 C 31.6000 %
4464 23-10-2017 23:00:00 10.48 C 36.6000 %
4465 24-10-2017 00:00:00 10.82 C 35.0000 %
4466 24-10-2017 01:00:00 11.12 C 33.8000 %
4467 24-10-2017 02:00:00 11.5 C 31.4000 %
4468 24-10-2017 03:00:00 11.56 C 32.2000 %
4469 24-10-2017 04:00:00 11.62 C 34.4000 %
4470 24-10-2017 05:00:00 11.44 C 35.8000 %
4471 24-10-2017 06:00:00 11.16 C 41.2000 %
4472 24-10-2017 07:00:00 11.1 C 45.0000 %
4473 24-10-2017 08:00:00 11.1 C 45.0000 %
4474 24-10-2017 09:00:00 11.1 C 45.0000 %
4475 24-10-2017 10:00:00 11.1 C 45.0000 %
Sensor: Nr:Datum:Temp:Feuchte:
Aussen-T/F 4476 24-10-2017 11:00:00 11.1 C 45.0000 %
4477 24-10-2017 12:00:00 11.1 C 45.0000 %
4478 24-10-2017 13:00:00 11.1 C 45.0000 %
4479 24-10-2017 14:00:00 16.14 C 20.0000 %
4480 24-10-2017 15:00:00 15.76 C 20.0000 %
4481 24-10-2017 16:00:00 15.24 C 21.2000 %
4482 24-10-2017 17:00:00 14.44 C 27.8000 %
4483 24-10-2017 18:00:00 14.56 C 25.4000 %
4484 24-10-2017 19:00:00 14.5 C 27.0000 %
4485 24-10-2017 20:00:00 14.56 C 27.0000 %
4486 24-10-2017 21:00:00 14.7 C 27.0000 %
4487 24-10-2017 22:00:00 14.72 C 27.8000 %
4488 24-10-2017 23:00:00 14.78 C 29.0000 %
4489 25-10-2017 00:00:00 14.78 C 30.4000 %
4490 25-10-2017 01:00:00 14.68 C 31.0000 %
4491 25-10-2017 02:00:00 14.64 C 32.0000 %
4492 25-10-2017 03:00:00 14.66 C 32.0000 %
4493 25-10-2017 04:00:00 14.44 C 33.6000 %
4494 25-10-2017 05:00:00 14.36 C 32.6000 %
4495 25-10-2017 06:00:00 14.2 C 33.8000 %
4496 25-10-2017 07:00:00 13.88 C 34.0000 %
4497 25-10-2017 08:00:00 13.5 C 36.8000 %
4498 25-10-2017 09:00:00 14.02 C 37.4000 %
4499 25-10-2017 10:00:00 14.96 C 29.2000 %
4500 25-10-2017 11:00:00 15.84 C 21.4000 %
Sensor: Nr:Datum:Temp:Feuchte:
Aussen-T/F 4501 25-10-2017 12:00:00 16.82 C 20.0000 %
4502 25-10-2017 13:00:00 17.4 C 20.0000 %
4503 25-10-2017 14:00:00 17.9 C 20.0000 %
4504 25-10-2017 15:00:00 18.3 C 20.0000 %
4505 25-10-2017 16:00:00 18.02 C 20.0000 %
4506 25-10-2017 17:00:00 16.76 C 20.0000 %
4507 25-10-2017 18:00:00 13.94 C 24.2000 %
4508 25-10-2017 19:00:00 13.82 C 29.0000 %
4509 25-10-2017 20:00:00 14.68 C 22.8000 %
4510 25-10-2017 21:00:00 14.52 C 23.6000 %
4511 25-10-2017 22:00:00 14.1 C 27.2000 %
4512 25-10-2017 23:00:00 13.2 C 32.6000 %
4513 26-10-2017 00:00:00 12.68 C 36.6000 %
4514 26-10-2017 01:00:00 13.02 C 36.6000 %
4515 26-10-2017 02:00:00 12.98 C 36.0000 %
4516 26-10-2017 03:00:00 12.04 C 38.8000 %
4517 26-10-2017 04:00:00 10.76 C 41.4000 %
4518 26-10-2017 05:00:00 11.1 C 44.8000 %
4519 26-10-2017 06:00:00 11.72 C 40.0000 %
4520 26-10-2017 07:00:00 11.66 C 38.0000 %
4521 26-10-2017 08:00:00 11.76 C 37.2000 %
4522 26-10-2017 09:00:00 12.08 C 34.4000 %
4523 26-10-2017 10:00:00 13 C 27.4000 %
4524 26-10-2017 11:00:00 13.92 C 20.4000 %
4525 26-10-2017 12:00:00 14.66 C 20.0000 %
Sensor: Nr:Datum:Temp:Feuchte:
Aussen-T/F 4526 26-10-2017 13:00:00 15.22 C 20.0000 %
4527 26-10-2017 14:00:00 15.94 C 20.0000 %
4528 26-10-2017 15:00:00 15.42 C 20.0000 %
4529 26-10-2017 16:00:00 15 C 20.0000 %
4530 26-10-2017 17:00:00 14.42 C 20.0000 %
4531 26-10-2017 18:00:00 13.94 C 21.0000 %
4532 26-10-2017 19:00:00 13.66 C 21.4000 %
4533 26-10-2017 20:00:00 13.28 C 23.8000 %
4534 26-10-2017 21:00:00 13 C 25.0000 %
4535 26-10-2017 22:00:00 12.52 C 29.6000 %
4536 26-10-2017 23:00:00 12.52 C 30.0000 %
4537 27-10-2017 00:00:00 12.5 C 30.0000 %
4538 27-10-2017 01:00:00 12.5 C 30.0000 %
4539 27-10-2017 02:00:00 12.7 C 30.6000 %
4540 27-10-2017 03:00:00 12 C 41.8000 %
4541 27-10-2017 04:00:00 10.92 C 39.6000 %